<?xml version="1.0" encoding="UTF-8" standalone="no" ?><gpx xmlns="http://www.topografix.com/GPX/1/1" xmlns:gpxx="http://www.garmin.com/xmlschemas/GpxExtensions/v3" xmlns:wptx1="http://www.garmin.com/xmlschemas/WaypointExtension/v1" xmlns:gpxtpx="http://www.garmin.com/xmlschemas/TrackPointExtension/v1" creator="GPSMAP 62s" version="1.1" xmlns:xsi="http://www.w3.org/2001/XMLSchema-instance" xsi:schemaLocation="http://www.topografix.com/GPX/1/1 http://www.topografix.com/GPX/1/1/gpx.xsd http://www.garmin.com/xmlschemas/GpxExtensions/v3 http://www8.garmin.com/xmlschemas/GpxExtensionsv3.xsd http://www.garmin.com/xmlschemas/WaypointExtension/v1 http://www8.garmin.com/xmlschemas/WaypointExtensionv1.xsd http://www.garmin.com/xmlschemas/TrackPointExtension/v1 http://www.garmin.com/xmlschemas/TrackPointExtensionv1.xsd"><metadata><link href="http://www.garmin.com"><text>Garmin International</text></link><time>2011-10-12T10:34:31Z</time></metadata><trk><name>MM11-09-23 FR</name><extensions><gpxx:TrackExtension><gpxx:DisplayColor>Cyan</gpxx:DisplayColor></gpxx:TrackExtension></extensions><trkseg><trkpt lat="44.0823646635" lon="15.0126649160"><ele>-0.82</ele><time>2011-09-23T06:26:00Z</time></trkpt></trkseg><trkseg><trkpt lat="44.0823970176" lon="15.0126274489"><ele>-1.30</ele><time>2011-09-23T06:26:01Z</time></trkpt><trkpt lat="44.0832644608" lon="15.0117884204"><ele>2.06</ele><time>2011-09-23T06:26:34Z</time></trkpt><trkpt lat="44.0839793533" lon="15.0110683311"><ele>1.58</ele><time>2011-09-23T06:27:04Z</time></trkpt><trkpt lat="44.0849305317" lon="15.0101004727"><ele>2.06</ele><time>2011-09-23T06:27:44Z</time></trkpt><trkpt lat="44.0857885033" lon="15.0092912838"><ele>3.50</ele><time>2011-09-23T06:28:19Z</time></trkpt><trkpt lat="44.0867071599" lon="15.0083214976"><ele>2.54</ele><time>2011-09-23T06:28:58Z</time></trkpt><trkpt lat="44.0874467790" lon="15.0073285773"><ele>1.58</ele><time>2011-09-23T06:29:33Z</time></trkpt><trkpt lat="44.0880964603" lon="15.0064198952"><ele>1.58</ele><time>2011-09-23T06:30:04Z</time></trkpt><trkpt lat="44.0888803359" lon="15.0053319242"><ele>3.02</ele><time>2011-09-23T06:30:41Z</time></trkpt><trkpt lat="44.0896321088" lon="15.0043106731"><ele>3.02</ele><time>2011-09-23T06:31:16Z</time></trkpt><trkpt lat="44.0902853105" lon="15.0034124684"><ele>1.58</ele><time>2011-09-23T06:31:47Z</time></trkpt><trkpt lat="44.0910741314" lon="15.0022658240"><ele>2.06</ele><time>2011-09-23T06:32:25Z</time></trkpt><trkpt lat="44.0918868408" lon="15.0011395477"><ele>2.54</ele><time>2011-09-23T06:33:04Z</time></trkpt><trkpt lat="44.0926773380" lon="15.0000477210"><ele>-0.82</ele><time>2011-09-23T06:33:42Z</time></trkpt><trkpt lat="44.0934229083" lon="14.9990115501"><ele>-0.82</ele><time>2011-09-23T06:34:18Z</time></trkpt><trkpt lat="44.0941147506" lon="14.9979462940"><ele>0.62</ele><time>2011-09-23T06:34:53Z</time></trkpt><trkpt lat="44.0948495083" lon="14.9968483485"><ele>0.14</ele><time>2011-09-23T06:35:30Z</time></trkpt><trkpt lat="44.0957539156" lon="14.9955720361"><ele>0.14</ele><time>2011-09-23T06:36:14Z</time></trkpt><trkpt lat="44.0965254698" lon="14.9944358692"><ele>-0.34</ele><time>2011-09-23T06:36:52Z</time></trkpt><trkpt lat="44.0972014703" lon="14.9934255145"><ele>2.06</ele><time>2011-09-23T06:37:25Z</time></trkpt><trkpt lat="44.0980100725" lon="14.9921709113"><ele>1.10</ele><time>2011-09-23T06:38:05Z</time></trkpt><trkpt lat="44.0988170821" lon="14.9909715448"><ele>1.10</ele><time>2011-09-23T06:38:44Z</time></trkpt><trkpt lat="44.0995131154" lon="14.9899229687"><ele>2.06</ele><time>2011-09-23T06:39:18Z</time></trkpt><trkpt lat="44.1003079712" lon="14.9886830337"><ele>1.10</ele><time>2011-09-23T06:39:58Z</time></trkpt><trkpt lat="44.1010802798" lon="14.9874555878"><ele>1.10</ele><time>2011-09-23T06:40:37Z</time></trkpt><trkpt lat="44.1017074138" lon="14.9865155574"><ele>2.54</ele><time>2011-09-23T06:41:08Z</time></trkpt><trkpt lat="44.1023938917" lon="14.9854690768"><ele>1.58</ele><time>2011-09-23T06:41:42Z</time></trkpt><trkpt lat="44.1031646915" lon="14.9842555448"><ele>1.10</ele><time>2011-09-23T06:42:21Z</time></trkpt><trkpt lat="44.1038025543" lon="14.9833070487"><ele>3.98</ele><time>2011-09-23T06:42:52Z</time></trkpt><trkpt lat="44.1045429278" lon="14.9821332470"><ele>2.54</ele><time>2011-09-23T06:43:30Z</time></trkpt><trkpt lat="44.1053107940" lon="14.9809244927"><ele>2.54</ele><time>2011-09-23T06:44:09Z</time></trkpt><trkpt lat="44.1059442144" lon="14.9799518567"><ele>1.10</ele><time>2011-09-23T06:44:41Z</time></trkpt><trkpt lat="44.1067171935" lon="14.9787564296"><ele>0.14</ele><time>2011-09-23T06:45:20Z</time></trkpt><trkpt lat="44.1075980477" lon="14.9774085358"><ele>0.62</ele><time>2011-09-23T06:46:04Z</time></trkpt><trkpt lat="44.1083343141" lon="14.9762803316"><ele>1.10</ele><time>2011-09-23T06:46:41Z</time></trkpt><trkpt lat="44.1090768669" lon="14.9751520436"><ele>2.06</ele><time>2011-09-23T06:47:18Z</time></trkpt><trkpt lat="44.1098039970" lon="14.9740582053"><ele>2.06</ele><time>2011-09-23T06:47:54Z</time></trkpt><trkpt lat="44.1105530877" lon="14.9729068670"><ele>1.58</ele><time>2011-09-23T06:48:32Z</time></trkpt><trkpt lat="44.1112642922" lon="14.9718044791"><ele>1.58</ele><time>2011-09-23T06:49:08Z</time></trkpt><trkpt lat="44.1120523587" lon="14.9705783743"><ele>2.54</ele><time>2011-09-23T06:49:48Z</time></trkpt><trkpt lat="44.1128934827" lon="14.9692492560"><ele>1.58</ele><time>2011-09-23T06:50:31Z</time></trkpt><trkpt lat="44.1137104668" lon="14.9680004362"><ele>0.62</ele><time>2011-09-23T06:51:12Z</time></trkpt><trkpt lat="44.1145318095" lon="14.9668031652"><ele>0.62</ele><time>2011-09-23T06:51:52Z</time></trkpt><trkpt lat="44.1152192932" lon="14.9657556787"><ele>1.10</ele><time>2011-09-23T06:52:27Z</time></trkpt><trkpt lat="44.1159078665" lon="14.9647563044"><ele>1.10</ele><time>2011-09-23T06:53:01Z</time></trkpt><trkpt lat="44.1165371798" lon="14.9637952354"><ele>0.14</ele><time>2011-09-23T06:53:33Z</time></trkpt><trkpt lat="44.1172242444" lon="14.9627344217"><ele>0.62</ele><time>2011-09-23T06:54:08Z</time></trkpt><trkpt lat="44.1179312579" lon="14.9616834987"><ele>0.62</ele><time>2011-09-23T06:54:43Z</time></trkpt><trkpt lat="44.1186924186" lon="14.9605161510"><ele>-0.34</ele><time>2011-09-23T06:55:22Z</time></trkpt><trkpt lat="44.1193548404" lon="14.9594912957"><ele>-0.34</ele><time>2011-09-23T06:55:56Z</time></trkpt><trkpt lat="44.1200440843" lon="14.9584446475"><ele>0.14</ele><time>2011-09-23T06:56:31Z</time></trkpt><trkpt lat="44.1207457334" lon="14.9574374780"><ele>0.14</ele><time>2011-09-23T06:57:06Z</time></trkpt><trkpt lat="44.1214486398" lon="14.9563711323"><ele>-0.34</ele><time>2011-09-23T06:57:42Z</time></trkpt><trkpt lat="44.1222383827" lon="14.9551944807"><ele>0.14</ele><time>2011-09-23T06:58:22Z</time></trkpt><trkpt lat="44.1228770837" lon="14.9542663526"><ele>0.62</ele><time>2011-09-23T06:58:54Z</time></trkpt><trkpt lat="44.1236100812" lon="14.9531964865"><ele>-0.34</ele><time>2011-09-23T06:59:31Z</time></trkpt><trkpt lat="44.1243308410" lon="14.9520803522"><ele>0.62</ele><time>2011-09-23T07:00:08Z</time></trkpt><trkpt lat="44.1250361782" lon="14.9509512261"><ele>0.62</ele><time>2011-09-23T07:00:45Z</time></trkpt><trkpt lat="44.1258208919" lon="14.9497602414"><ele>2.06</ele><time>2011-09-23T07:01:24Z</time></trkpt><trkpt lat="44.1265170928" lon="14.9486959074"><ele>2.06</ele><time>2011-09-23T07:01:59Z</time></trkpt><trkpt lat="44.1272335779" lon="14.9475922622"><ele>1.10</ele><time>2011-09-23T07:02:35Z</time></trkpt><trkpt lat="44.1280105803" lon="14.9463576917"><ele>1.58</ele><time>2011-09-23T07:03:15Z</time></trkpt><trkpt lat="44.1287001595" lon="14.9452730734"><ele>1.58</ele><time>2011-09-23T07:03:50Z</time></trkpt><trkpt lat="44.1294002999" lon="14.9441979267"><ele>1.10</ele><time>2011-09-23T07:04:25Z</time></trkpt><trkpt lat="44.1300939862" lon="14.9431618396"><ele>1.10</ele><time>2011-09-23T07:04:59Z</time></trkpt><trkpt lat="44.1307882592" lon="14.9420562666"><ele>1.58</ele><time>2011-09-23T07:05:34Z</time></trkpt><trkpt lat="44.1315034870" lon="14.9409366120"><ele>1.58</ele><time>2011-09-23T07:06:10Z</time></trkpt><trkpt lat="44.1323446948" lon="14.9396591261"><ele>1.58</ele><time>2011-09-23T07:06:51Z</time></trkpt><trkpt lat="44.1330465116" lon="14.9385608453"><ele>2.06</ele><time>2011-09-23T07:07:26Z</time></trkpt><trkpt lat="44.1337909922" lon="14.9374194816"><ele>1.10</ele><time>2011-09-23T07:08:03Z</time></trkpt><trkpt lat="44.1346580163" lon="14.9361300934"><ele>2.06</ele><time>2011-09-23T07:08:45Z</time></trkpt><trkpt lat="44.1354155727" lon="14.9349423777"><ele>1.58</ele><time>2011-09-23T07:09:23Z</time></trkpt><trkpt lat="44.1361696087" lon="14.9337378982"><ele>2.06</ele><time>2011-09-23T07:10:01Z</time></trkpt><trkpt lat="44.1370092239" lon="14.9324672017"><ele>2.06</ele><time>2011-09-23T07:10:42Z</time></trkpt><trkpt lat="44.1377957817" lon="14.9312734511"><ele>2.54</ele><time>2011-09-23T07:11:20Z</time></trkpt><trkpt lat="44.1384948324" lon="14.9302190077"><ele>1.58</ele><time>2011-09-23T07:11:54Z</time></trkpt><trkpt lat="44.1391825676" lon="14.9291484710"><ele>2.06</ele><time>2011-09-23T07:12:28Z</time></trkpt><trkpt lat="44.1399535351" lon="14.9279437400"><ele>2.54</ele><time>2011-09-23T07:13:06Z</time></trkpt><trkpt lat="44.1406773962" lon="14.9268607982"><ele>2.06</ele><time>2011-09-23T07:13:41Z</time></trkpt><trkpt lat="44.1413805541" lon="14.9257976376"><ele>1.58</ele><time>2011-09-23T07:14:15Z</time></trkpt><trkpt lat="44.1419859789" lon="14.9248395022"><ele>1.58</ele><time>2011-09-23T07:14:45Z</time></trkpt><trkpt lat="44.1426372528" lon="14.9238194246"><ele>2.06</ele><time>2011-09-23T07:15:17Z</time></trkpt><trkpt lat="44.1433166061" lon="14.9227882829"><ele>1.10</ele><time>2011-09-23T07:15:50Z</time></trkpt><trkpt lat="44.1439496912" lon="14.9218217656"><ele>2.06</ele><time>2011-09-23T07:16:21Z</time></trkpt><trkpt lat="44.1446511727" lon="14.9207789730"><ele>0.62</ele><time>2011-09-23T07:16:55Z</time></trkpt><trkpt lat="44.1452448629" lon="14.9198283814"><ele>0.62</ele><time>2011-09-23T07:17:25Z</time></trkpt><trkpt lat="44.1459129844" lon="14.9188051187"><ele>0.14</ele><time>2011-09-23T07:17:58Z</time></trkpt><trkpt lat="44.1467195749" lon="14.9176151399"><ele>0.62</ele><time>2011-09-23T07:18:37Z</time></trkpt><trkpt lat="44.1475512274" lon="14.9163503107"><ele>1.10</ele><time>2011-09-23T07:19:18Z</time></trkpt><trkpt lat="44.1483860649" lon="14.9150180910"><ele>3.02</ele><time>2011-09-23T07:20:00Z</time></trkpt><trkpt lat="44.1491173860" lon="14.9138652440"><ele>2.54</ele><time>2011-09-23T07:20:37Z</time></trkpt><trkpt lat="44.1499955580" lon="14.9125458486"><ele>2.06</ele><time>2011-09-23T07:21:20Z</time></trkpt><trkpt lat="44.1509076767" lon="14.9111110345"><ele>2.06</ele><time>2011-09-23T07:22:06Z</time></trkpt><trkpt lat="44.1516631376" lon="14.9099372327"><ele>2.54</ele><time>2011-09-23T07:22:44Z</time></trkpt><trkpt lat="44.1525206063" lon="14.9086690508"><ele>2.54</ele><time>2011-09-23T07:23:26Z</time></trkpt><trkpt lat="44.1532712057" lon="14.9075458758"><ele>2.54</ele><time>2011-09-23T07:24:03Z</time></trkpt><trkpt lat="44.1540552489" lon="14.9063641112"><ele>1.58</ele><time>2011-09-23T07:24:42Z</time></trkpt><trkpt lat="44.1548290662" lon="14.9052214064"><ele>1.58</ele><time>2011-09-23T07:25:20Z</time></trkpt><trkpt lat="44.1555796657" lon="14.9041212816"><ele>1.10</ele><time>2011-09-23T07:25:57Z</time></trkpt><trkpt lat="44.1562295984" lon="14.9031652417"><ele>2.06</ele><time>2011-09-23T07:26:29Z</time></trkpt><trkpt lat="44.1570320819" lon="14.9020199385"><ele>3.50</ele><time>2011-09-23T07:27:08Z</time></trkpt><trkpt lat="44.1578151193" lon="14.9008497410"><ele>2.54</ele><time>2011-09-23T07:27:47Z</time></trkpt><trkpt lat="44.1585761961" lon="14.8996869195"><ele>2.06</ele><time>2011-09-23T07:28:25Z</time></trkpt><trkpt lat="44.1593503486" lon="14.8985283729"><ele>1.58</ele><time>2011-09-23T07:29:03Z</time></trkpt><trkpt lat="44.1600488964" lon="14.8975104745"><ele>3.02</ele><time>2011-09-23T07:29:37Z</time></trkpt><trkpt lat="44.1606655531" lon="14.8965738807"><ele>2.54</ele><time>2011-09-23T07:30:08Z</time></trkpt><trkpt lat="44.1613952816" lon="14.8954880890"><ele>2.54</ele><time>2011-09-23T07:30:44Z</time></trkpt><trkpt lat="44.1621727031" lon="14.8943374213"><ele>2.54</ele><time>2011-09-23T07:31:22Z</time></trkpt><trkpt lat="44.1628328618" lon="14.8933247197"><ele>3.02</ele><time>2011-09-23T07:31:55Z</time></trkpt><trkpt lat="44.1635004804" lon="14.8923183884"><ele>2.06</ele><time>2011-09-23T07:32:28Z</time></trkpt><trkpt lat="44.1641686019" lon="14.8913486023"><ele>1.58</ele><time>2011-09-23T07:33:00Z</time></trkpt><trkpt lat="44.1648186184" lon="14.8903710209"><ele>1.58</ele><time>2011-09-23T07:33:32Z</time></trkpt><trkpt lat="44.1654534638" lon="14.8894299008"><ele>2.06</ele><time>2011-09-23T07:34:04Z</time></trkpt><trkpt lat="44.1661096830" lon="14.8884800635"><ele>3.02</ele><time>2011-09-23T07:34:37Z</time></trkpt><trkpt lat="44.1669422574" lon="14.8872936890"><ele>3.98</ele><time>2011-09-23T07:35:18Z</time></trkpt><trkpt lat="44.1675758455" lon="14.8863026965"><ele>3.50</ele><time>2011-09-23T07:35:50Z</time></trkpt><trkpt lat="44.1683239304" lon="14.8850917630"><ele>3.50</ele><time>2011-09-23T07:36:28Z</time></trkpt><trkpt lat="44.1690408345" lon="14.8839509860"><ele>3.50</ele><time>2011-09-23T07:37:04Z</time></trkpt><trkpt lat="44.1698251292" lon="14.8827241268"><ele>3.02</ele><time>2011-09-23T07:37:43Z</time></trkpt><trkpt lat="44.1705393512" lon="14.8815273587"><ele>3.02</ele><time>2011-09-23T07:38:20Z</time></trkpt><trkpt lat="44.1711369809" lon="14.8805743363"><ele>2.54</ele><time>2011-09-23T07:38:50Z</time></trkpt><trkpt lat="44.1718050186" lon="14.8795212340"><ele>2.54</ele><time>2011-09-23T07:39:23Z</time></trkpt><trkpt lat="44.1725795064" lon="14.8783069476"><ele>3.02</ele><time>2011-09-23T07:40:01Z</time></trkpt><trkpt lat="44.1731847636" lon="14.8773300368"><ele>2.06</ele><time>2011-09-23T07:40:31Z</time></trkpt><trkpt lat="44.1738904361" lon="14.8761761002"><ele>1.10</ele><time>2011-09-23T07:41:06Z</time></trkpt><trkpt lat="44.1746014729" lon="14.8750610556"><ele>1.58</ele><time>2011-09-23T07:41:40Z</time></trkpt><trkpt lat="44.1754184570" lon="14.8738081288"><ele>2.54</ele><time>2011-09-23T07:42:19Z</time></trkpt><trkpt lat="44.1760873329" lon="14.8727753945"><ele>3.50</ele><time>2011-09-23T07:42:51Z</time></trkpt><trkpt lat="44.1767962743" lon="14.8716672231"><ele>3.02</ele><time>2011-09-23T07:43:25Z</time></trkpt><trkpt lat="44.1774933971" lon="14.8705550283"><ele>1.10</ele><time>2011-09-23T07:43:59Z</time></trkpt><trkpt lat="44.1781952977" lon="14.8694752716"><ele>1.10</ele><time>2011-09-23T07:44:32Z</time></trkpt><trkpt lat="44.1787866410" lon="14.8685553577"><ele>2.06</ele><time>2011-09-23T07:45:00Z</time></trkpt><trkpt lat="44.1795317084" lon="14.8674159218"><ele>2.54</ele><time>2011-09-23T07:45:35Z</time></trkpt><trkpt lat="44.1802066192" lon="14.8663815949"><ele>2.54</ele><time>2011-09-23T07:46:07Z</time></trkpt><trkpt lat="44.1808620002" lon="14.8653669655"><ele>2.54</ele><time>2011-09-23T07:46:38Z</time></trkpt><trkpt lat="44.1815741267" lon="14.8642690200"><ele>1.58</ele><time>2011-09-23T07:47:12Z</time></trkpt><trkpt lat="44.1822254844" lon="14.8632851522"><ele>2.54</ele><time>2011-09-23T07:47:43Z</time></trkpt><trkpt lat="44.1829257924" lon="14.8621981032"><ele>3.50</ele><time>2011-09-23T07:48:17Z</time></trkpt><trkpt lat="44.1836192273" lon="14.8610787001"><ele>3.98</ele><time>2011-09-23T07:48:51Z</time></trkpt><trkpt lat="44.1842841636" lon="14.8599308822"><ele>2.06</ele><time>2011-09-23T07:49:26Z</time></trkpt><trkpt lat="44.1848389618" lon="14.8588895984"><ele>1.58</ele><time>2011-09-23T07:49:57Z</time></trkpt><trkpt lat="44.1854561213" lon="14.8577522580"><ele>2.54</ele><time>2011-09-23T07:50:31Z</time></trkpt><trkpt lat="44.1860106681" lon="14.8566984013"><ele>3.02</ele><time>2011-09-23T07:51:02Z</time></trkpt><trkpt lat="44.1864680685" lon="14.8558297008"><ele>3.50</ele><time>2011-09-23T07:51:28Z</time></trkpt><trkpt lat="44.1870760918" lon="14.8546767700"><ele>3.50</ele><time>2011-09-23T07:52:02Z</time></trkpt><trkpt lat="44.1876739729" lon="14.8535749689"><ele>2.54</ele><time>2011-09-23T07:52:35Z</time></trkpt><trkpt lat="44.1882351413" lon="14.8525450006"><ele>2.06</ele><time>2011-09-23T07:53:06Z</time></trkpt><trkpt lat="44.1888154205" lon="14.8514206521"><ele>2.54</ele><time>2011-09-23T07:53:39Z</time></trkpt><trkpt lat="44.1894657724" lon="14.8502163403"><ele>2.06</ele><time>2011-09-23T07:54:15Z</time></trkpt><trkpt lat="44.1900245938" lon="14.8491112702"><ele>1.58</ele><time>2011-09-23T07:54:47Z</time></trkpt><trkpt lat="44.1906233132" lon="14.8479251470"><ele>1.10</ele><time>2011-09-23T07:55:21Z</time></trkpt><trkpt lat="44.1911586653" lon="14.8468186520"><ele>1.10</ele><time>2011-09-23T07:55:52Z</time></trkpt><trkpt lat="44.1916224360" lon="14.8458637018"><ele>1.10</ele><time>2011-09-23T07:56:19Z</time></trkpt><trkpt lat="44.1921059880" lon="14.8449126910"><ele>1.10</ele><time>2011-09-23T07:56:46Z</time></trkpt><trkpt lat="44.1926317848" lon="14.8438870814"><ele>1.58</ele><time>2011-09-23T07:57:15Z</time></trkpt><trkpt lat="44.1930960584" lon="14.8429133557"><ele>2.06</ele><time>2011-09-23T07:57:42Z</time></trkpt><trkpt lat="44.1935630143" lon="14.8418909311"><ele>1.10</ele><time>2011-09-23T07:58:10Z</time></trkpt><trkpt lat="44.1939932574" lon="14.8410043772"><ele>1.58</ele><time>2011-09-23T07:58:35Z</time></trkpt><trkpt lat="44.1944895498" lon="14.8399881553"><ele>2.54</ele><time>2011-09-23T07:59:03Z</time></trkpt><trkpt lat="44.1948744468" lon="14.8391712550"><ele>2.54</ele><time>2011-09-23T07:59:26Z</time></trkpt><trkpt lat="44.1953427438" lon="14.8382266983"><ele>1.10</ele><time>2011-09-23T07:59:53Z</time></trkpt><trkpt lat="44.1957786866" lon="14.8373025097"><ele>-0.34</ele><time>2011-09-23T08:00:20Z</time></trkpt><trkpt lat="44.1962085944" lon="14.8363508284"><ele>-0.34</ele><time>2011-09-23T08:00:48Z</time></trkpt><trkpt lat="44.1966224927" lon="14.8354444932"><ele>-1.30</ele><time>2011-09-23T08:01:15Z</time></trkpt><trkpt lat="44.1970171966" lon="14.8345824145"><ele>-1.30</ele><time>2011-09-23T08:01:41Z</time></trkpt><trkpt lat="44.1974330228" lon="14.8336863890"><ele>0.14</ele><time>2011-09-23T08:02:08Z</time></trkpt><trkpt lat="44.1979182512" lon="14.8326945584"><ele>1.58</ele><time>2011-09-23T08:02:39Z</time></trkpt><trkpt lat="44.1984406114" lon="14.8315811064"><ele>2.06</ele><time>2011-09-23T08:03:13Z</time></trkpt><trkpt lat="44.1988922283" lon="14.8305891082"><ele>1.58</ele><time>2011-09-23T08:03:43Z</time></trkpt><trkpt lat="44.1993423365" lon="14.8295974452"><ele>0.62</ele><time>2011-09-23T08:04:13Z</time></trkpt><trkpt lat="44.1997796204" lon="14.8285953887"><ele>-0.82</ele><time>2011-09-23T08:04:43Z</time></trkpt><trkpt lat="44.2003104463" lon="14.8274956830"><ele>0.14</ele><time>2011-09-23T08:05:17Z</time></trkpt><trkpt lat="44.2009236664" lon="14.8265998252"><ele>1.10</ele><time>2011-09-23T08:05:49Z</time></trkpt><trkpt lat="44.2014592700" lon="14.8257877026"><ele>1.10</ele><time>2011-09-23T08:06:17Z</time></trkpt><trkpt lat="44.2020507809" lon="14.8249046691"><ele>1.58</ele><time>2011-09-23T08:06:48Z</time></trkpt><trkpt lat="44.2026092671" lon="14.8241150100"><ele>1.58</ele><time>2011-09-23T08:07:16Z</time></trkpt><trkpt lat="44.2031538393" lon="14.8233566992"><ele>1.58</ele><time>2011-09-23T08:07:43Z</time></trkpt><trkpt lat="44.2036604416" lon="14.8227404617"><ele>2.06</ele><time>2011-09-23T08:08:07Z</time></trkpt><trkpt lat="44.2042588256" lon="14.8220781237"><ele>2.54</ele><time>2011-09-23T08:08:34Z</time></trkpt><trkpt lat="44.2049420346" lon="14.8213779833"><ele>1.58</ele><time>2011-09-23T08:09:04Z</time></trkpt><trkpt lat="44.2056353018" lon="14.8206816986"><ele>2.06</ele><time>2011-09-23T08:09:34Z</time></trkpt><trkpt lat="44.2063105479" lon="14.8199562449"><ele>2.54</ele><time>2011-09-23T08:10:04Z</time></trkpt><trkpt lat="44.2069395259" lon="14.8193011153"><ele>2.54</ele><time>2011-09-23T08:10:32Z</time></trkpt><trkpt lat="44.2075493932" lon="14.8186560441"><ele>3.02</ele><time>2011-09-23T08:10:59Z</time></trkpt><trkpt lat="44.2081755213" lon="14.8180093803"><ele>2.54</ele><time>2011-09-23T08:11:26Z</time></trkpt><trkpt lat="44.2088757455" lon="14.8173163645"><ele>3.02</ele><time>2011-09-23T08:11:56Z</time></trkpt><trkpt lat="44.2095556017" lon="14.8165840376"><ele>3.02</ele><time>2011-09-23T08:12:26Z</time></trkpt><trkpt lat="44.2102904432" lon="14.8158009164"><ele>2.54</ele><time>2011-09-23T08:12:58Z</time></trkpt><trkpt lat="44.2110612430" lon="14.8149834294"><ele>1.10</ele><time>2011-09-23T08:13:32Z</time></trkpt><trkpt lat="44.2117721122" lon="14.8142484203"><ele>0.62</ele><time>2011-09-23T08:14:02Z</time></trkpt><trkpt lat="44.2124802992" lon="14.8135235533"><ele>0.14</ele><time>2011-09-23T08:14:32Z</time></trkpt><trkpt lat="44.2132536974" lon="14.8127131909"><ele>0.14</ele><time>2011-09-23T08:15:05Z</time></trkpt><trkpt lat="44.2139883712" lon="14.8119107913"><ele>0.14</ele><time>2011-09-23T08:15:37Z</time></trkpt><trkpt lat="44.2148001585" lon="14.8110630456"><ele>1.58</ele><time>2011-09-23T08:16:12Z</time></trkpt><trkpt lat="44.2155575473" lon="14.8102838639"><ele>1.58</ele><time>2011-09-23T08:16:44Z</time></trkpt><trkpt lat="44.2163963243" lon="14.8094342742"><ele>2.06</ele><time>2011-09-23T08:17:19Z</time></trkpt><trkpt lat="44.2171239574" lon="14.8086670786"><ele>1.58</ele><time>2011-09-23T08:17:50Z</time></trkpt><trkpt lat="44.2178505007" lon="14.8078946024"><ele>1.10</ele><time>2011-09-23T08:18:21Z</time></trkpt><trkpt lat="44.2186058778" lon="14.8070953880"><ele>1.10</ele><time>2011-09-23T08:18:53Z</time></trkpt><trkpt lat="44.2193062697" lon="14.8063601274"><ele>2.54</ele><time>2011-09-23T08:19:23Z</time></trkpt><trkpt lat="44.2200519238" lon="14.8055566382"><ele>2.06</ele><time>2011-09-23T08:19:55Z</time></trkpt><trkpt lat="44.2207308579" lon="14.8046648037"><ele>2.06</ele><time>2011-09-23T08:20:26Z</time></trkpt><trkpt lat="44.2214852292" lon="14.8036760744"><ele>2.06</ele><time>2011-09-23T08:21:00Z</time></trkpt><trkpt lat="44.2221211642" lon="14.8029232118"><ele>2.06</ele><time>2011-09-23T08:21:28Z</time></trkpt><trkpt lat="44.2228679080" lon="14.8020548467"><ele>2.54</ele><time>2011-09-23T08:22:01Z</time></trkpt><trkpt lat="44.2235760950" lon="14.8012232780"><ele>2.54</ele><time>2011-09-23T08:22:33Z</time></trkpt><trkpt lat="44.2242534366" lon="14.8004249856"><ele>2.06</ele><time>2011-09-23T08:23:03Z</time></trkpt><trkpt lat="44.2250922974" lon="14.7994931694"><ele>2.06</ele><time>2011-09-23T08:23:39Z</time></trkpt><trkpt lat="44.2257569823" lon="14.7987393849"><ele>1.58</ele><time>2011-09-23T08:24:08Z</time></trkpt><trkpt lat="44.2264866270" lon="14.7979047988"><ele>2.06</ele><time>2011-09-23T08:24:40Z</time></trkpt><trkpt lat="44.2272632103" lon="14.7970594000"><ele>3.02</ele><time>2011-09-23T08:25:13Z</time></trkpt><trkpt lat="44.2280824576" lon="14.7961341217"><ele>3.02</ele><time>2011-09-23T08:25:48Z</time></trkpt><trkpt lat="44.2286924087" lon="14.7954515833"><ele>2.54</ele><time>2011-09-23T08:26:14Z</time></trkpt><trkpt lat="44.2294356320" lon="14.7945883311"><ele>1.58</ele><time>2011-09-23T08:26:46Z</time></trkpt><trkpt lat="44.2300649453" lon="14.7938634641"><ele>1.10</ele><time>2011-09-23T08:27:13Z</time></trkpt><trkpt lat="44.2308370024" lon="14.7930002958"><ele>1.58</ele><time>2011-09-23T08:27:46Z</time></trkpt><trkpt lat="44.2315621208" lon="14.7921770252"><ele>1.10</ele><time>2011-09-23T08:28:17Z</time></trkpt><trkpt lat="44.2323516123" lon="14.7912659124"><ele>1.10</ele><time>2011-09-23T08:28:51Z</time></trkpt><trkpt lat="44.2330744676" lon="14.7904462460"><ele>1.58</ele><time>2011-09-23T08:29:22Z</time></trkpt><trkpt lat="44.2337386496" lon="14.7896975745"><ele>1.58</ele><time>2011-09-23T08:29:50Z</time></trkpt><trkpt lat="44.2344882432" lon="14.7888047341"><ele>0.62</ele><time>2011-09-23T08:30:22Z</time></trkpt><trkpt lat="44.2351008765" lon="14.7880403046"><ele>0.14</ele><time>2011-09-23T08:30:50Z</time></trkpt><trkpt lat="44.2357715126" lon="14.7871619649"><ele>0.62</ele><time>2011-09-23T08:31:22Z</time></trkpt><trkpt lat="44.2362730019" lon="14.7860611696"><ele>2.06</ele><time>2011-09-23T08:31:54Z</time></trkpt><trkpt lat="44.2368092760" lon="14.7848319635"><ele>2.06</ele><time>2011-09-23T08:32:29Z</time></trkpt><trkpt lat="44.2373964284" lon="14.7835213691"><ele>1.58</ele><time>2011-09-23T08:33:07Z</time></trkpt><trkpt lat="44.2379447725" lon="14.7822772432"><ele>1.10</ele><time>2011-09-23T08:33:43Z</time></trkpt><trkpt lat="44.2385432404" lon="14.7809824068"><ele>0.62</ele><time>2011-09-23T08:34:21Z</time></trkpt><trkpt lat="44.2390546203" lon="14.7798508499"><ele>0.62</ele><time>2011-09-23T08:34:54Z</time></trkpt><trkpt lat="44.2395838536" lon="14.7787197120"><ele>0.62</ele><time>2011-09-23T08:35:27Z</time></trkpt><trkpt lat="44.2401230615" lon="14.7775993031"><ele>0.62</ele><time>2011-09-23T08:36:00Z</time></trkpt><trkpt lat="44.2406932823" lon="14.7764044628"><ele>1.10</ele><time>2011-09-23T08:36:35Z</time></trkpt><trkpt lat="44.2412404530" lon="14.7752852272"><ele>1.10</ele><time>2011-09-23T08:37:08Z</time></trkpt><trkpt lat="44.2417706084" lon="14.7741875332"><ele>0.62</ele><time>2011-09-23T08:37:40Z</time></trkpt><trkpt lat="44.2423295975" lon="14.7730132286"><ele>1.58</ele><time>2011-09-23T08:38:14Z</time></trkpt><trkpt lat="44.2427828908" lon="14.7720846813"><ele>3.50</ele><time>2011-09-23T08:38:41Z</time></trkpt><trkpt lat="44.2432296462" lon="14.7712183278"><ele>2.54</ele><time>2011-09-23T08:39:07Z</time></trkpt><trkpt lat="44.2438422795" lon="14.7699499782"><ele>2.54</ele><time>2011-09-23T08:39:44Z</time></trkpt><trkpt lat="44.2443531565" lon="14.7688882425"><ele>2.54</ele><time>2011-09-23T08:40:15Z</time></trkpt><trkpt lat="44.2448188551" lon="14.7679340467"><ele>2.54</ele><time>2011-09-23T08:40:43Z</time></trkpt><trkpt lat="44.2453588173" lon="14.7668447345"><ele>2.54</ele><time>2011-09-23T08:41:15Z</time></trkpt><trkpt lat="44.2459402699" lon="14.7656406742"><ele>2.54</ele><time>2011-09-23T08:41:50Z</time></trkpt><trkpt lat="44.2465191241" lon="14.7645228636"><ele>1.10</ele><time>2011-09-23T08:42:23Z</time></trkpt><trkpt lat="44.2470217030" lon="14.7634864412"><ele>1.58</ele><time>2011-09-23T08:42:53Z</time></trkpt><trkpt lat="44.2475491762" lon="14.7624176648"><ele>1.58</ele><time>2011-09-23T08:43:24Z</time></trkpt><trkpt lat="44.2478119489" lon="14.7618989088"><ele>2.06</ele><time>2011-09-23T08:43:39Z</time></trkpt><trkpt lat="44.2483097501" lon="14.7609253507"><ele>2.54</ele><time>2011-09-23T08:44:07Z</time></trkpt><trkpt lat="44.2488994170" lon="14.7597802989"><ele>3.02</ele><time>2011-09-23T08:44:40Z</time></trkpt><trkpt lat="44.2493895069" lon="14.7587307170"><ele>2.54</ele><time>2011-09-23T08:45:09Z</time></trkpt><trkpt lat="44.2498845421" lon="14.7576640360"><ele>3.02</ele><time>2011-09-23T08:45:40Z</time></trkpt><trkpt lat="44.2504490633" lon="14.7564457264"><ele>3.02</ele><time>2011-09-23T08:46:16Z</time></trkpt><trkpt lat="44.2510469444" lon="14.7551179491"><ele>2.54</ele><time>2011-09-23T08:46:55Z</time></trkpt><trkpt lat="44.2514695600" lon="14.7540129628"><ele>3.50</ele><time>2011-09-23T08:47:26Z</time></trkpt><trkpt lat="44.2519362643" lon="14.7531833220"><ele>1.10</ele><time>2011-09-23T08:47:53Z</time></trkpt><trkpt lat="44.2526058946" lon="14.7524498217"><ele>1.58</ele><time>2011-09-23T08:48:23Z</time></trkpt><trkpt lat="44.2533479445" lon="14.7517091129"><ele>2.06</ele><time>2011-09-23T08:48:55Z</time></trkpt><trkpt lat="44.2540788464" lon="14.7510128282"><ele>1.10</ele><time>2011-09-23T08:49:27Z</time></trkpt><trkpt lat="44.2548172921" lon="14.7503162082"><ele>2.54</ele><time>2011-09-23T08:49:59Z</time></trkpt><trkpt lat="44.2555238027" lon="14.7496459074"><ele>2.06</ele><time>2011-09-23T08:50:29Z</time></trkpt><trkpt lat="44.2562759947" lon="14.7489571664"><ele>1.10</ele><time>2011-09-23T08:51:00Z</time></trkpt><trkpt lat="44.2570043821" lon="14.7482845187"><ele>2.06</ele><time>2011-09-23T08:51:30Z</time></trkpt><trkpt lat="44.2578439135" lon="14.7475255374"><ele>2.06</ele><time>2011-09-23T08:52:04Z</time></trkpt><trkpt lat="44.2585912440" lon="14.7468408197"><ele>2.54</ele><time>2011-09-23T08:52:34Z</time></trkpt><trkpt lat="44.2594835814" lon="14.7460493166"><ele>3.02</ele><time>2011-09-23T08:53:09Z</time></trkpt><trkpt lat="44.2602458317" lon="14.7453261260"><ele>1.58</ele><time>2011-09-23T08:53:40Z</time></trkpt><trkpt lat="44.2609706149" lon="14.7446646262"><ele>0.62</ele><time>2011-09-23T08:54:11Z</time></trkpt><trkpt lat="44.2618145887" lon="14.7439517453"><ele>0.62</ele><time>2011-09-23T08:54:48Z</time></trkpt><trkpt lat="44.2625437304" lon="14.7433239408"><ele>-1.30</ele><time>2011-09-23T08:55:20Z</time></trkpt><trkpt lat="44.2633167934" lon="14.7426501196"><ele>-1.30</ele><time>2011-09-23T08:55:54Z</time></trkpt><trkpt lat="44.2641238868" lon="14.7419620492"><ele>2.54</ele><time>2011-09-23T08:56:29Z</time></trkpt><trkpt lat="44.2647907510" lon="14.7413073387"><ele>1.58</ele><time>2011-09-23T08:57:00Z</time></trkpt><trkpt lat="44.2655592877" lon="14.7406434920"><ele>2.54</ele><time>2011-09-23T08:57:34Z</time></trkpt><trkpt lat="44.2663186882" lon="14.7398902103"><ele>-0.82</ele><time>2011-09-23T08:58:09Z</time></trkpt><trkpt lat="44.2670121230" lon="14.7393499967"><ele>2.06</ele><time>2011-09-23T08:58:40Z</time></trkpt><trkpt lat="44.2677460425" lon="14.7389084380"><ele>2.06</ele><time>2011-09-23T08:59:10Z</time></trkpt><trkpt lat="44.2683976516" lon="14.7383468505"><ele>3.50</ele><time>2011-09-23T08:59:39Z</time></trkpt><trkpt lat="44.2690938525" lon="14.7377633862"><ele>4.94</ele><time>2011-09-23T09:00:10Z</time></trkpt><trkpt lat="44.2697595432" lon="14.7372326441"><ele>2.54</ele><time>2011-09-23T09:00:39Z</time></trkpt><trkpt lat="44.2704649642" lon="14.7366350982"><ele>3.98</ele><time>2011-09-23T09:01:10Z</time></trkpt><trkpt lat="44.2712262925" lon="14.7359762806"><ele>4.94</ele><time>2011-09-23T09:01:44Z</time></trkpt><trkpt lat="44.2719566915" lon="14.7353830934"><ele>5.42</ele><time>2011-09-23T09:02:17Z</time></trkpt><trkpt lat="44.2726134975" lon="14.7348556202"><ele>3.98</ele><time>2011-09-23T09:02:46Z</time></trkpt><trkpt lat="44.2733792681" lon="14.7341997363"><ele>3.02</ele><time>2011-09-23T09:03:20Z</time></trkpt><trkpt lat="44.2739833519" lon="14.7336370591"><ele>1.10</ele><time>2011-09-23T09:03:48Z</time></trkpt><trkpt lat="44.2746502999" lon="14.7330540139"><ele>1.10</ele><time>2011-09-23T09:04:19Z</time></trkpt><trkpt lat="44.2752683815" lon="14.7324432246"><ele>0.62</ele><time>2011-09-23T09:04:48Z</time></trkpt><trkpt lat="44.2758728005" lon="14.7318026796"><ele>1.58</ele><time>2011-09-23T09:05:16Z</time></trkpt><trkpt lat="44.2764519062" lon="14.7311183810"><ele>1.58</ele><time>2011-09-23T09:05:44Z</time></trkpt><trkpt lat="44.2770254798" lon="14.7305056639"><ele>3.02</ele><time>2011-09-23T09:06:11Z</time></trkpt><trkpt lat="44.2777082697" lon="14.7297484428"><ele>2.54</ele><time>2011-09-23T09:06:43Z</time></trkpt><trkpt lat="44.2783940770" lon="14.7290220670"><ele>3.02</ele><time>2011-09-23T09:07:14Z</time></trkpt><trkpt lat="44.2789549939" lon="14.7284282930"><ele>2.06</ele><time>2011-09-23T09:07:39Z</time></trkpt><trkpt lat="44.2795127258" lon="14.7277786117"><ele>1.10</ele><time>2011-09-23T09:08:04Z</time></trkpt><trkpt lat="44.2799010593" lon="14.7273565829"><ele>0.62</ele><time>2011-09-23T09:08:21Z</time></trkpt><trkpt lat="44.2806144431" lon="14.7266248427"><ele>-0.34</ele><time>2011-09-23T09:08:51Z</time></trkpt><trkpt lat="44.2812321056" lon="14.7260410432"><ele>0.62</ele><time>2011-09-23T09:09:16Z</time></trkpt><trkpt lat="44.2819222715" lon="14.7253935412"><ele>1.58</ele><time>2011-09-23T09:09:44Z</time></trkpt><trkpt lat="44.2825169675" lon="14.7248522379"><ele>1.10</ele><time>2011-09-23T09:10:08Z</time></trkpt><trkpt lat="44.2830444407" lon="14.7243646625"><ele>1.58</ele><time>2011-09-23T09:10:29Z</time></trkpt><trkpt lat="44.2835819721" lon="14.7239113692"><ele>0.14</ele><time>2011-09-23T09:10:50Z</time></trkpt><trkpt lat="44.2840147298" lon="14.7235265560"><ele>0.14</ele><time>2011-09-23T09:11:07Z</time></trkpt><trkpt lat="44.2843643390" lon="14.7232192755"><ele>0.62</ele><time>2011-09-23T09:11:21Z</time></trkpt><trkpt lat="44.2848214041" lon="14.7227995936"><ele>1.10</ele><time>2011-09-23T09:11:39Z</time></trkpt><trkpt lat="44.2852786370" lon="14.7223677579"><ele>0.62</ele><time>2011-09-23T09:11:57Z</time></trkpt><trkpt lat="44.2858672142" lon="14.7218350880"><ele>0.62</ele><time>2011-09-23T09:12:20Z</time></trkpt><trkpt lat="44.2864055000" lon="14.7213566490"><ele>1.10</ele><time>2011-09-23T09:12:41Z</time></trkpt><trkpt lat="44.2868448794" lon="14.7209695727"><ele>0.62</ele><time>2011-09-23T09:12:58Z</time></trkpt><trkpt lat="44.2874024436" lon="14.7204744536"><ele>0.62</ele><time>2011-09-23T09:13:20Z</time></trkpt><trkpt lat="44.2878554016" lon="14.7200502455"><ele>1.58</ele><time>2011-09-23T09:13:38Z</time></trkpt><trkpt lat="44.2883705534" lon="14.7195734829"><ele>1.58</ele><time>2011-09-23T09:13:58Z</time></trkpt><trkpt lat="44.2888617329" lon="14.7191338520"><ele>2.06</ele><time>2011-09-23T09:14:17Z</time></trkpt><trkpt lat="44.2894178722" lon="14.7185966559"><ele>1.58</ele><time>2011-09-23T09:14:39Z</time></trkpt><trkpt lat="44.2899586726" lon="14.7180731222"><ele>1.10</ele><time>2011-09-23T09:15:00Z</time></trkpt><trkpt lat="44.2903522868" lon="14.7175265383"><ele>0.62</ele><time>2011-09-23T09:15:18Z</time></trkpt><trkpt lat="44.2908216733" lon="14.7168507054"><ele>1.58</ele><time>2011-09-23T09:15:40Z</time></trkpt><trkpt lat="44.2911463883" lon="14.7163991723"><ele>1.10</ele><time>2011-09-23T09:15:55Z</time></trkpt><trkpt lat="44.2914850172" lon="14.7159074899"><ele>0.62</ele><time>2011-09-23T09:16:11Z</time></trkpt><trkpt lat="44.2917814851" lon="14.7152914200"><ele>0.62</ele><time>2011-09-23T09:16:28Z</time></trkpt><trkpt lat="44.2920462694" lon="14.7147456743"><ele>1.10</ele><time>2011-09-23T09:16:43Z</time></trkpt><trkpt lat="44.2923991475" lon="14.7140482999"><ele>1.10</ele><time>2011-09-23T09:17:02Z</time></trkpt><trkpt lat="44.2926680390" lon="14.7134546097"><ele>1.10</ele><time>2011-09-23T09:17:18Z</time></trkpt><trkpt lat="44.2928267922" lon="14.7125385515"><ele>1.10</ele><time>2011-09-23T09:17:39Z</time></trkpt><trkpt lat="44.2929671891" lon="14.7116008680"><ele>2.06</ele><time>2011-09-23T09:18:00Z</time></trkpt><trkpt lat="44.2931241821" lon="14.7107667010"><ele>2.06</ele><time>2011-09-23T09:18:19Z</time></trkpt><trkpt lat="44.2932841089" lon="14.7098287661"><ele>1.58</ele><time>2011-09-23T09:18:40Z</time></trkpt><trkpt lat="44.2934683431" lon="14.7087526135"><ele>2.54</ele><time>2011-09-23T09:19:04Z</time></trkpt><trkpt lat="44.2936453689" lon="14.7077294346"><ele>2.06</ele><time>2011-09-23T09:19:27Z</time></trkpt><trkpt lat="44.2938306928" lon="14.7066570539"><ele>1.58</ele><time>2011-09-23T09:19:51Z</time></trkpt><trkpt lat="44.2940006778" lon="14.7057025228"><ele>1.58</ele><time>2011-09-23T09:20:12Z</time></trkpt><trkpt lat="44.2941944674" lon="14.7045725584"><ele>0.62</ele><time>2011-09-23T09:20:37Z</time></trkpt><trkpt lat="44.2943881731" lon="14.7034539096"><ele>1.10</ele><time>2011-09-23T09:21:02Z</time></trkpt><trkpt lat="44.2945703957" lon="14.7023942694"><ele>2.54</ele><time>2011-09-23T09:21:26Z</time></trkpt><trkpt lat="44.2947325017" lon="14.7015083022"><ele>2.06</ele><time>2011-09-23T09:21:46Z</time></trkpt><trkpt lat="44.2949040793" lon="14.7005093470"><ele>3.02</ele><time>2011-09-23T09:22:09Z</time></trkpt><trkpt lat="44.2950840387" lon="14.6995114814"><ele>2.54</ele><time>2011-09-23T09:22:32Z</time></trkpt><trkpt lat="44.2952175625" lon="14.6986811701"><ele>2.06</ele><time>2011-09-23T09:22:51Z</time></trkpt><trkpt lat="44.2953379266" lon="14.6979847178"><ele>1.58</ele><time>2011-09-23T09:23:07Z</time></trkpt><trkpt lat="44.2954600509" lon="14.6972441766"><ele>2.54</ele><time>2011-09-23T09:23:24Z</time></trkpt><trkpt lat="44.2956074886" lon="14.6964168828"><ele>3.02</ele><time>2011-09-23T09:23:43Z</time></trkpt><trkpt lat="44.2957572732" lon="14.6955534630"><ele>2.54</ele><time>2011-09-23T09:24:03Z</time></trkpt><trkpt lat="44.2959013581" lon="14.6946884505"><ele>2.54</ele><time>2011-09-23T09:24:23Z</time></trkpt><trkpt lat="44.2960293498" lon="14.6939164773"><ele>2.06</ele><time>2011-09-23T09:24:41Z</time></trkpt><trkpt lat="44.2961801402" lon="14.6931051090"><ele>3.02</ele><time>2011-09-23T09:25:00Z</time></trkpt><trkpt lat="44.2963637877" lon="14.6919814311"><ele>2.54</ele><time>2011-09-23T09:25:26Z</time></trkpt><trkpt lat="44.2965387180" lon="14.6909012552"><ele>2.06</ele><time>2011-09-23T09:25:51Z</time></trkpt><trkpt lat="44.2967035063" lon="14.6899061557"><ele>2.54</ele><time>2011-09-23T09:26:14Z</time></trkpt><trkpt lat="44.2968517821" lon="14.6890542191"><ele>2.54</ele><time>2011-09-23T09:26:34Z</time></trkpt><trkpt lat="44.2970241141" lon="14.6879399288"><ele>1.58</ele><time>2011-09-23T09:27:00Z</time></trkpt><trkpt lat="44.2972059175" lon="14.6868441626"><ele>1.58</ele><time>2011-09-23T09:27:26Z</time></trkpt><trkpt lat="44.2973738909" lon="14.6857693512"><ele>1.10</ele><time>2011-09-23T09:27:51Z</time></trkpt><trkpt lat="44.2975145392" lon="14.6848816238"><ele>1.10</ele><time>2011-09-23T09:28:12Z</time></trkpt><trkpt lat="44.2976944149" lon="14.6837198921"><ele>2.06</ele><time>2011-09-23T09:28:39Z</time></trkpt><trkpt lat="44.2978800740" lon="14.6825316735"><ele>1.58</ele><time>2011-09-23T09:29:07Z</time></trkpt><trkpt lat="44.2980381567" lon="14.6814993583"><ele>1.58</ele><time>2011-09-23T09:29:31Z</time></trkpt><trkpt lat="44.2982064653" lon="14.6804669593"><ele>1.58</ele><time>2011-09-23T09:29:55Z</time></trkpt><trkpt lat="44.2983479518" lon="14.6795131825"><ele>1.58</ele><time>2011-09-23T09:30:17Z</time></trkpt><trkpt lat="44.2985281628" lon="14.6784381196"><ele>2.06</ele><time>2011-09-23T09:30:42Z</time></trkpt><trkpt lat="44.2987110559" lon="14.6773645654"><ele>2.06</ele><time>2011-09-23T09:31:07Z</time></trkpt><trkpt lat="44.2988748383" lon="14.6763661969"><ele>3.50</ele><time>2011-09-23T09:31:30Z</time></trkpt><trkpt lat="44.2989807017" lon="14.6753979195"><ele>3.02</ele><time>2011-09-23T09:31:52Z</time></trkpt><trkpt lat="44.2990022432" lon="14.6742652729"><ele>2.06</ele><time>2011-09-23T09:32:17Z</time></trkpt><trkpt lat="44.2990211863" lon="14.6732088178"><ele>1.58</ele><time>2011-09-23T09:32:41Z</time></trkpt><trkpt lat="44.2990370281" lon="14.6721469983"><ele>1.10</ele><time>2011-09-23T09:33:05Z</time></trkpt><trkpt lat="44.2990902532" lon="14.6711270884"><ele>1.10</ele><time>2011-09-23T09:33:29Z</time></trkpt><trkpt lat="44.2991432268" lon="14.6699956153"><ele>2.06</ele><time>2011-09-23T09:33:56Z</time></trkpt><trkpt lat="44.2991785984" lon="14.6691660583"><ele>1.10</ele><time>2011-09-23T09:34:16Z</time></trkpt><trkpt lat="44.2992190830" lon="14.6682596393"><ele>0.14</ele><time>2011-09-23T09:34:38Z</time></trkpt><trkpt lat="44.2993072607" lon="14.6670669783"><ele>1.10</ele><time>2011-09-23T09:35:07Z</time></trkpt><trkpt lat="44.2995063309" lon="14.6660575457"><ele>0.62</ele><time>2011-09-23T09:35:32Z</time></trkpt><trkpt lat="44.2997107655" lon="14.6650221292"><ele>1.10</ele><time>2011-09-23T09:35:58Z</time></trkpt><trkpt lat="44.2999426089" lon="14.6639503352"><ele>1.10</ele><time>2011-09-23T09:36:25Z</time></trkpt><trkpt lat="44.3001536652" lon="14.6629999112"><ele>0.62</ele><time>2011-09-23T09:36:49Z</time></trkpt><trkpt lat="44.3003795575" lon="14.6619884670"><ele>1.10</ele><time>2011-09-23T09:37:14Z</time></trkpt><trkpt lat="44.3005984928" lon="14.6609144099"><ele>0.62</ele><time>2011-09-23T09:37:40Z</time></trkpt><trkpt lat="44.3008585833" lon="14.6597590484"><ele>1.10</ele><time>2011-09-23T09:38:08Z</time></trkpt><trkpt lat="44.3011551350" lon="14.6584464423"><ele>1.58</ele><time>2011-09-23T09:38:40Z</time></trkpt><trkpt lat="44.3013492599" lon="14.6575427894"><ele>2.54</ele><time>2011-09-23T09:39:02Z</time></trkpt><trkpt lat="44.3015899882" lon="14.6564086340"><ele>2.54</ele><time>2011-09-23T09:39:29Z</time></trkpt><trkpt lat="44.3018542696" lon="14.6551327407"><ele>2.54</ele><time>2011-09-23T09:40:00Z</time></trkpt><trkpt lat="44.3021295313" lon="14.6538768802"><ele>3.02</ele><time>2011-09-23T09:40:30Z</time></trkpt><trkpt lat="44.3023918848" lon="14.6526228637"><ele>1.10</ele><time>2011-09-23T09:41:00Z</time></trkpt><trkpt lat="44.3026240636" lon="14.6515347250"><ele>0.62</ele><time>2011-09-23T09:41:26Z</time></trkpt><trkpt lat="44.3028171826" lon="14.6505935211"><ele>0.62</ele><time>2011-09-23T09:41:48Z</time></trkpt><trkpt lat="44.3030406442" lon="14.6495442744"><ele>0.14</ele><time>2011-09-23T09:42:13Z</time></trkpt><trkpt lat="44.3032258842" lon="14.6486620791"><ele>1.10</ele><time>2011-09-23T09:42:34Z</time></trkpt><trkpt lat="44.3034609966" lon="14.6476997528"><ele>-1.30</ele><time>2011-09-23T09:42:57Z</time></trkpt><trkpt lat="44.3037143815" lon="14.6467603929"><ele>-1.79</ele><time>2011-09-23T09:43:20Z</time></trkpt><trkpt lat="44.3039822672" lon="14.6458118968"><ele>-1.30</ele><time>2011-09-23T09:43:43Z</time></trkpt><trkpt lat="44.3042426929" lon="14.6448730398"><ele>-1.30</ele><time>2011-09-23T09:44:06Z</time></trkpt><trkpt lat="44.3044914678" lon="14.6439730749"><ele>-1.30</ele><time>2011-09-23T09:44:28Z</time></trkpt><trkpt lat="44.3047212157" lon="14.6431948990"><ele>-0.82</ele><time>2011-09-23T09:44:47Z</time></trkpt><trkpt lat="44.3050302565" lon="14.6421315707"><ele>-0.82</ele><time>2011-09-23T09:45:13Z</time></trkpt><trkpt lat="44.3053610064" lon="14.6409645583"><ele>-1.30</ele><time>2011-09-23T09:45:41Z</time></trkpt><trkpt lat="44.3056454882" lon="14.6399854682"><ele>-2.75</ele><time>2011-09-23T09:46:05Z</time></trkpt><trkpt lat="44.3059992883" lon="14.6388385724"><ele>-1.79</ele><time>2011-09-23T09:46:33Z</time></trkpt><trkpt lat="44.3064647354" lon="14.6378729772"><ele>-1.79</ele><time>2011-09-23T09:46:59Z</time></trkpt><trkpt lat="44.3069457728" lon="14.6369680669"><ele>-0.82</ele><time>2011-09-23T09:47:24Z</time></trkpt><trkpt lat="44.3075470068" lon="14.6358676907"><ele>-0.34</ele><time>2011-09-23T09:47:55Z</time></trkpt><trkpt lat="44.3081308063" lon="14.6347985789"><ele>-0.82</ele><time>2011-09-23T09:48:25Z</time></trkpt><trkpt lat="44.3086648174" lon="14.6338425390"><ele>-0.34</ele><time>2011-09-23T09:48:52Z</time></trkpt><trkpt lat="44.3091758620" lon="14.6329585835"><ele>0.14</ele><time>2011-09-23T09:49:17Z</time></trkpt><trkpt lat="44.3096754234" lon="14.6321215667"><ele>0.14</ele><time>2011-09-23T09:49:41Z</time></trkpt><trkpt lat="44.3101537786" lon="14.6313153114"><ele>-0.82</ele><time>2011-09-23T09:50:04Z</time></trkpt><trkpt lat="44.3107100017" lon="14.6303961519"><ele>-0.34</ele><time>2011-09-23T09:50:31Z</time></trkpt><trkpt lat="44.3112275004" lon="14.6295245178"><ele>-0.34</ele><time>2011-09-23T09:50:56Z</time></trkpt><trkpt lat="44.3118348531" lon="14.6285233833"><ele>-0.34</ele><time>2011-09-23T09:51:25Z</time></trkpt><trkpt lat="44.3124146294" lon="14.6275543515"><ele>-0.34</ele><time>2011-09-23T09:51:53Z</time></trkpt><trkpt lat="44.3129748758" lon="14.6266242955"><ele>0.62</ele><time>2011-09-23T09:52:20Z</time></trkpt><trkpt lat="44.3136432488" lon="14.6255163755"><ele>-0.34</ele><time>2011-09-23T09:52:52Z</time></trkpt><trkpt lat="44.3142341729" lon="14.6244864911"><ele>1.10</ele><time>2011-09-23T09:53:21Z</time></trkpt><trkpt lat="44.3148877937" lon="14.6234102547"><ele>0.62</ele><time>2011-09-23T09:53:52Z</time></trkpt><trkpt lat="44.3155604415" lon="14.6222992335"><ele>1.58</ele><time>2011-09-23T09:54:24Z</time></trkpt><trkpt lat="44.3161648605" lon="14.6212804969"><ele>0.62</ele><time>2011-09-23T09:54:53Z</time></trkpt><trkpt lat="44.3167438824" lon="14.6202957071"><ele>0.62</ele><time>2011-09-23T09:55:21Z</time></trkpt><trkpt lat="44.3174115848" lon="14.6194270067"><ele>-0.82</ele><time>2011-09-23T09:55:49Z</time></trkpt><trkpt lat="44.3181102164" lon="14.6188250184"><ele>-0.34</ele><time>2011-09-23T09:56:14Z</time></trkpt><trkpt lat="44.3188559543" lon="14.6182423085"><ele>-0.82</ele><time>2011-09-23T09:56:40Z</time></trkpt><trkpt lat="44.3196946476" lon="14.6175909508"><ele>-0.82</ele><time>2011-09-23T09:57:09Z</time></trkpt><trkpt lat="44.3204146530" lon="14.6170283575"><ele>-2.27</ele><time>2011-09-23T09:57:34Z</time></trkpt><trkpt lat="44.3210564554" lon="14.6166772395"><ele>-1.30</ele><time>2011-09-23T09:57:58Z</time></trkpt><trkpt lat="44.3215810787" lon="14.6164227650"><ele>-0.82</ele><time>2011-09-23T09:58:23Z</time></trkpt><trkpt lat="44.3218560889" lon="14.6161699668"><ele>-0.82</ele><time>2011-09-23T09:58:39Z</time></trkpt><trkpt lat="44.3220036104" lon="14.6157476865"><ele>-1.79</ele><time>2011-09-23T09:58:55Z</time></trkpt><trkpt lat="44.3223893456" lon="14.6155861672"><ele>-1.30</ele><time>2011-09-23T09:59:12Z</time></trkpt><trkpt lat="44.3229092751" lon="14.6155221295"><ele>-0.82</ele><time>2011-09-23T09:59:36Z</time></trkpt><trkpt lat="44.3234216608" lon="14.6154860035"><ele>-0.34</ele><time>2011-09-23T10:00:01Z</time></trkpt><trkpt lat="44.3238918018" lon="14.6155003365"><ele>-0.82</ele><time>2011-09-23T10:00:25Z</time></trkpt><trkpt lat="44.3243839871" lon="14.6155615244"><ele>-1.79</ele><time>2011-09-23T10:00:51Z</time></trkpt><trkpt lat="44.3248026632" lon="14.6156870015"><ele>-1.79</ele><time>2011-09-23T10:01:14Z</time></trkpt><trkpt lat="44.3252499215" lon="14.6158626024"><ele>-1.30</ele><time>2011-09-23T10:01:39Z</time></trkpt><trkpt lat="44.3257582840" lon="14.6161092818"><ele>-0.82</ele><time>2011-09-23T10:02:08Z</time></trkpt><trkpt lat="44.3262480386" lon="14.6164395288"><ele>-0.34</ele><time>2011-09-23T10:02:36Z</time></trkpt><trkpt lat="44.3266310077" lon="14.6168888826"><ele>-0.34</ele><time>2011-09-23T10:03:04Z</time></trkpt><trkpt lat="44.3268836383" lon="14.6174142603"><ele>0.14</ele><time>2011-09-23T10:03:31Z</time></trkpt><trkpt lat="44.3269742467" lon="14.6179262269"><ele>0.62</ele><time>2011-09-23T10:03:57Z</time></trkpt><trkpt lat="44.3269603327" lon="14.6184020676"><ele>1.10</ele><time>2011-09-23T10:04:27Z</time></trkpt><trkpt lat="44.3268544693" lon="14.6187866293"><ele>0.62</ele><time>2011-09-23T10:04:58Z</time></trkpt><trkpt lat="44.3267271481" lon="14.6191186365"><ele>0.62</ele><time>2011-09-23T10:05:29Z</time></trkpt><trkpt lat="44.3266372103" lon="14.6194551699"><ele>0.62</ele><time>2011-09-23T10:06:00Z</time></trkpt><trkpt lat="44.3265056983" lon="14.6198477782"><ele>2.06</ele><time>2011-09-23T10:06:39Z</time></trkpt><trkpt lat="44.3263706658" lon="14.6201637760"><ele>0.14</ele><time>2011-09-23T10:07:13Z</time></trkpt><trkpt lat="44.3262769561" lon="14.6205381118"><ele>1.58</ele><time>2011-09-23T10:07:50Z</time></trkpt><trkpt lat="44.3261903711" lon="14.6208823565"><ele>1.10</ele><time>2011-09-23T10:08:21Z</time></trkpt><trkpt lat="44.3260598648" lon="14.6212282777"><ele>2.06</ele><time>2011-09-23T10:08:58Z</time></trkpt><trkpt lat="44.3260243256" lon="14.6212986857"><ele>1.58</ele><time>2011-09-23T10:09:38Z</time></trkpt><trkpt lat="44.3260218948" lon="14.6213037148"><ele>1.10</ele><time>2011-09-23T10:10:11Z</time></trkpt><trkpt lat="44.3260196317" lon="14.6213067323"><ele>1.10</ele><time>2011-09-23T10:10:47Z</time></trkpt><trkpt lat="44.3260177877" lon="14.6213077381"><ele>1.10</ele><time>2011-09-23T10:11:18Z</time></trkpt><trkpt lat="44.3260177877" lon="14.6213077381"><ele>1.10</ele><time>2011-09-23T10:11:48Z</time></trkpt><trkpt lat="44.3260156084" lon="14.6212952491"><ele>1.10</ele><time>2011-09-23T10:12:13Z</time></trkpt><trkpt lat="44.3260156084" lon="14.6212952491"><ele>1.10</ele><time>2011-09-23T10:12:37Z</time></trkpt><trkpt lat="44.3260128424" lon="14.6212788206"><ele>1.10</ele><time>2011-09-23T10:13:06Z</time></trkpt><trkpt lat="44.3260099087" lon="14.6212654095"><ele>1.58</ele><time>2011-09-23T10:13:40Z</time></trkpt><trkpt lat="44.3260130938" lon="14.6212547645"><ele>1.58</ele><time>2011-09-23T10:14:10Z</time></trkpt><trkpt lat="44.3260226492" lon="14.6212439518"><ele>2.06</ele><time>2011-09-23T10:14:45Z</time></trkpt><trkpt lat="44.3260226492" lon="14.6212439518"><ele>2.06</ele><time>2011-09-23T10:15:16Z</time></trkpt><trkpt lat="44.3260226492" lon="14.6212439518"><ele>2.06</ele><time>2011-09-23T10:15:17Z</time></trkpt><trkpt lat="44.3260338809" lon="14.6212478913"><ele>3.02</ele><time>2011-09-23T10:15:57Z</time></trkpt><trkpt lat="44.3260430172" lon="14.6212592907"><ele>3.02</ele><time>2011-09-23T10:16:33Z</time></trkpt><trkpt lat="44.3260451965" lon="14.6212678403"><ele>3.50</ele><time>2011-09-23T10:17:05Z</time></trkpt><trkpt lat="44.3260477111" lon="14.6212654095"><ele>3.50</ele><time>2011-09-23T10:17:42Z</time></trkpt><trkpt lat="44.3260651454" lon="14.6212688461"><ele>3.98</ele><time>2011-09-23T10:18:21Z</time></trkpt><trkpt lat="44.3260662351" lon="14.6212641522"><ele>3.98</ele><time>2011-09-23T10:18:56Z</time></trkpt><trkpt lat="44.3260617089" lon="14.6212440357"><ele>3.50</ele><time>2011-09-23T10:19:26Z</time></trkpt><trkpt lat="44.3260553386" lon="14.6212443709"><ele>3.02</ele><time>2011-09-23T10:19:58Z</time></trkpt><trkpt lat="44.3260553386" lon="14.6212443709"><ele>3.02</ele><time>2011-09-23T10:20:26Z</time></trkpt><trkpt lat="44.3260560930" lon="14.6212464664"><ele>3.50</ele><time>2011-09-23T10:21:01Z</time></trkpt><trkpt lat="44.3260684144" lon="14.6212520823"><ele>3.02</ele><time>2011-09-23T10:21:39Z</time></trkpt><trkpt lat="44.3260680791" lon="14.6212563571"><ele>3.02</ele><time>2011-09-23T10:22:17Z</time></trkpt><trkpt lat="44.3260686658" lon="14.6212566085"><ele>2.06</ele><time>2011-09-23T10:22:48Z</time></trkpt><trkpt lat="44.3260648102" lon="14.6212483104"><ele>1.58</ele><time>2011-09-23T10:23:22Z</time></trkpt><trkpt lat="44.3260648102" lon="14.6212483104"><ele>1.58</ele><time>2011-09-23T10:23:50Z</time></trkpt><trkpt lat="44.3260608707" lon="14.6212410182"><ele>1.58</ele><time>2011-09-23T10:24:17Z</time></trkpt><trkpt lat="44.3260648940" lon="14.6212414373"><ele>1.10</ele><time>2011-09-23T10:24:48Z</time></trkpt><trkpt lat="44.3260596972" lon="14.6212457120"><ele>1.10</ele><time>2011-09-23T10:25:24Z</time></trkpt><trkpt lat="44.3260606192" lon="14.6212419402"><ele>1.10</ele><time>2011-09-23T10:25:59Z</time></trkpt><trkpt lat="44.3260606192" lon="14.6212419402"><ele>1.10</ele><time>2011-09-23T10:26:31Z</time></trkpt><trkpt lat="44.3260645587" lon="14.6212400962"><ele>1.10</ele><time>2011-09-23T10:27:04Z</time></trkpt><trkpt lat="44.3260586914" lon="14.6212456282"><ele>1.10</ele><time>2011-09-23T10:27:41Z</time></trkpt><trkpt lat="44.3260537460" lon="14.6212390903"><ele>0.62</ele><time>2011-09-23T10:28:26Z</time></trkpt><trkpt lat="44.3260515667" lon="14.6212266013"><ele>0.14</ele><time>2011-09-23T10:29:07Z</time></trkpt><trkpt lat="44.3260463700" lon="14.6212225780"><ele>0.14</ele><time>2011-09-23T10:29:40Z</time></trkpt><trkpt lat="44.3260396644" lon="14.6212216560"><ele>0.14</ele><time>2011-09-23T10:30:16Z</time></trkpt><trkpt lat="44.3260380719" lon="14.6212250926"><ele>-0.34</ele><time>2011-09-23T10:30:47Z</time></trkpt><trkpt lat="44.3260380719" lon="14.6212250926"><ele>-0.34</ele><time>2011-09-23T10:31:14Z</time></trkpt><trkpt lat="44.3260332942" lon="14.6212185547"><ele>-1.30</ele><time>2011-09-23T10:31:40Z</time></trkpt><trkpt lat="44.3260332942" lon="14.6212185547"><ele>-1.30</ele><time>2011-09-23T10:32:04Z</time></trkpt><trkpt lat="44.3260319531" lon="14.6212140284"><ele>-1.30</ele><time>2011-09-23T10:32:32Z</time></trkpt><trkpt lat="44.3260345515" lon="14.6212137770"><ele>-1.30</ele><time>2011-09-23T10:33:04Z</time></trkpt><trkpt lat="44.3260401674" lon="14.6212183032"><ele>-1.30</ele><time>2011-09-23T10:33:33Z</time></trkpt><trkpt lat="44.3260401674" lon="14.6212183032"><ele>-1.30</ele><time>2011-09-23T10:34:04Z</time></trkpt><trkpt lat="44.3260359764" lon="14.6212190576"><ele>-1.79</ele><time>2011-09-23T10:34:33Z</time></trkpt><trkpt lat="44.3260387424" lon="14.6212266851"><ele>-1.30</ele><time>2011-09-23T10:35:00Z</time></trkpt><trkpt lat="44.3260438554" lon="14.6212303732"><ele>-1.30</ele><time>2011-09-23T10:35:33Z</time></trkpt><trkpt lat="44.3260438554" lon="14.6212303732"><ele>-1.30</ele><time>2011-09-23T10:35:58Z</time></trkpt><trkpt lat="44.3260454480" lon="14.6212280262"><ele>-1.30</ele><time>2011-09-23T10:36:29Z</time></trkpt><trkpt lat="44.3260481302" lon="14.6212254278"><ele>-1.30</ele><time>2011-09-23T10:36:55Z</time></trkpt><trkpt lat="44.3260481302" lon="14.6212254278"><ele>-1.30</ele><time>2011-09-23T10:37:27Z</time></trkpt><trkpt lat="44.3260484654" lon="14.6212297026"><ele>-2.27</ele><time>2011-09-23T10:37:56Z</time></trkpt><trkpt lat="44.3260484654" lon="14.6212297026"><ele>-2.27</ele><time>2011-09-23T10:38:10Z</time></trkpt><trkpt lat="44.3260398321" lon="14.6212174650"><ele>-2.75</ele><time>2011-09-23T10:38:44Z</time></trkpt><trkpt lat="44.3260399159" lon="14.6212171298"><ele>-2.75</ele><time>2011-09-23T10:39:16Z</time></trkpt><trkpt lat="44.3260369822" lon="14.6212171298"><ele>-2.75</ele><time>2011-09-23T10:39:43Z</time></trkpt><trkpt lat="44.3260369822" lon="14.6212171298"><ele>-2.75</ele><time>2011-09-23T10:40:06Z</time></trkpt><trkpt lat="44.3260375690" lon="14.6212176327"><ele>-2.27</ele><time>2011-09-23T10:40:37Z</time></trkpt><trkpt lat="44.3260299414" lon="14.6212281939"><ele>-2.27</ele><time>2011-09-23T10:41:08Z</time></trkpt><trkpt lat="44.3260236550" lon="14.6212224104"><ele>-3.23</ele><time>2011-09-23T10:41:42Z</time></trkpt><trkpt lat="44.3260239903" lon="14.6212254278"><ele>-3.23</ele><time>2011-09-23T10:42:11Z</time></trkpt><trkpt lat="44.3260239903" lon="14.6212254278"><ele>-3.23</ele><time>2011-09-23T10:42:36Z</time></trkpt><trkpt lat="44.3260265887" lon="14.6212281100"><ele>-3.23</ele><time>2011-09-23T10:43:01Z</time></trkpt><trkpt lat="44.3260265887" lon="14.6212281100"><ele>-3.23</ele><time>2011-09-23T10:43:29Z</time></trkpt><trkpt lat="44.3260317016" lon="14.6212318819"><ele>-3.23</ele><time>2011-09-23T10:43:59Z</time></trkpt><trkpt lat="44.3260484654" lon="14.6212426107"><ele>-2.27</ele><time>2011-09-23T10:44:33Z</time></trkpt><trkpt lat="44.3260440230" lon="14.6212398447"><ele>-2.27</ele><time>2011-09-23T10:45:07Z</time></trkpt><trkpt lat="44.3260372337" lon="14.6212253440"><ele>-1.79</ele><time>2011-09-23T10:45:38Z</time></trkpt><trkpt lat="44.3260374852" lon="14.6212157048"><ele>-1.79</ele><time>2011-09-23T10:46:11Z</time></trkpt><trkpt lat="44.3260374852" lon="14.6212157048"><ele>-1.79</ele><time>2011-09-23T10:46:43Z</time></trkpt><trkpt lat="44.3260404188" lon="14.6212157886"><ele>-2.27</ele><time>2011-09-23T10:47:17Z</time></trkpt><trkpt lat="44.3260309473" lon="14.6212262660"><ele>-2.75</ele><time>2011-09-23T10:47:50Z</time></trkpt><trkpt lat="44.3260338809" lon="14.6212217398"><ele>-2.27</ele><time>2011-09-23T10:48:27Z</time></trkpt><trkpt lat="44.3260355573" lon="14.6212185547"><ele>-2.27</ele><time>2011-09-23T10:49:01Z</time></trkpt><trkpt lat="44.3260355573" lon="14.6212185547"><ele>-2.27</ele><time>2011-09-23T10:49:29Z</time></trkpt><trkpt lat="44.3260391615" lon="14.6212231647"><ele>-2.27</ele><time>2011-09-23T10:50:01Z</time></trkpt><trkpt lat="44.3260527402" lon="14.6212390903"><ele>-1.30</ele><time>2011-09-23T10:50:38Z</time></trkpt><trkpt lat="44.3260650616" lon="14.6212442033"><ele>0.14</ele><time>2011-09-23T10:51:13Z</time></trkpt><trkpt lat="44.3260781374" lon="14.6212637331"><ele>0.62</ele><time>2011-09-23T10:51:52Z</time></trkpt><trkpt lat="44.3260733597" lon="14.6212623920"><ele>-0.34</ele><time>2011-09-23T10:52:26Z</time></trkpt><trkpt lat="44.3260744493" lon="14.6212553512"><ele>-0.34</ele><time>2011-09-23T10:52:58Z</time></trkpt><trkpt lat="44.3260744493" lon="14.6212553512"><ele>-0.34</ele><time>2011-09-23T10:53:25Z</time></trkpt><trkpt lat="44.3260742817" lon="14.6212579496"><ele>-0.82</ele><time>2011-09-23T10:54:01Z</time></trkpt><trkpt lat="44.3260758743" lon="14.6212646551"><ele>-1.30</ele><time>2011-09-23T10:54:34Z</time></trkpt><trkpt lat="44.3260793947" lon="14.6212635655"><ele>-1.79</ele><time>2011-09-23T10:55:06Z</time></trkpt><trkpt lat="44.3260775506" lon="14.6212545130"><ele>-2.27</ele><time>2011-09-23T10:55:39Z</time></trkpt><trkpt lat="44.3260767963" lon="14.6212578658"><ele>-2.27</ele><time>2011-09-23T10:56:12Z</time></trkpt><trkpt lat="44.3260805681" lon="14.6212627273"><ele>-2.75</ele><time>2011-09-23T10:56:52Z</time></trkpt><trkpt lat="44.3260805681" lon="14.6212627273"><ele>-2.75</ele><time>2011-09-23T10:57:27Z</time></trkpt><trkpt lat="44.3260829989" lon="14.6212597098"><ele>-3.23</ele><time>2011-09-23T10:58:05Z</time></trkpt><trkpt lat="44.3260814901" lon="14.6212564409"><ele>-3.71</ele><time>2011-09-23T10:58:44Z</time></trkpt><trkpt lat="44.3260705937" lon="14.6212559380"><ele>-3.23</ele><time>2011-09-23T10:59:17Z</time></trkpt><trkpt lat="44.3260654807" lon="14.6212462150"><ele>-3.23</ele><time>2011-09-23T10:59:53Z</time></trkpt><trkpt lat="44.3260695040" lon="14.6212493163"><ele>-3.23</ele><time>2011-09-23T11:00:29Z</time></trkpt><trkpt lat="44.3260711804" lon="14.6212584525"><ele>-2.75</ele><time>2011-09-23T11:01:06Z</time></trkpt><trkpt lat="44.3260730244" lon="14.6212567762"><ele>-2.75</ele><time>2011-09-23T11:01:43Z</time></trkpt><trkpt lat="44.3260793108" lon="14.6212488133"><ele>-2.27</ele><time>2011-09-23T11:02:17Z</time></trkpt><trkpt lat="44.3260823283" lon="14.6212566085"><ele>-3.23</ele><time>2011-09-23T11:02:58Z</time></trkpt><trkpt lat="44.3260829989" lon="14.6212602966"><ele>-3.71</ele><time>2011-09-23T11:03:33Z</time></trkpt><trkpt lat="44.3260829989" lon="14.6212602966"><ele>-3.71</ele><time>2011-09-23T11:04:07Z</time></trkpt><trkpt lat="44.3260846753" lon="14.6212781500"><ele>-4.67</ele><time>2011-09-23T11:04:48Z</time></trkpt><trkpt lat="44.3260790594" lon="14.6212860290"><ele>-4.67</ele><time>2011-09-23T11:05:22Z</time></trkpt><trkpt lat="44.3260825798" lon="14.6212883759"><ele>-4.19</ele><time>2011-09-23T11:05:59Z</time></trkpt><trkpt lat="44.3260871060" lon="14.6212892141"><ele>-3.71</ele><time>2011-09-23T11:06:40Z</time></trkpt><trkpt lat="44.3260878604" lon="14.6212884597"><ele>-3.71</ele><time>2011-09-23T11:07:18Z</time></trkpt><trkpt lat="44.3260835856" lon="14.6212804969"><ele>-3.23</ele><time>2011-09-23T11:07:51Z</time></trkpt><trkpt lat="44.3260787241" lon="14.6212729532"><ele>-2.27</ele><time>2011-09-23T11:08:29Z</time></trkpt><trkpt lat="44.3260873575" lon="14.6212773956"><ele>-1.79</ele><time>2011-09-23T11:09:03Z</time></trkpt><trkpt lat="44.3260828312" lon="14.6212752163"><ele>-1.79</ele><time>2011-09-23T11:09:34Z</time></trkpt><trkpt lat="44.3260808196" lon="14.6212800778"><ele>-2.27</ele><time>2011-09-23T11:10:13Z</time></trkpt><trkpt lat="44.3260808196" lon="14.6212800778"><ele>-2.27</ele><time>2011-09-23T11:10:49Z</time></trkpt><trkpt lat="44.3260804005" lon="14.6212793235"><ele>-2.27</ele><time>2011-09-23T11:11:24Z</time></trkpt><trkpt lat="44.3260788079" lon="14.6212631464"><ele>-1.30</ele><time>2011-09-23T11:11:56Z</time></trkpt><trkpt lat="44.3260609545" lon="14.6212406829"><ele>-2.27</ele><time>2011-09-23T11:12:31Z</time></trkpt><trkpt lat="44.3260609545" lon="14.6212406829"><ele>-2.27</ele><time>2011-09-23T11:13:03Z</time></trkpt><trkpt lat="44.3260430172" lon="14.6212558541"><ele>-1.30</ele><time>2011-09-23T11:13:43Z</time></trkpt><trkpt lat="44.3260254990" lon="14.6212633979"><ele>-1.30</ele><time>2011-09-23T11:14:08Z</time></trkpt><trkpt lat="44.3260138482" lon="14.6212888788"><ele>-1.79</ele><time>2011-09-23T11:14:35Z</time></trkpt><trkpt lat="44.3260057177" lon="14.6212940756"><ele>-2.27</ele><time>2011-09-23T11:15:04Z</time></trkpt><trkpt lat="44.3260057177" lon="14.6212940756"><ele>-2.27</ele><time>2011-09-23T11:15:39Z</time></trkpt><trkpt lat="44.3259967491" lon="14.6212821733"><ele>-2.75</ele><time>2011-09-23T11:16:07Z</time></trkpt><trkpt lat="44.3259967491" lon="14.6212821733"><ele>-2.75</ele><time>2011-09-23T11:16:23Z</time></trkpt><trkpt lat="44.3259935640" lon="14.6212658286"><ele>-2.75</ele><time>2011-09-23T11:17:01Z</time></trkpt><trkpt lat="44.3259898759" lon="14.6212501545"><ele>-1.30</ele><time>2011-09-23T11:17:37Z</time></trkpt><trkpt lat="44.3259797338" lon="14.6212407667"><ele>-1.79</ele><time>2011-09-23T11:18:19Z</time></trkpt><trkpt lat="44.3259729445" lon="14.6212359052"><ele>-1.79</ele><time>2011-09-23T11:18:57Z</time></trkpt><trkpt lat="44.3259553425" lon="14.6212311275"><ele>-2.75</ele><time>2011-09-23T11:19:37Z</time></trkpt><trkpt lat="44.3259471282" lon="14.6212290321"><ele>-2.27</ele><time>2011-09-23T11:20:11Z</time></trkpt><trkpt lat="44.3259457033" lon="14.6212310437"><ele>-2.27</ele><time>2011-09-23T11:20:44Z</time></trkpt><trkpt lat="44.3259494752" lon="14.6212326363"><ele>-2.27</ele><time>2011-09-23T11:21:16Z</time></trkpt><trkpt lat="44.3259558454" lon="14.6212237515"><ele>-2.27</ele><time>2011-09-23T11:21:48Z</time></trkpt><trkpt lat="44.3259558454" lon="14.6212237515"><ele>-2.27</ele><time>2011-09-23T11:22:20Z</time></trkpt><trkpt lat="44.3259769678" lon="14.6212362405"><ele>-2.27</ele><time>2011-09-23T11:22:59Z</time></trkpt><trkpt lat="44.3259933963" lon="14.6212449577"><ele>-2.75</ele><time>2011-09-23T11:23:40Z</time></trkpt><trkpt lat="44.3260096572" lon="14.6212598775"><ele>-2.27</ele><time>2011-09-23T11:24:19Z</time></trkpt><trkpt lat="44.3260149378" lon="14.6212576143"><ele>-3.23</ele><time>2011-09-23T11:24:58Z</time></trkpt><trkpt lat="44.3260181230" lon="14.6212616377"><ele>-2.75</ele><time>2011-09-23T11:25:34Z</time></trkpt><trkpt lat="44.3260279298" lon="14.6212563571"><ele>-3.23</ele><time>2011-09-23T11:26:04Z</time></trkpt><trkpt lat="44.3260279298" lon="14.6212563571"><ele>-3.23</ele><time>2011-09-23T11:26:23Z</time></trkpt><trkpt lat="44.3260395806" lon="14.6212616377"><ele>-3.23</ele><time>2011-09-23T11:27:00Z</time></trkpt><trkpt lat="44.3260523211" lon="14.6212877054"><ele>-2.75</ele><time>2011-09-23T11:27:39Z</time></trkpt><trkpt lat="44.3260561768" lon="14.6213058103"><ele>-2.27</ele><time>2011-09-23T11:28:17Z</time></trkpt><trkpt lat="44.3260572664" lon="14.6213139407"><ele>-2.27</ele><time>2011-09-23T11:28:52Z</time></trkpt><trkpt lat="44.3260607030" lon="14.6213173773"><ele>-1.79</ele><time>2011-09-23T11:29:30Z</time></trkpt><trkpt lat="44.3260707613" lon="14.6213065647"><ele>-2.75</ele><time>2011-09-23T11:30:05Z</time></trkpt><trkpt lat="44.3260741141" lon="14.6213032119"><ele>-2.75</ele><time>2011-09-23T11:30:49Z</time></trkpt><trkpt lat="44.3260746170" lon="14.6212936565"><ele>-3.23</ele><time>2011-09-23T11:31:26Z</time></trkpt><trkpt lat="44.3260703422" lon="14.6212904714"><ele>-3.23</ele><time>2011-09-23T11:32:04Z</time></trkpt><trkpt lat="44.3260568473" lon="14.6212810837"><ele>-3.23</ele><time>2011-09-23T11:32:42Z</time></trkpt><trkpt lat="44.3260493036" lon="14.6212635655"><ele>-3.23</ele><time>2011-09-23T11:33:14Z</time></trkpt><trkpt lat="44.3260451965" lon="14.6212470531"><ele>-2.27</ele><time>2011-09-23T11:33:49Z</time></trkpt><trkpt lat="44.3260451965" lon="14.6212470531"><ele>-2.27</ele><time>2011-09-23T11:34:23Z</time></trkpt><trkpt lat="44.3260363955" lon="14.6212520823"><ele>-2.27</ele><time>2011-09-23T11:34:57Z</time></trkpt><trkpt lat="44.3260307796" lon="14.6212436166"><ele>-2.75</ele><time>2011-09-23T11:35:33Z</time></trkpt><trkpt lat="44.3260308634" lon="14.6212410182"><ele>-3.23</ele><time>2011-09-23T11:36:00Z</time></trkpt><trkpt lat="44.3260211404" lon="14.6212447062"><ele>-2.27</ele><time>2011-09-23T11:36:35Z</time></trkpt><trkpt lat="44.3259976711" lon="14.6212468017"><ele>-2.27</ele><time>2011-09-23T11:37:06Z</time></trkpt><trkpt lat="44.3259737827" lon="14.6212530043"><ele>-2.27</ele><time>2011-09-23T11:37:44Z</time></trkpt><trkpt lat="44.3259737827" lon="14.6212530043"><ele>-2.27</ele><time>2011-09-23T11:38:16Z</time></trkpt><trkpt lat="44.3259572703" lon="14.6212734561"><ele>-0.34</ele><time>2011-09-23T11:38:58Z</time></trkpt><trkpt lat="44.3259572703" lon="14.6212734561"><ele>-0.34</ele><time>2011-09-23T11:39:03Z</time></trkpt><trkpt lat="44.3259484693" lon="14.6212861966"><ele>-0.34</ele><time>2011-09-23T11:39:37Z</time></trkpt><trkpt lat="44.3259316217" lon="14.6213167906"><ele>-0.82</ele><time>2011-09-23T11:40:11Z</time></trkpt><trkpt lat="44.3259231560" lon="14.6213326324"><ele>-2.27</ele><time>2011-09-23T11:40:42Z</time></trkpt><trkpt lat="44.3259229045" lon="14.6213619690"><ele>-2.75</ele><time>2011-09-23T11:41:17Z</time></trkpt><trkpt lat="44.3259148579" lon="14.6213841811"><ele>-3.71</ele><time>2011-09-23T11:41:52Z</time></trkpt><trkpt lat="44.3259145226" lon="14.6214105003"><ele>-3.23</ele><time>2011-09-23T11:42:26Z</time></trkpt><trkpt lat="44.3259145226" lon="14.6214105003"><ele>-3.23</ele><time>2011-09-23T11:42:57Z</time></trkpt><trkpt lat="44.3260208890" lon="14.6214921400"><ele>-4.19</ele><time>2011-09-23T11:43:26Z</time></trkpt><trkpt lat="44.3261901196" lon="14.6213665791"><ele>-5.63</ele><time>2011-09-23T11:43:57Z</time></trkpt><trkpt lat="44.3262922112" lon="14.6211489849"><ele>-5.63</ele><time>2011-09-23T11:44:20Z</time></trkpt><trkpt lat="44.3264747690" lon="14.6207645070"><ele>-4.67</ele><time>2011-09-23T11:44:49Z</time></trkpt><trkpt lat="44.3266441673" lon="14.6203114651"><ele>-4.67</ele><time>2011-09-23T11:45:18Z</time></trkpt><trkpt lat="44.3267971370" lon="14.6198282484"><ele>-3.23</ele><time>2011-09-23T11:45:45Z</time></trkpt><trkpt lat="44.3269697204" lon="14.6190532576"><ele>-2.75</ele><time>2011-09-23T11:46:20Z</time></trkpt><trkpt lat="44.3270627595" lon="14.6184069291"><ele>-3.71</ele><time>2011-09-23T11:46:47Z</time></trkpt><trkpt lat="44.3271810282" lon="14.6175455209"><ele>-4.19</ele><time>2011-09-23T11:47:21Z</time></trkpt><trkpt lat="44.3272681162" lon="14.6168096736"><ele>-3.71</ele><time>2011-09-23T11:47:49Z</time></trkpt><trkpt lat="44.3270845525" lon="14.6161108743"><ele>-2.27</ele><time>2011-09-23T11:48:12Z</time></trkpt><trkpt lat="44.3268037587" lon="14.6151212230"><ele>-4.19</ele><time>2011-09-23T11:48:41Z</time></trkpt><trkpt lat="44.3265519664" lon="14.6141474973"><ele>-3.23</ele><time>2011-09-23T11:49:08Z</time></trkpt><trkpt lat="44.3262828235" lon="14.6131880209"><ele>-2.27</ele><time>2011-09-23T11:49:35Z</time></trkpt><trkpt lat="44.3260895368" lon="14.6124649979"><ele>-0.82</ele><time>2011-09-23T11:49:55Z</time></trkpt><trkpt lat="44.3261584360" lon="14.6117743291"><ele>-1.79</ele><time>2011-09-23T11:50:13Z</time></trkpt><trkpt lat="44.3263971526" lon="14.6109465323"><ele>-2.75</ele><time>2011-09-23T11:50:35Z</time></trkpt><trkpt lat="44.3267496116" lon="14.6100861300"><ele>-1.79</ele><time>2011-09-23T11:50:59Z</time></trkpt><trkpt lat="44.3271508534" lon="14.6092162561"><ele>-1.79</ele><time>2011-09-23T11:51:23Z</time></trkpt><trkpt lat="44.3276335672" lon="14.6082963422"><ele>-2.75</ele><time>2011-09-23T11:51:49Z</time></trkpt><trkpt lat="44.3280067295" lon="14.6074260492"><ele>-2.75</ele><time>2011-09-23T11:52:12Z</time></trkpt><trkpt lat="44.3284399901" lon="14.6063661575"><ele>-1.79</ele><time>2011-09-23T11:52:40Z</time></trkpt><trkpt lat="44.3289626017" lon="14.6052800305"><ele>-2.27</ele><time>2011-09-23T11:53:09Z</time></trkpt><trkpt lat="44.3294811063" lon="14.6043652296"><ele>-3.23</ele><time>2011-09-23T11:53:36Z</time></trkpt><trkpt lat="44.3300560210" lon="14.6033888217"><ele>-4.67</ele><time>2011-09-23T11:54:05Z</time></trkpt><trkpt lat="44.3306345399" lon="14.6023465320"><ele>-3.71</ele><time>2011-09-23T11:54:35Z</time></trkpt><trkpt lat="44.3310976401" lon="14.6015484910"><ele>-4.19</ele><time>2011-09-23T11:55:00Z</time></trkpt><trkpt lat="44.3314405438" lon="14.6008877456"><ele>-5.63</ele><time>2011-09-23T11:55:29Z</time></trkpt><trkpt lat="44.3318297993" lon="14.6001886949"><ele>-5.63</ele><time>2011-09-23T11:56:01Z</time></trkpt><trkpt lat="44.3321802467" lon="14.5995463897"><ele>-6.11</ele><time>2011-09-23T11:56:30Z</time></trkpt><trkpt lat="44.3326718453" lon="14.5988052618"><ele>-5.63</ele><time>2011-09-23T11:57:06Z</time></trkpt><trkpt lat="44.3331013341" lon="14.5981212985"><ele>-3.71</ele><time>2011-09-23T11:57:38Z</time></trkpt><trkpt lat="44.3335191719" lon="14.5974215772"><ele>-4.19</ele><time>2011-09-23T11:58:10Z</time></trkpt><trkpt lat="44.3339458108" lon="14.5966855623"><ele>-4.19</ele><time>2011-09-23T11:58:43Z</time></trkpt><trkpt lat="44.3344134372" lon="14.5958893653"><ele>-5.15</ele><time>2011-09-23T11:59:18Z</time></trkpt><trkpt lat="44.3348342925" lon="14.5952176396"><ele>-5.63</ele><time>2011-09-23T11:59:48Z</time></trkpt><trkpt lat="44.3352670502" lon="14.5945314132"><ele>-5.63</ele><time>2011-09-23T12:00:19Z</time></trkpt><trkpt lat="44.3356757518" lon="14.5938958973"><ele>-4.67</ele><time>2011-09-23T12:00:47Z</time></trkpt><trkpt lat="44.3360432144" lon="14.5931411907"><ele>-3.71</ele><time>2011-09-23T12:01:17Z</time></trkpt><trkpt lat="44.3365606293" lon="14.5923664514"><ele>-3.71</ele><time>2011-09-23T12:01:51Z</time></trkpt><trkpt lat="44.3371520564" lon="14.5917124115"><ele>-2.75</ele><time>2011-09-23T12:02:26Z</time></trkpt><trkpt lat="44.3377845548" lon="14.5910397638"><ele>-2.75</ele><time>2011-09-23T12:03:04Z</time></trkpt><trkpt lat="44.3383628223" lon="14.5903708879"><ele>-3.23</ele><time>2011-09-23T12:03:41Z</time></trkpt><trkpt lat="44.3388789799" lon="14.5896715019"><ele>-2.75</ele><time>2011-09-23T12:04:18Z</time></trkpt><trkpt lat="44.3393943831" lon="14.5890420210"><ele>-3.71</ele><time>2011-09-23T12:04:53Z</time></trkpt><trkpt lat="44.3399532046" lon="14.5884256158"><ele>-4.19</ele><time>2011-09-23T12:05:18Z</time></trkpt><trkpt lat="44.3406950869" lon="14.5877158362"><ele>-4.19</ele><time>2011-09-23T12:05:46Z</time></trkpt><trkpt lat="44.3414735142" lon="14.5869726967"><ele>-3.71</ele><time>2011-09-23T12:06:15Z</time></trkpt><trkpt lat="44.3422188330" lon="14.5862469077"><ele>-2.75</ele><time>2011-09-23T12:06:43Z</time></trkpt><trkpt lat="44.3428918160" lon="14.5855484437"><ele>-2.27</ele><time>2011-09-23T12:07:09Z</time></trkpt><trkpt lat="44.3435707502" lon="14.5848559309"><ele>-1.30</ele><time>2011-09-23T12:07:35Z</time></trkpt><trkpt lat="44.3443578109" lon="14.5841499232"><ele>-3.23</ele><time>2011-09-23T12:08:04Z</time></trkpt><trkpt lat="44.3450921495" lon="14.5834996551"><ele>-3.71</ele><time>2011-09-23T12:08:31Z</time></trkpt><trkpt lat="44.3458840717" lon="14.5827766322"><ele>-4.19</ele><time>2011-09-23T12:09:00Z</time></trkpt><trkpt lat="44.3467329070" lon="14.5820125379"><ele>-3.23</ele><time>2011-09-23T12:09:31Z</time></trkpt><trkpt lat="44.3474827521" lon="14.5813230425"><ele>-3.71</ele><time>2011-09-23T12:09:59Z</time></trkpt><trkpt lat="44.3481657933" lon="14.5807115827"><ele>-3.23</ele><time>2011-09-23T12:10:24Z</time></trkpt><trkpt lat="44.3489490822" lon="14.5800069161"><ele>-2.27</ele><time>2011-09-23T12:10:53Z</time></trkpt><trkpt lat="44.3494921457" lon="14.5795156527"><ele>-1.30</ele><time>2011-09-23T12:11:17Z</time></trkpt><trkpt lat="44.3500575889" lon="14.5789831504"><ele>-1.30</ele><time>2011-09-23T12:11:45Z</time></trkpt><trkpt lat="44.3505876604" lon="14.5784842595"><ele>-0.34</ele><time>2011-09-23T12:12:10Z</time></trkpt><trkpt lat="44.3512474000" lon="14.5778841153"><ele>-1.30</ele><time>2011-09-23T12:12:36Z</time></trkpt><trkpt lat="44.3519472890" lon="14.5772590768"><ele>-1.30</ele><time>2011-09-23T12:13:03Z</time></trkpt><trkpt lat="44.3526580743" lon="14.5766147599"><ele>-1.30</ele><time>2011-09-23T12:13:30Z</time></trkpt><trkpt lat="44.3533507548" lon="14.5759973489"><ele>-1.30</ele><time>2011-09-23T12:13:56Z</time></trkpt><trkpt lat="44.3540417589" lon="14.5753998030"><ele>-0.82</ele><time>2011-09-23T12:14:22Z</time></trkpt><trkpt lat="44.3546352815" lon="14.5748895966"><ele>-0.82</ele><time>2011-09-23T12:14:44Z</time></trkpt><trkpt lat="44.3553305604" lon="14.5742639713"><ele>-0.34</ele><time>2011-09-23T12:15:10Z</time></trkpt><trkpt lat="44.3558537588" lon="14.5737867896"><ele>-0.34</ele><time>2011-09-23T12:15:30Z</time></trkpt><trkpt lat="44.3563880213" lon="14.5733006392"><ele>0.62</ele><time>2011-09-23T12:15:50Z</time></trkpt><trkpt lat="44.3568967190" lon="14.5728442445"><ele>1.10</ele><time>2011-09-23T12:16:09Z</time></trkpt><trkpt lat="44.3576282077" lon="14.5722137578"><ele>1.10</ele><time>2011-09-23T12:16:36Z</time></trkpt><trkpt lat="44.3583855126" lon="14.5715425350"><ele>2.06</ele><time>2011-09-23T12:17:04Z</time></trkpt><trkpt lat="44.3590709846" lon="14.5709713083"><ele>2.54</ele><time>2011-09-23T12:17:29Z</time></trkpt><trkpt lat="44.3597816862" lon="14.5703808870"><ele>2.06</ele><time>2011-09-23T12:17:55Z</time></trkpt><trkpt lat="44.3604576029" lon="14.5697956625"><ele>2.06</ele><time>2011-09-23T12:18:20Z</time></trkpt><trkpt lat="44.3612361979" lon="14.5691056643"><ele>1.10</ele><time>2011-09-23T12:18:49Z</time></trkpt><trkpt lat="44.3619556166" lon="14.5684561506"><ele>0.14</ele><time>2011-09-23T12:19:15Z</time></trkpt><trkpt lat="44.3627769593" lon="14.5676954091"><ele>0.14</ele><time>2011-09-23T12:19:44Z</time></trkpt><trkpt lat="44.3634926062" lon="14.5670427103"><ele>0.14</ele><time>2011-09-23T12:20:09Z</time></trkpt><trkpt lat="44.3641705345" lon="14.5664320886"><ele>0.14</ele><time>2011-09-23T12:20:33Z</time></trkpt><trkpt lat="44.3649249896" lon="14.5657419227"><ele>0.14</ele><time>2011-09-23T12:21:00Z</time></trkpt><trkpt lat="44.3656361103" lon="14.5650839433"><ele>1.10</ele><time>2011-09-23T12:21:26Z</time></trkpt><trkpt lat="44.3663376756" lon="14.5644256286"><ele>0.62</ele><time>2011-09-23T12:21:52Z</time></trkpt><trkpt lat="44.3669639714" lon="14.5638336986"><ele>0.62</ele><time>2011-09-23T12:22:15Z</time></trkpt><trkpt lat="44.3675550632" lon="14.5632716920"><ele>0.62</ele><time>2011-09-23T12:22:37Z</time></trkpt><trkpt lat="44.3681393657" lon="14.5627391897"><ele>0.62</ele><time>2011-09-23T12:22:59Z</time></trkpt><trkpt lat="44.3686938286" lon="14.5622568950"><ele>0.62</ele><time>2011-09-23T12:23:20Z</time></trkpt><trkpt lat="44.3692537397" lon="14.5617987402"><ele>1.58</ele><time>2011-09-23T12:23:41Z</time></trkpt><trkpt lat="44.3697827216" lon="14.5613707602"><ele>1.58</ele><time>2011-09-23T12:24:01Z</time></trkpt><trkpt lat="44.3703974504" lon="14.5609121863"><ele>0.62</ele><time>2011-09-23T12:24:24Z</time></trkpt><trkpt lat="44.3709917273" lon="14.5604569651"><ele>0.14</ele><time>2011-09-23T12:24:46Z</time></trkpt><trkpt lat="44.3715252355" lon="14.5600497723"><ele>0.62</ele><time>2011-09-23T12:25:06Z</time></trkpt><trkpt lat="44.3721200153" lon="14.5595967304"><ele>1.10</ele><time>2011-09-23T12:25:28Z</time></trkpt><trkpt lat="44.3727769889" lon="14.5590933133"><ele>1.10</ele><time>2011-09-23T12:25:52Z</time></trkpt><trkpt lat="44.3733269256" lon="14.5586853661"><ele>1.10</ele><time>2011-09-23T12:26:12Z</time></trkpt><trkpt lat="44.3738801312" lon="14.5582737308"><ele>1.10</ele><time>2011-09-23T12:26:32Z</time></trkpt><trkpt lat="44.3744857237" lon="14.5578161627"><ele>1.10</ele><time>2011-09-23T12:26:54Z</time></trkpt><trkpt lat="44.3750771508" lon="14.5573333651"><ele>1.58</ele><time>2011-09-23T12:27:16Z</time></trkpt><trkpt lat="44.3756876048" lon="14.5568043832"><ele>1.58</ele><time>2011-09-23T12:27:39Z</time></trkpt><trkpt lat="44.3762610946" lon="14.5563068334"><ele>1.10</ele><time>2011-09-23T12:28:00Z</time></trkpt><trkpt lat="44.3768992927" lon="14.5557659492"><ele>2.06</ele><time>2011-09-23T12:28:23Z</time></trkpt><trkpt lat="44.3775692582" lon="14.5552062057"><ele>2.54</ele><time>2011-09-23T12:28:47Z</time></trkpt><trkpt lat="44.3781725038" lon="14.5546875335"><ele>2.54</ele><time>2011-09-23T12:29:09Z</time></trkpt><trkpt lat="44.3787775934" lon="14.5541531872"><ele>4.46</ele><time>2011-09-23T12:29:31Z</time></trkpt><trkpt lat="44.3794547673" lon="14.5535487682"><ele>4.46</ele><time>2011-09-23T12:29:56Z</time></trkpt><trkpt lat="44.3800466973" lon="14.5530186128"><ele>3.98</ele><time>2011-09-23T12:30:18Z</time></trkpt><trkpt lat="44.3806832191" lon="14.5524633955"><ele>3.98</ele><time>2011-09-23T12:30:41Z</time></trkpt><trkpt lat="44.3813707866" lon="14.5518453140"><ele>4.46</ele><time>2011-09-23T12:31:06Z</time></trkpt><trkpt lat="44.3819686677" lon="14.5513263904"><ele>3.98</ele><time>2011-09-23T12:31:28Z</time></trkpt><trkpt lat="44.3826166727" lon="14.5507438481"><ele>3.50</ele><time>2011-09-23T12:31:52Z</time></trkpt><trkpt lat="44.3832946010" lon="14.5501384232"><ele>3.50</ele><time>2011-09-23T12:32:17Z</time></trkpt><trkpt lat="44.3839406781" lon="14.5495590661"><ele>3.98</ele><time>2011-09-23T12:32:41Z</time></trkpt><trkpt lat="44.3845042773" lon="14.5490642823"><ele>3.98</ele><time>2011-09-23T12:33:02Z</time></trkpt><trkpt lat="44.3850687984" lon="14.5485607814"><ele>3.98</ele><time>2011-09-23T12:33:23Z</time></trkpt><trkpt lat="44.3856272846" lon="14.5480527543"><ele>4.94</ele><time>2011-09-23T12:33:44Z</time></trkpt><trkpt lat="44.3862713501" lon="14.5474769175"><ele>4.94</ele><time>2011-09-23T12:34:08Z</time></trkpt><trkpt lat="44.3869142421" lon="14.5469045173"><ele>4.46</ele><time>2011-09-23T12:34:32Z</time></trkpt><trkpt lat="44.3875340000" lon="14.5463631302"><ele>3.98</ele><time>2011-09-23T12:34:55Z</time></trkpt><trkpt lat="44.3881763890" lon="14.5457976870"><ele>3.98</ele><time>2011-09-23T12:35:19Z</time></trkpt><trkpt lat="44.3887212966" lon="14.5453486685"><ele>2.54</ele><time>2011-09-23T12:35:39Z</time></trkpt><trkpt lat="44.3893076107" lon="14.5448348578"><ele>1.58</ele><time>2011-09-23T12:36:01Z</time></trkpt><trkpt lat="44.3898250256" lon="14.5443961490"><ele>2.06</ele><time>2011-09-23T12:36:20Z</time></trkpt><trkpt lat="44.3903736211" lon="14.5439339709"><ele>2.06</ele><time>2011-09-23T12:36:40Z</time></trkpt><trkpt lat="44.3908644654" lon="14.5435191505"><ele>2.06</ele><time>2011-09-23T12:36:58Z</time></trkpt><trkpt lat="44.3914403860" lon="14.5430363528"><ele>2.06</ele><time>2011-09-23T12:37:19Z</time></trkpt><trkpt lat="44.3920136243" lon="14.5425445028"><ele>3.02</ele><time>2011-09-23T12:37:40Z</time></trkpt><trkpt lat="44.3925552629" lon="14.5420791395"><ele>2.06</ele><time>2011-09-23T12:38:00Z</time></trkpt><trkpt lat="44.3932350352" lon="14.5414866228"><ele>3.50</ele><time>2011-09-23T12:38:25Z</time></trkpt><trkpt lat="44.3938669469" lon="14.5409718063"><ele>3.02</ele><time>2011-09-23T12:38:48Z</time></trkpt><trkpt lat="44.3945565261" lon="14.5404007472"><ele>3.50</ele><time>2011-09-23T12:39:13Z</time></trkpt><trkpt lat="44.3951079715" lon="14.5399443526"><ele>3.02</ele><time>2011-09-23T12:39:33Z</time></trkpt><trkpt lat="44.3956883345" lon="14.5394595433"><ele>3.02</ele><time>2011-09-23T12:39:54Z</time></trkpt><trkpt lat="44.3963553663" lon="14.5389180724"><ele>2.06</ele><time>2011-09-23T12:40:18Z</time></trkpt><trkpt lat="44.3971102405" lon="14.5383181795"><ele>-0.34</ele><time>2011-09-23T12:40:45Z</time></trkpt><trkpt lat="44.3976965547" lon="14.5378544088"><ele>-2.27</ele><time>2011-09-23T12:41:06Z</time></trkpt><trkpt lat="44.3983416259" lon="14.5373324677"><ele>-3.23</ele><time>2011-09-23T12:41:29Z</time></trkpt><trkpt lat="44.3990163691" lon="14.5367971156"><ele>-4.19</ele><time>2011-09-23T12:41:53Z</time></trkpt><trkpt lat="44.3998366222" lon="14.5361320116"><ele>-2.75</ele><time>2011-09-23T12:42:22Z</time></trkpt><trkpt lat="44.4004561286" lon="14.5356194582"><ele>-1.79</ele><time>2011-09-23T12:42:44Z</time></trkpt><trkpt lat="44.4011721946" lon="14.5350464713"><ele>-0.34</ele><time>2011-09-23T12:43:09Z</time></trkpt><trkpt lat="44.4018593431" lon="14.5345018990"><ele>0.14</ele><time>2011-09-23T12:43:33Z</time></trkpt><trkpt lat="44.4024288934" lon="14.5340562332"><ele>0.62</ele><time>2011-09-23T12:43:53Z</time></trkpt><trkpt lat="44.4031160418" lon="14.5335260779"><ele>0.14</ele><time>2011-09-23T12:44:17Z</time></trkpt><trkpt lat="44.4038055371" lon="14.5329872053"><ele>-0.34</ele><time>2011-09-23T12:44:41Z</time></trkpt><trkpt lat="44.4043498579" lon="14.5325589739"><ele>0.62</ele><time>2011-09-23T12:45:00Z</time></trkpt><trkpt lat="44.4050648343" lon="14.5319797844"><ele>2.06</ele><time>2011-09-23T12:45:25Z</time></trkpt><trkpt lat="44.4057834148" lon="14.5314059593"><ele>1.58</ele><time>2011-09-23T12:45:50Z</time></trkpt><trkpt lat="44.4063900970" lon="14.5309423562"><ele>2.06</ele><time>2011-09-23T12:46:11Z</time></trkpt><trkpt lat="44.4070541952" lon="14.5304226782"><ele>2.06</ele><time>2011-09-23T12:46:34Z</time></trkpt><trkpt lat="44.4076326303" lon="14.5299701393"><ele>3.02</ele><time>2011-09-23T12:46:54Z</time></trkpt><trkpt lat="44.4083257299" lon="14.5294272434"><ele>2.54</ele><time>2011-09-23T12:47:18Z</time></trkpt><trkpt lat="44.4090239424" lon="14.5288900472"><ele>3.02</ele><time>2011-09-23T12:47:42Z</time></trkpt><trkpt lat="44.4096887950" lon="14.5283787511"><ele>2.54</ele><time>2011-09-23T12:48:05Z</time></trkpt><trkpt lat="44.4102115743" lon="14.5279739052"><ele>2.06</ele><time>2011-09-23T12:48:23Z</time></trkpt><trkpt lat="44.4109117985" lon="14.5274404809"><ele>1.58</ele><time>2011-09-23T12:48:47Z</time></trkpt><trkpt lat="44.4115861226" lon="14.5269329567"><ele>2.54</ele><time>2011-09-23T12:49:10Z</time></trkpt><trkpt lat="44.4122868497" lon="14.5263894740"><ele>1.58</ele><time>2011-09-23T12:49:34Z</time></trkpt><trkpt lat="44.4129004888" lon="14.5259152260"><ele>1.10</ele><time>2011-09-23T12:49:55Z</time></trkpt><trkpt lat="44.4134992082" lon="14.5254255552"><ele>1.58</ele><time>2011-09-23T12:50:16Z</time></trkpt><trkpt lat="44.4142699242" lon="14.5248052105"><ele>1.58</ele><time>2011-09-23T12:50:43Z</time></trkpt><trkpt lat="44.4149232097" lon="14.5242715348"><ele>1.58</ele><time>2011-09-23T12:51:06Z</time></trkpt><trkpt lat="44.4157517608" lon="14.5236178301"><ele>1.58</ele><time>2011-09-23T12:51:35Z</time></trkpt><trkpt lat="44.4163149409" lon="14.5231382176"><ele>1.10</ele><time>2011-09-23T12:51:56Z</time></trkpt><trkpt lat="44.4170036819" lon="14.5224836748"><ele>-0.34</ele><time>2011-09-23T12:52:21Z</time></trkpt><trkpt lat="44.4176526926" lon="14.5219003782"><ele>-0.34</ele><time>2011-09-23T12:52:45Z</time></trkpt><trkpt lat="44.4180876296" lon="14.5215233602"><ele>-0.34</ele><time>2011-09-23T12:53:01Z</time></trkpt><trkpt lat="44.4186555035" lon="14.5210186858"><ele>-0.82</ele><time>2011-09-23T12:53:22Z</time></trkpt><trkpt lat="44.4191401452" lon="14.5205884427"><ele>-0.34</ele><time>2011-09-23T12:53:40Z</time></trkpt><trkpt lat="44.4196825381" lon="14.5201037172"><ele>-1.30</ele><time>2011-09-23T12:54:00Z</time></trkpt><trkpt lat="44.4202528428" lon="14.5196074247"><ele>-1.30</ele><time>2011-09-23T12:54:21Z</time></trkpt><trkpt lat="44.4208498858" lon="14.5190855674"><ele>-1.30</ele><time>2011-09-23T12:54:43Z</time></trkpt><trkpt lat="44.4215888344" lon="14.5184473693"><ele>-0.82</ele><time>2011-09-23T12:55:10Z</time></trkpt><trkpt lat="44.4221623242" lon="14.5179487299"><ele>-0.82</ele><time>2011-09-23T12:55:31Z</time></trkpt><trkpt lat="44.4228068087" lon="14.5173793472"><ele>-1.79</ele><time>2011-09-23T12:55:55Z</time></trkpt><trkpt lat="44.4233794603" lon="14.5168615133"><ele>-0.82</ele><time>2011-09-23T12:56:16Z</time></trkpt><trkpt lat="44.4239707198" lon="14.5163345430"><ele>-0.82</ele><time>2011-09-23T12:56:38Z</time></trkpt><trkpt lat="44.4244881347" lon="14.5158870332"><ele>-0.82</ele><time>2011-09-23T12:56:57Z</time></trkpt><trkpt lat="44.4250731915" lon="14.5153618231"><ele>-1.79</ele><time>2011-09-23T12:57:19Z</time></trkpt><trkpt lat="44.4257209450" lon="14.5148043428"><ele>-2.27</ele><time>2011-09-23T12:57:43Z</time></trkpt><trkpt lat="44.4263478275" lon="14.5142758638"><ele>-2.27</ele><time>2011-09-23T12:58:06Z</time></trkpt><trkpt lat="44.4269392546" lon="14.5137555152"><ele>-0.82</ele><time>2011-09-23T12:58:28Z</time></trkpt><trkpt lat="44.4274157658" lon="14.5133395214"><ele>-0.34</ele><time>2011-09-23T12:58:46Z</time></trkpt><trkpt lat="44.4280537963" lon="14.5127836335"><ele>0.62</ele><time>2011-09-23T12:59:10Z</time></trkpt><trkpt lat="44.4287458900" lon="14.5122040249"><ele>0.14</ele><time>2011-09-23T12:59:36Z</time></trkpt><trkpt lat="44.4294054620" lon="14.5116367377"><ele>-0.34</ele><time>2011-09-23T13:00:01Z</time></trkpt><trkpt lat="44.4298769441" lon="14.5112119429"><ele>-1.30</ele><time>2011-09-23T13:00:19Z</time></trkpt><trkpt lat="44.4304623362" lon="14.5107038319"><ele>-0.82</ele><time>2011-09-23T13:00:41Z</time></trkpt><trkpt lat="44.4310147036" lon="14.5102522150"><ele>-0.82</ele><time>2011-09-23T13:01:02Z</time></trkpt><trkpt lat="44.4315498881" lon="14.5098047052"><ele>-0.82</ele><time>2011-09-23T13:01:22Z</time></trkpt><trkpt lat="44.4322504476" lon="14.5092106797"><ele>-0.34</ele><time>2011-09-23T13:01:48Z</time></trkpt><trkpt lat="44.4327887334" lon="14.5087581407"><ele>-0.82</ele><time>2011-09-23T13:02:08Z</time></trkpt><trkpt lat="44.4333294500" lon="14.5083091222"><ele>-1.30</ele><time>2011-09-23T13:02:28Z</time></trkpt><trkpt lat="44.4339221343" lon="14.5078173559"><ele>-1.30</ele><time>2011-09-23T13:02:50Z</time></trkpt><trkpt lat="44.4345438201" lon="14.5072996058"><ele>-0.34</ele><time>2011-09-23T13:03:13Z</time></trkpt><trkpt lat="44.4353354070" lon="14.5066553727"><ele>0.62</ele><time>2011-09-23T13:03:42Z</time></trkpt><trkpt lat="44.4360447675" lon="14.5060802065"><ele>0.62</ele><time>2011-09-23T13:04:08Z</time></trkpt><trkpt lat="44.4366900902" lon="14.5055312756"><ele>-0.34</ele><time>2011-09-23T13:04:32Z</time></trkpt><trkpt lat="44.4373859558" lon="14.5049416088"><ele>-0.34</ele><time>2011-09-23T13:04:58Z</time></trkpt><trkpt lat="44.4381931331" lon="14.5042911731"><ele>-0.34</ele><time>2011-09-23T13:05:28Z</time></trkpt><trkpt lat="44.4389157370" lon="14.5036621112"><ele>-0.34</ele><time>2011-09-23T13:05:55Z</time></trkpt><trkpt lat="44.4396885484" lon="14.5030178782"><ele>-0.34</ele><time>2011-09-23T13:06:24Z</time></trkpt><trkpt lat="44.4403561670" lon="14.5025302190"><ele>-0.82</ele><time>2011-09-23T13:06:48Z</time></trkpt><trkpt lat="44.4409403019" lon="14.5021031611"><ele>-0.82</ele><time>2011-09-23T13:07:09Z</time></trkpt><trkpt lat="44.4415810145" lon="14.5016393065"><ele>-0.82</ele><time>2011-09-23T13:07:32Z</time></trkpt><trkpt lat="44.4421713520" lon="14.5012354665"><ele>-0.82</ele><time>2011-09-23T13:07:53Z</time></trkpt><trkpt lat="44.4429790322" lon="14.5006670896"><ele>-0.82</ele><time>2011-09-23T13:08:22Z</time></trkpt><trkpt lat="44.4437390193" lon="14.5001002215"><ele>-1.79</ele><time>2011-09-23T13:08:50Z</time></trkpt><trkpt lat="44.4444718491" lon="14.4995700661"><ele>-1.30</ele><time>2011-09-23T13:09:17Z</time></trkpt><trkpt lat="44.4453252945" lon="14.4989717659"><ele>-2.27</ele><time>2011-09-23T13:09:48Z</time></trkpt><trkpt lat="44.4461088348" lon="14.4983898941"><ele>-2.75</ele><time>2011-09-23T13:10:17Z</time></trkpt><trkpt lat="44.4468636252" lon="14.4978246186"><ele>-1.79</ele><time>2011-09-23T13:10:45Z</time></trkpt><trkpt lat="44.4477890711" lon="14.4971431699"><ele>-1.79</ele><time>2011-09-23T13:11:19Z</time></trkpt><trkpt lat="44.4485812448" lon="14.4965724461"><ele>-1.79</ele><time>2011-09-23T13:11:48Z</time></trkpt><trkpt lat="44.4494398870" lon="14.4959321525"><ele>-1.79</ele><time>2011-09-23T13:12:20Z</time></trkpt><trkpt lat="44.4503784925" lon="14.4952180982"><ele>-1.30</ele><time>2011-09-23T13:12:55Z</time></trkpt><trkpt lat="44.4512350392" lon="14.4945636392"><ele>-0.82</ele><time>2011-09-23T13:13:27Z</time></trkpt><trkpt lat="44.4520791806" lon="14.4939230103"><ele>-0.82</ele><time>2011-09-23T13:13:59Z</time></trkpt><trkpt lat="44.4528861903" lon="14.4933339301"><ele>-0.82</ele><time>2011-09-23T13:14:29Z</time></trkpt><trkpt lat="44.4536914397" lon="14.4927444309"><ele>-0.34</ele><time>2011-09-23T13:14:59Z</time></trkpt><trkpt lat="44.4544754829" lon="14.4921839330"><ele>-0.34</ele><time>2011-09-23T13:15:28Z</time></trkpt><trkpt lat="44.4552809838" lon="14.4915967807"><ele>-0.34</ele><time>2011-09-23T13:15:58Z</time></trkpt><trkpt lat="44.4561955333" lon="14.4909314252"><ele>0.14</ele><time>2011-09-23T13:16:32Z</time></trkpt><trkpt lat="44.4570416864" lon="14.4902934786"><ele>-0.34</ele><time>2011-09-23T13:17:04Z</time></trkpt><trkpt lat="44.4578611851" lon="14.4896681886"><ele>-0.82</ele><time>2011-09-23T13:17:35Z</time></trkpt><trkpt lat="44.4587284606" lon="14.4890216924"><ele>-0.82</ele><time>2011-09-23T13:18:08Z</time></trkpt><trkpt lat="44.4597043656" lon="14.4882915448"><ele>-1.30</ele><time>2011-09-23T13:18:45Z</time></trkpt><trkpt lat="44.4604828767" lon="14.4877354056"><ele>-1.79</ele><time>2011-09-23T13:19:14Z</time></trkpt><trkpt lat="44.4612454623" lon="14.4871790148"><ele>-1.79</ele><time>2011-09-23T13:19:43Z</time></trkpt><trkpt lat="44.4621315133" lon="14.4865516294"><ele>-1.30</ele><time>2011-09-23T13:20:16Z</time></trkpt><trkpt lat="44.4629717153" lon="14.4859192986"><ele>-0.82</ele><time>2011-09-23T13:20:48Z</time></trkpt><trkpt lat="44.4637628831" lon="14.4853252731"><ele>-1.30</ele><time>2011-09-23T13:21:18Z</time></trkpt><trkpt lat="44.4645081181" lon="14.4847916812"><ele>-2.75</ele><time>2011-09-23T13:21:46Z</time></trkpt><trkpt lat="44.4652866293" lon="14.4842196163"><ele>-2.27</ele><time>2011-09-23T13:22:15Z</time></trkpt><trkpt lat="44.4661386497" lon="14.4835934043"><ele>-1.79</ele><time>2011-09-23T13:22:47Z</time></trkpt><trkpt lat="44.4669582322" lon="14.4829954393"><ele>-2.27</ele><time>2011-09-23T13:23:18Z</time></trkpt><trkpt lat="44.4678386673" lon="14.4823661260"><ele>-2.75</ele><time>2011-09-23T13:23:51Z</time></trkpt><trkpt lat="44.4685339462" lon="14.4818564225"><ele>-3.23</ele><time>2011-09-23T13:24:17Z</time></trkpt><trkpt lat="44.4693132117" lon="14.4813064020"><ele>-2.75</ele><time>2011-09-23T13:24:46Z</time></trkpt><trkpt lat="44.4700359832" lon="14.4808033202"><ele>-2.75</ele><time>2011-09-23T13:25:13Z</time></trkpt><trkpt lat="44.4706764445" lon="14.4803563971"><ele>-2.27</ele><time>2011-09-23T13:25:37Z</time></trkpt><trkpt lat="44.4714213442" lon="14.4798285048"><ele>-2.75</ele><time>2011-09-23T13:26:05Z</time></trkpt><trkpt lat="44.4722229894" lon="14.4792573620"><ele>-3.23</ele><time>2011-09-23T13:26:35Z</time></trkpt><trkpt lat="44.4729437493" lon="14.4787497539"><ele>-3.23</ele><time>2011-09-23T13:27:02Z</time></trkpt><trkpt lat="44.4737909082" lon="14.4781544711"><ele>-3.71</ele><time>2011-09-23T13:27:34Z</time></trkpt><trkpt lat="44.4745346345" lon="14.4776417501"><ele>-4.19</ele><time>2011-09-23T13:28:02Z</time></trkpt><trkpt lat="44.4753359444" lon="14.4770757202"><ele>-3.71</ele><time>2011-09-23T13:28:32Z</time></trkpt><trkpt lat="44.4761525933" lon="14.4764922559"><ele>-3.71</ele><time>2011-09-23T13:29:03Z</time></trkpt><trkpt lat="44.4769360498" lon="14.4759433251"><ele>-2.75</ele><time>2011-09-23T13:29:32Z</time></trkpt><trkpt lat="44.4776046742" lon="14.4754917081"><ele>-1.79</ele><time>2011-09-23T13:29:57Z</time></trkpt><trkpt lat="44.4783524238" lon="14.4749928173"><ele>-1.79</ele><time>2011-09-23T13:30:25Z</time></trkpt><trkpt lat="44.4790351298" lon="14.4745127019"><ele>-2.27</ele><time>2011-09-23T13:30:51Z</time></trkpt><trkpt lat="44.4797246251" lon="14.4740185887"><ele>-2.75</ele><time>2011-09-23T13:31:17Z</time></trkpt><trkpt lat="44.4804235920" lon="14.4735627808"><ele>-2.75</ele><time>2011-09-23T13:31:43Z</time></trkpt><trkpt lat="44.4811895303" lon="14.4730225671"><ele>-2.75</ele><time>2011-09-23T13:32:12Z</time></trkpt><trkpt lat="44.4818495214" lon="14.4725491572"><ele>-3.23</ele><time>2011-09-23T13:32:37Z</time></trkpt><trkpt lat="44.4825158827" lon="14.4720923435"><ele>-3.23</ele><time>2011-09-23T13:33:02Z</time></trkpt><trkpt lat="44.4832016900" lon="14.4716207776"><ele>-3.71</ele><time>2011-09-23T13:33:28Z</time></trkpt><trkpt lat="44.4839857332" lon="14.4711053744"><ele>-1.79</ele><time>2011-09-23T13:33:57Z</time></trkpt><trkpt lat="44.4847069122" lon="14.4706137758"><ele>-2.27</ele><time>2011-09-23T13:34:24Z</time></trkpt><trkpt lat="44.4855010137" lon="14.4700464047"><ele>-2.75</ele><time>2011-09-23T13:34:54Z</time></trkpt><trkpt lat="44.4863102026" lon="14.4695042633"><ele>-2.75</ele><time>2011-09-23T13:35:24Z</time></trkpt><trkpt lat="44.4870319683" lon="14.4690213818"><ele>-2.27</ele><time>2011-09-23T13:35:51Z</time></trkpt><trkpt lat="44.4876900315" lon="14.4685497321"><ele>-2.75</ele><time>2011-09-23T13:36:16Z</time></trkpt><trkpt lat="44.4883153215" lon="14.4681132026"><ele>-1.79</ele><time>2011-09-23T13:36:40Z</time></trkpt><trkpt lat="44.4887108635" lon="14.4681298826"><ele>-1.30</ele><time>2011-09-23T13:36:54Z</time></trkpt><trkpt lat="44.4892216567" lon="14.4678928424"><ele>-1.30</ele><time>2011-09-23T13:37:13Z</time></trkpt><trkpt lat="44.4898232259" lon="14.4675435685"><ele>-1.79</ele><time>2011-09-23T13:37:35Z</time></trkpt><trkpt lat="44.4906366896" lon="14.4670544006"><ele>-0.82</ele><time>2011-09-23T13:38:05Z</time></trkpt><trkpt lat="44.4914585352" lon="14.4665653165"><ele>-1.30</ele><time>2011-09-23T13:38:35Z</time></trkpt><trkpt lat="44.4921409059" lon="14.4661482330"><ele>-0.82</ele><time>2011-09-23T13:39:00Z</time></trkpt><trkpt lat="44.4928693771" lon="14.4656884857"><ele>-0.34</ele><time>2011-09-23T13:39:27Z</time></trkpt><trkpt lat="44.4936214853" lon="14.4652024191"><ele>0.14</ele><time>2011-09-23T13:39:55Z</time></trkpt><trkpt lat="44.4943669718" lon="14.4647162687"><ele>1.10</ele><time>2011-09-23T13:40:23Z</time></trkpt><trkpt lat="44.4951315690" lon="14.4641987700"><ele>1.58</ele><time>2011-09-23T13:40:52Z</time></trkpt><trkpt lat="44.4959093258" lon="14.4637001306"><ele>2.06</ele><time>2011-09-23T13:41:21Z</time></trkpt><trkpt lat="44.4966567401" lon="14.4632158242"><ele>0.62</ele><time>2011-09-23T13:41:49Z</time></trkpt><trkpt lat="44.4973049127" lon="14.4627994951"><ele>-0.82</ele><time>2011-09-23T13:42:13Z</time></trkpt><trkpt lat="44.4979820028" lon="14.4623803161"><ele>-1.79</ele><time>2011-09-23T13:42:38Z</time></trkpt><trkpt lat="44.4986609370" lon="14.4619590417"><ele>-1.79</ele><time>2011-09-23T13:43:03Z</time></trkpt><trkpt lat="44.4993837923" lon="14.4615035690"><ele>-1.79</ele><time>2011-09-23T13:43:30Z</time></trkpt><trkpt lat="44.5000600442" lon="14.4610860664"><ele>-2.75</ele><time>2011-09-23T13:43:55Z</time></trkpt><trkpt lat="44.5007309318" lon="14.4606585056"><ele>-3.23</ele><time>2011-09-23T13:44:20Z</time></trkpt><trkpt lat="44.5014086086" lon="14.4601961598"><ele>-3.23</ele><time>2011-09-23T13:44:46Z</time></trkpt><trkpt lat="44.5019655023" lon="14.4598159567"><ele>-2.75</ele><time>2011-09-23T13:45:07Z</time></trkpt><trkpt lat="44.5025795605" lon="14.4594191574"><ele>-2.75</ele><time>2011-09-23T13:45:30Z</time></trkpt><trkpt lat="44.5031175110" lon="14.4590713084"><ele>-2.27</ele><time>2011-09-23T13:45:50Z</time></trkpt><trkpt lat="44.5035175793" lon="14.4588230364"><ele>-1.79</ele><time>2011-09-23T13:46:05Z</time></trkpt><trkpt lat="44.5038664341" lon="14.4585926179"><ele>-1.79</ele><time>2011-09-23T13:46:18Z</time></trkpt><trkpt lat="44.5042415243" lon="14.4583564159"><ele>-2.27</ele><time>2011-09-23T13:46:32Z</time></trkpt><trkpt lat="44.5046161115" lon="14.4581219740"><ele>-2.27</ele><time>2011-09-23T13:46:46Z</time></trkpt><trkpt lat="44.5051164273" lon="14.4577965885"><ele>-2.27</ele><time>2011-09-23T13:47:05Z</time></trkpt><trkpt lat="44.5056843851" lon="14.4574389327"><ele>-1.30</ele><time>2011-09-23T13:47:26Z</time></trkpt><trkpt lat="44.5063052326" lon="14.4570484199"><ele>-1.79</ele><time>2011-09-23T13:47:49Z</time></trkpt><trkpt lat="44.5068772975" lon="14.4566949550"><ele>-2.75</ele><time>2011-09-23T13:48:10Z</time></trkpt><trkpt lat="44.5074201934" lon="14.4563528895"><ele>-3.23</ele><time>2011-09-23T13:48:30Z</time></trkpt><trkpt lat="44.5080412924" lon="14.4559623767"><ele>-2.27</ele><time>2011-09-23T13:48:53Z</time></trkpt><trkpt lat="44.5087697636" lon="14.4554992765"><ele>-2.75</ele><time>2011-09-23T13:49:20Z</time></trkpt><trkpt lat="44.5092317741" lon="14.4552054070"><ele>-2.75</ele><time>2011-09-23T13:49:37Z</time></trkpt><trkpt lat="44.5098811202" lon="14.4547956996"><ele>-2.27</ele><time>2011-09-23T13:50:01Z</time></trkpt><trkpt lat="44.5104238484" lon="14.4544615131"><ele>-3.23</ele><time>2011-09-23T13:50:21Z</time></trkpt><trkpt lat="44.5110529102" lon="14.4540688209"><ele>-3.23</ele><time>2011-09-23T13:50:44Z</time></trkpt><trkpt lat="44.5117584150" lon="14.4536323752"><ele>-2.27</ele><time>2011-09-23T13:51:10Z</time></trkpt><trkpt lat="44.5124663506" lon="14.4531882182"><ele>-2.75</ele><time>2011-09-23T13:51:36Z</time></trkpt><trkpt lat="44.5130322129" lon="14.4528277125"><ele>-3.23</ele><time>2011-09-23T13:51:57Z</time></trkpt><trkpt lat="44.5135490410" lon="14.4525012374"><ele>-2.75</ele><time>2011-09-23T13:52:16Z</time></trkpt><trkpt lat="44.5142395422" lon="14.4519991614"><ele>-2.75</ele><time>2011-09-23T13:52:42Z</time></trkpt><trkpt lat="44.5148302149" lon="14.4515160285"><ele>-2.27</ele><time>2011-09-23T13:53:05Z</time></trkpt><trkpt lat="44.5154436864" lon="14.4510132819"><ele>-3.23</ele><time>2011-09-23T13:53:29Z</time></trkpt><trkpt lat="44.5161320921" lon="14.4504433125"><ele>-3.71</ele><time>2011-09-23T13:53:56Z</time></trkpt><trkpt lat="44.5167063363" lon="14.4500184339"><ele>-5.63</ele><time>2011-09-23T13:54:17Z</time></trkpt><trkpt lat="44.5172732044" lon="14.4495647214"><ele>-6.11</ele><time>2011-09-23T13:54:39Z</time></trkpt><trkpt lat="44.5178509690" lon="14.4491171278"><ele>-9.00</ele><time>2011-09-23T13:55:01Z</time></trkpt><trkpt lat="44.5185111277" lon="14.4486218411"><ele>-10.92</ele><time>2011-09-23T13:55:26Z</time></trkpt><trkpt lat="44.5190590527" lon="14.4481856469"><ele>-12.36</ele><time>2011-09-23T13:55:47Z</time></trkpt><trkpt lat="44.5195700973" lon="14.4477572478"><ele>-10.92</ele><time>2011-09-23T13:56:07Z</time></trkpt><trkpt lat="44.5201764442" lon="14.4472380728"><ele>-10.44</ele><time>2011-09-23T13:56:31Z</time></trkpt><trkpt lat="44.5208388660" lon="14.4466745574"><ele>-9.96</ele><time>2011-09-23T13:56:57Z</time></trkpt><trkpt lat="44.5212398563" lon="14.4463350903"><ele>-7.55</ele><time>2011-09-23T13:57:13Z</time></trkpt><trkpt lat="44.5217050519" lon="14.4459636882"><ele>-7.55</ele><time>2011-09-23T13:57:31Z</time></trkpt><trkpt lat="44.5220655575" lon="14.4456697349"><ele>-8.03</ele><time>2011-09-23T13:57:45Z</time></trkpt><trkpt lat="44.5225544740" lon="14.4452566747"><ele>-9.00</ele><time>2011-09-23T13:58:04Z</time></trkpt><trkpt lat="44.5231500082" lon="14.4447789900"><ele>-9.48</ele><time>2011-09-23T13:58:27Z</time></trkpt><trkpt lat="44.5234848652" lon="14.4444787502"><ele>-9.00</ele><time>2011-09-23T13:58:40Z</time></trkpt><trkpt lat="44.5238924772" lon="14.4441195019"><ele>-9.48</ele><time>2011-09-23T13:58:56Z</time></trkpt><trkpt lat="44.5245960541" lon="14.4435603451"><ele>-9.96</ele><time>2011-09-23T13:59:23Z</time></trkpt><trkpt lat="44.5252377726" lon="14.4429885317"><ele>-4.67</ele><time>2011-09-23T13:59:49Z</time></trkpt><trkpt lat="44.5259647351" lon="14.4423476513"><ele>-2.27</ele><time>2011-09-23T14:00:18Z</time></trkpt><trkpt lat="44.5266315993" lon="14.4417764246"><ele>-2.27</ele><time>2011-09-23T14:00:44Z</time></trkpt><trkpt lat="44.5273395348" lon="14.4411601033"><ele>-2.27</ele><time>2011-09-23T14:01:12Z</time></trkpt><trkpt lat="44.5280772261" lon="14.4405348133"><ele>-0.82</ele><time>2011-09-23T14:01:41Z</time></trkpt><trkpt lat="44.5288683102" lon="14.4398738164"><ele>-1.30</ele><time>2011-09-23T14:02:12Z</time></trkpt><trkpt lat="44.5296431333" lon="14.4392248057"><ele>-1.79</ele><time>2011-09-23T14:02:42Z</time></trkpt><trkpt lat="44.5303490572" lon="14.4386220630"><ele>-1.79</ele><time>2011-09-23T14:03:10Z</time></trkpt><trkpt lat="44.5311886724" lon="14.4379363395"><ele>-1.30</ele><time>2011-09-23T14:03:42Z</time></trkpt><trkpt lat="44.5318941772" lon="14.4373479299"><ele>-0.34</ele><time>2011-09-23T14:04:10Z</time></trkpt><trkpt lat="44.5327045396" lon="14.4366544113"><ele>-1.30</ele><time>2011-09-23T14:04:42Z</time></trkpt><trkpt lat="44.5333959628" lon="14.4360331446"><ele>-1.30</ele><time>2011-09-23T14:05:10Z</time></trkpt><trkpt lat="44.5341085922" lon="14.4353966229"><ele>-1.79</ele><time>2011-09-23T14:05:38Z</time></trkpt><trkpt lat="44.5348250773" lon="14.4347183593"><ele>-0.82</ele><time>2011-09-23T14:06:07Z</time></trkpt><trkpt lat="44.5355342701" lon="14.4340657443"><ele>-2.27</ele><time>2011-09-23T14:06:35Z</time></trkpt><trkpt lat="44.5362422895" lon="14.4334334973"><ele>-2.27</ele><time>2011-09-23T14:07:03Z</time></trkpt><trkpt lat="44.5368755423" lon="14.4328655396"><ele>-2.27</ele><time>2011-09-23T14:07:28Z</time></trkpt><trkpt lat="44.5375159197" lon="14.4323064666"><ele>-2.27</ele><time>2011-09-23T14:07:53Z</time></trkpt><trkpt lat="44.5382606518" lon="14.4316152111"><ele>-1.79</ele><time>2011-09-23T14:08:23Z</time></trkpt><trkpt lat="44.5389194693" lon="14.4310206827"><ele>-1.30</ele><time>2011-09-23T14:08:49Z</time></trkpt><trkpt lat="44.5397224557" lon="14.4302799739"><ele>-1.30</ele><time>2011-09-23T14:09:21Z</time></trkpt><trkpt lat="44.5405557007" lon="14.4295059890"><ele>-1.79</ele><time>2011-09-23T14:09:54Z</time></trkpt><trkpt lat="44.5412301924" lon="14.4288424775"><ele>-1.30</ele><time>2011-09-23T14:10:21Z</time></trkpt><trkpt lat="44.5418006647" lon="14.4283463527"><ele>-0.34</ele><time>2011-09-23T14:10:43Z</time></trkpt><trkpt lat="44.5425896533" lon="14.4276254252"><ele>-1.30</ele><time>2011-09-23T14:11:14Z</time></trkpt><trkpt lat="44.5433411747" lon="14.4269369356"><ele>0.14</ele><time>2011-09-23T14:11:44Z</time></trkpt><trkpt lat="44.5440035965" lon="14.4262783695"><ele>0.14</ele><time>2011-09-23T14:12:11Z</time></trkpt><trkpt lat="44.5447667688" lon="14.4255809113"><ele>-3.23</ele><time>2011-09-23T14:12:41Z</time></trkpt><trkpt lat="44.5454641432" lon="14.4249118678"><ele>-4.67</ele><time>2011-09-23T14:13:09Z</time></trkpt><trkpt lat="44.5461082086" lon="14.4242465124"><ele>-3.71</ele><time>2011-09-23T14:13:36Z</time></trkpt><trkpt lat="44.5467636734" lon="14.4235709310"><ele>-3.23</ele><time>2011-09-23T14:14:03Z</time></trkpt><trkpt lat="44.5475011971" lon="14.4227909949"><ele>-4.19</ele><time>2011-09-23T14:14:34Z</time></trkpt><trkpt lat="44.5481480286" lon="14.4220987335"><ele>-2.27</ele><time>2011-09-23T14:15:01Z</time></trkpt><trkpt lat="44.5487695467" lon="14.4214467052"><ele>-2.27</ele><time>2011-09-23T14:15:27Z</time></trkpt><trkpt lat="44.5494290348" lon="14.4207090139"><ele>-3.23</ele><time>2011-09-23T14:15:55Z</time></trkpt><trkpt lat="44.5500722621" lon="14.4200304989"><ele>-2.75</ele><time>2011-09-23T14:16:22Z</time></trkpt><trkpt lat="44.5505900960" lon="14.4200528786"><ele>-3.23</ele><time>2011-09-23T14:16:39Z</time></trkpt><trkpt lat="44.5512828603" lon="14.4205176551"><ele>-2.27</ele><time>2011-09-23T14:17:04Z</time></trkpt><trkpt lat="44.5519200526" lon="14.4212279376"><ele>-2.75</ele><time>2011-09-23T14:17:30Z</time></trkpt><trkpt lat="44.5526628569" lon="14.4221802056"><ele>-2.27</ele><time>2011-09-23T14:18:02Z</time></trkpt><trkpt lat="44.5533825271" lon="14.4230945036"><ele>-1.79</ele><time>2011-09-23T14:18:33Z</time></trkpt><trkpt lat="44.5541368145" lon="14.4239907805"><ele>-1.79</ele><time>2011-09-23T14:19:05Z</time></trkpt><trkpt lat="44.5546176005" lon="14.4245675392"><ele>-1.79</ele><time>2011-09-23T14:19:25Z</time></trkpt></trkseg><trkseg><trkpt lat="44.5566398185" lon="14.4340821728"><ele>-0.34</ele><time>2011-09-23T14:24:10Z</time></trkpt></trkseg><trkseg><trkpt lat="44.5566263236" lon="14.4341291115"><ele>-1.79</ele><time>2011-09-23T14:24:11Z</time></trkpt><trkpt lat="44.5560584497" lon="14.4352761749"><ele>-3.23</ele><time>2011-09-23T14:24:42Z</time></trkpt><trkpt lat="44.5555245224" lon="14.4363392517"><ele>-4.19</ele><time>2011-09-23T14:25:11Z</time></trkpt><trkpt lat="44.5549517032" lon="14.4373972993"><ele>-5.15</ele><time>2011-09-23T14:25:41Z</time></trkpt><trkpt lat="44.5542349666" lon="14.4383284450"><ele>-3.71</ele><time>2011-09-23T14:26:11Z</time></trkpt><trkpt lat="44.5537650771" lon="14.4388738554"><ele>-2.27</ele><time>2011-09-23T14:26:31Z</time></trkpt><trkpt lat="44.5535075013" lon="14.4385792315"><ele>-2.27</ele><time>2011-09-23T14:26:43Z</time></trkpt><trkpt lat="44.5535310544" lon="14.4384621363"><ele>-1.79</ele><time>2011-09-23T14:26:47Z</time></trkpt><trkpt lat="44.5537209045" lon="14.4386802334"><ele>-1.30</ele><time>2011-09-23T14:26:58Z</time></trkpt><trkpt lat="44.5536789950" lon="14.4388780463"><ele>-1.79</ele><time>2011-09-23T14:27:04Z</time></trkpt><trkpt lat="44.5532126259" lon="14.4391719159"><ele>-1.79</ele><time>2011-09-23T14:27:22Z</time></trkpt><trkpt lat="44.5526486915" lon="14.4398739003"><ele>-2.75</ele><time>2011-09-23T14:27:46Z</time></trkpt><trkpt lat="44.5520203840" lon="14.4408645574"><ele>-2.27</ele><time>2011-09-23T14:28:15Z</time></trkpt><trkpt lat="44.5512596425" lon="14.4421163108"><ele>-1.79</ele><time>2011-09-23T14:28:51Z</time></trkpt><trkpt lat="44.5504274871" lon="14.4431487937"><ele>-0.82</ele><time>2011-09-23T14:29:25Z</time></trkpt><trkpt lat="44.5497466251" lon="14.4440614991"><ele>-1.30</ele><time>2011-09-23T14:29:54Z</time></trkpt><trkpt lat="44.5490174834" lon="14.4450119231"><ele>-0.82</ele><time>2011-09-23T14:30:25Z</time></trkpt><trkpt lat="44.5485421456" lon="14.4460310787"><ele>-1.30</ele><time>2011-09-23T14:30:52Z</time></trkpt><trkpt lat="44.5479823183" lon="14.4470270164"><ele>-0.34</ele><time>2011-09-23T14:31:20Z</time></trkpt><trkpt lat="44.5473814197" lon="14.4480481837"><ele>0.62</ele><time>2011-09-23T14:31:49Z</time></trkpt><trkpt lat="44.5469215047" lon="14.4489006232"><ele>1.10</ele><time>2011-09-23T14:32:15Z</time></trkpt><trkpt lat="44.5466598216" lon="14.4495873526"><ele>-0.34</ele><time>2011-09-23T14:32:39Z</time></trkpt><trkpt lat="44.5464491844" lon="14.4502855651"><ele>-0.82</ele><time>2011-09-23T14:33:05Z</time></trkpt><trkpt lat="44.5462672971" lon="14.4509764016"><ele>-2.27</ele><time>2011-09-23T14:33:31Z</time></trkpt><trkpt lat="44.5460994076" lon="14.4518024381"><ele>-1.79</ele><time>2011-09-23T14:34:01Z</time></trkpt><trkpt lat="44.5460098889" lon="14.4525055960"><ele>-1.79</ele><time>2011-09-23T14:34:27Z</time></trkpt><trkpt lat="44.5459663030" lon="14.4532067422"><ele>0.14</ele><time>2011-09-23T14:34:57Z</time></trkpt><trkpt lat="44.5458802208" lon="14.4538328703"><ele>0.14</ele><time>2011-09-23T14:35:30Z</time></trkpt><trkpt lat="44.5457578450" lon="14.4543011673"><ele>0.62</ele><time>2011-09-23T14:35:59Z</time></trkpt><trkpt lat="44.5455647260" lon="14.4546866510"><ele>1.58</ele><time>2011-09-23T14:36:32Z</time></trkpt><trkpt lat="44.5454221498" lon="14.4549834542"><ele>0.62</ele><time>2011-09-23T14:37:04Z</time></trkpt><trkpt lat="44.5453682542" lon="14.4550795108"><ele>-0.82</ele><time>2011-09-23T14:37:36Z</time></trkpt><trkpt lat="44.5453672484" lon="14.4550811034"><ele>-0.82</ele><time>2011-09-23T14:38:09Z</time></trkpt><trkpt lat="44.5453672484" lon="14.4550811034"><ele>-0.82</ele><time>2011-09-23T14:38:40Z</time></trkpt><trkpt lat="44.5453665778" lon="14.4550830312"><ele>-0.34</ele><time>2011-09-23T14:39:13Z</time></trkpt><trkpt lat="44.5453658234" lon="14.4550870545"><ele>-0.34</ele><time>2011-09-23T14:39:45Z</time></trkpt><trkpt lat="44.5453646500" lon="14.4550888147"><ele>0.14</ele><time>2011-09-23T14:40:22Z</time></trkpt><trkpt lat="44.5453653205" lon="14.4550943468"><ele>0.14</ele><time>2011-09-23T14:40:52Z</time></trkpt><trkpt lat="44.5453653205" lon="14.4550943468"><ele>0.14</ele><time>2011-09-23T14:41:16Z</time></trkpt><trkpt lat="44.5453644823" lon="14.4550937600"><ele>0.14</ele><time>2011-09-23T14:41:45Z</time></trkpt><trkpt lat="44.5453669969" lon="14.4550965261"><ele>0.14</ele><time>2011-09-23T14:42:14Z</time></trkpt><trkpt lat="44.5453664102" lon="14.4550980348"><ele>0.62</ele><time>2011-09-23T14:42:45Z</time></trkpt><trkpt lat="44.5453664102" lon="14.4550980348"><ele>0.62</ele><time>2011-09-23T14:43:14Z</time></trkpt><trkpt lat="44.5453659911" lon="14.4550971128"><ele>0.62</ele><time>2011-09-23T14:43:43Z</time></trkpt><trkpt lat="44.5453674998" lon="14.4550987054"><ele>1.10</ele><time>2011-09-23T14:44:15Z</time></trkpt><trkpt lat="44.5453672484" lon="14.4551044889"><ele>1.10</ele><time>2011-09-23T14:44:45Z</time></trkpt><trkpt lat="44.5453672484" lon="14.4551044889"><ele>1.10</ele><time>2011-09-23T14:45:19Z</time></trkpt><trkpt lat="44.5453665778" lon="14.4551079255"><ele>0.62</ele><time>2011-09-23T14:45:51Z</time></trkpt><trkpt lat="44.5453665778" lon="14.4551076740"><ele>1.10</ele><time>2011-09-23T14:46:28Z</time></trkpt><trkpt lat="44.5453662425" lon="14.4551075902"><ele>1.10</ele><time>2011-09-23T14:47:03Z</time></trkpt><trkpt lat="44.5453660749" lon="14.4551072549"><ele>1.10</ele><time>2011-09-23T14:47:35Z</time></trkpt><trkpt lat="44.5453644823" lon="14.4551117811"><ele>1.58</ele><time>2011-09-23T14:48:03Z</time></trkpt><trkpt lat="44.5453644823" lon="14.4551117811"><ele>1.58</ele><time>2011-09-23T14:48:31Z</time></trkpt><trkpt lat="44.5453646500" lon="14.4551140442"><ele>1.58</ele><time>2011-09-23T14:49:03Z</time></trkpt><trkpt lat="44.5453638118" lon="14.4551133737"><ele>1.58</ele><time>2011-09-23T14:49:28Z</time></trkpt></trkseg><trkseg><trkpt lat="44.5454458706" lon="14.4552073348"><ele>0.62</ele><time>2011-09-23T14:54:12Z</time></trkpt><trkpt lat="44.5453548431" lon="14.4551219232"><ele>7.35</ele><time>2011-09-23T14:54:42Z</time></trkpt><trkpt lat="44.5453640632" lon="14.4551234320"><ele>3.98</ele><time>2011-09-23T14:55:13Z</time></trkpt><trkpt lat="44.5453607943" lon="14.4551240187"><ele>1.10</ele><time>2011-09-23T14:55:43Z</time></trkpt><trkpt lat="44.5453655720" lon="14.4551173970"><ele>1.58</ele><time>2011-09-23T14:56:14Z</time></trkpt><trkpt lat="44.5453651529" lon="14.4551198278"><ele>1.58</ele><time>2011-09-23T14:56:42Z</time></trkpt><trkpt lat="44.5453651529" lon="14.4551198278"><ele>1.58</ele><time>2011-09-23T14:57:07Z</time></trkpt><trkpt lat="44.5453649014" lon="14.4551206660"><ele>1.58</ele><time>2011-09-23T14:57:35Z</time></trkpt><trkpt lat="44.5453569386" lon="14.4551047403"><ele>3.02</ele><time>2011-09-23T14:57:57Z</time></trkpt><trkpt lat="44.5453545917" lon="14.4551007170"><ele>3.02</ele><time>2011-09-23T14:58:12Z</time></trkpt><trkpt lat="44.5453581959" lon="14.4551350828"><ele>3.02</ele><time>2011-09-23T14:58:27Z</time></trkpt><trkpt lat="44.5453577768" lon="14.4551330712"><ele>3.02</ele><time>2011-09-23T14:59:04Z</time></trkpt><trkpt lat="44.5453581959" lon="14.4551311433"><ele>3.02</ele><time>2011-09-23T14:59:40Z</time></trkpt><trkpt lat="44.5453581959" lon="14.4551311433"><ele>3.02</ele><time>2011-09-23T15:00:15Z</time></trkpt><trkpt lat="44.5453584474" lon="14.4551313110"><ele>3.02</ele><time>2011-09-23T15:00:46Z</time></trkpt><trkpt lat="44.5453578606" lon="14.4551308081"><ele>3.02</ele><time>2011-09-23T15:01:17Z</time></trkpt><trkpt lat="44.5453570224" lon="14.4551311433"><ele>3.02</ele><time>2011-09-23T15:01:53Z</time></trkpt><trkpt lat="44.5453571901" lon="14.4551292993"><ele>3.02</ele><time>2011-09-23T15:02:24Z</time></trkpt><trkpt lat="44.5453571901" lon="14.4551292993"><ele>3.02</ele><time>2011-09-23T15:02:53Z</time></trkpt><trkpt lat="44.5453586988" lon="14.4551271200"><ele>3.02</ele><time>2011-09-23T15:03:27Z</time></trkpt><trkpt lat="44.5453608781" lon="14.4551251922"><ele>3.02</ele><time>2011-09-23T15:03:59Z</time></trkpt><trkpt lat="44.5453618839" lon="14.4551235158"><ele>3.02</ele><time>2011-09-23T15:04:29Z</time></trkpt><trkpt lat="44.5453623869" lon="14.4551220071"><ele>2.54</ele><time>2011-09-23T15:04:59Z</time></trkpt><trkpt lat="44.5453623869" lon="14.4551220071"><ele>2.54</ele><time>2011-09-23T15:05:34Z</time></trkpt><trkpt lat="44.5453624707" lon="14.4551232643"><ele>3.02</ele><time>2011-09-23T15:06:08Z</time></trkpt><trkpt lat="44.5453618001" lon="14.4551228452"><ele>3.02</ele><time>2011-09-23T15:06:38Z</time></trkpt><trkpt lat="44.5453061443" lon="14.4551619049"><ele>2.06</ele><time>2011-09-23T15:07:11Z</time></trkpt><trkpt lat="44.5451906417" lon="14.4552194048"><ele>2.54</ele><time>2011-09-23T15:07:29Z</time></trkpt><trkpt lat="44.5451383386" lon="14.4549506810"><ele>1.58</ele><time>2011-09-23T15:07:48Z</time></trkpt><trkpt lat="44.5453462098" lon="14.4546102919"><ele>-0.34</ele><time>2011-09-23T15:08:17Z</time></trkpt><trkpt lat="44.5455199666" lon="14.4542828947"><ele>-1.30</ele><time>2011-09-23T15:08:48Z</time></trkpt><trkpt lat="44.5456975792" lon="14.4538944773"><ele>-1.79</ele><time>2011-09-23T15:09:17Z</time></trkpt><trkpt lat="44.5457290951" lon="14.4537035376"><ele>-1.79</ele><time>2011-09-23T15:09:40Z</time></trkpt><trkpt lat="44.5458498783" lon="14.4539180305"><ele>-1.30</ele><time>2011-09-23T15:10:09Z</time></trkpt><trkpt lat="44.5460466016" lon="14.4540964812"><ele>-2.75</ele><time>2011-09-23T15:10:41Z</time></trkpt><trkpt lat="44.5462120604" lon="14.4542928692"><ele>-2.75</ele><time>2011-09-23T15:11:10Z</time></trkpt><trkpt lat="44.5462377928" lon="14.4543527998"><ele>-2.75</ele><time>2011-09-23T15:11:33Z</time></trkpt><trkpt lat="44.5462385472" lon="14.4543533865"><ele>-2.75</ele><time>2011-09-23T15:12:10Z</time></trkpt><trkpt lat="44.5462385472" lon="14.4543533865"><ele>-2.75</ele><time>2011-09-23T15:12:33Z</time></trkpt><trkpt lat="44.5462372061" lon="14.4543535542"><ele>-2.75</ele><time>2011-09-23T15:12:58Z</time></trkpt><trkpt lat="44.5462378766" lon="14.4543529674"><ele>-2.75</ele><time>2011-09-23T15:13:27Z</time></trkpt><trkpt lat="44.5462393854" lon="14.4543509558"><ele>-2.27</ele><time>2011-09-23T15:14:00Z</time></trkpt><trkpt lat="44.5462393854" lon="14.4543509558"><ele>-2.27</ele><time>2011-09-23T15:14:36Z</time></trkpt><trkpt lat="44.5462386310" lon="14.4543500338"><ele>-2.27</ele><time>2011-09-23T15:15:13Z</time></trkpt><trkpt lat="44.5462379605" lon="14.4543493632"><ele>-2.27</ele><time>2011-09-23T15:15:50Z</time></trkpt><trkpt lat="44.5462367032" lon="14.4543489441"><ele>-2.27</ele><time>2011-09-23T15:16:21Z</time></trkpt><trkpt lat="44.5462353621" lon="14.4543475192"><ele>-2.27</ele><time>2011-09-23T15:16:52Z</time></trkpt><trkpt lat="44.5462357812" lon="14.4543500338"><ele>-1.79</ele><time>2011-09-23T15:17:24Z</time></trkpt><trkpt lat="44.5462357812" lon="14.4543500338"><ele>-1.79</ele><time>2011-09-23T15:17:55Z</time></trkpt><trkpt lat="44.5462356135" lon="14.4543492794"><ele>-1.79</ele><time>2011-09-23T15:18:28Z</time></trkpt><trkpt lat="44.5462339371" lon="14.4543524645"><ele>-1.79</ele><time>2011-09-23T15:19:00Z</time></trkpt><trkpt lat="44.5462324284" lon="14.4543491956"><ele>-1.30</ele><time>2011-09-23T15:19:04Z</time></trkpt></trkseg><trkseg><trkpt lat="44.5462581608" lon="14.4543786161"><ele>2.54</ele><time>2011-09-23T15:24:12Z</time></trkpt><trkpt lat="44.5462549757" lon="14.4543725811"><ele>1.58</ele><time>2011-09-23T15:24:22Z</time></trkpt><trkpt lat="44.5462562330" lon="14.4544189330"><ele>2.06</ele><time>2011-09-23T15:24:25Z</time></trkpt><trkpt lat="44.5462172572" lon="14.4545214437"><ele>3.02</ele><time>2011-09-23T15:24:31Z</time></trkpt><trkpt lat="44.5461676363" lon="14.4545834698"><ele>3.50</ele><time>2011-09-23T15:24:42Z</time></trkpt><trkpt lat="44.5461452566" lon="14.4545750879"><ele>3.02</ele><time>2011-09-23T15:25:08Z</time></trkpt><trkpt lat="44.5461351983" lon="14.4545608386"><ele>0.14</ele><time>2011-09-23T15:25:37Z</time></trkpt><trkpt lat="44.5461440831" lon="14.4545600843"><ele>2.54</ele><time>2011-09-23T15:26:05Z</time></trkpt><trkpt lat="44.5461476035" lon="14.4545569830"><ele>2.54</ele><time>2011-09-23T15:26:33Z</time></trkpt><trkpt lat="44.5461605955" lon="14.4545693882"><ele>2.54</ele><time>2011-09-23T15:26:44Z</time></trkpt><trkpt lat="44.5461460948" lon="14.4546370301"><ele>2.54</ele><time>2011-09-23T15:26:49Z</time></trkpt><trkpt lat="44.5461377967" lon="14.4546773471"><ele>3.02</ele><time>2011-09-23T15:27:05Z</time></trkpt><trkpt lat="44.5461377967" lon="14.4546773471"><ele>3.02</ele><time>2011-09-23T15:27:11Z</time></trkpt></trkseg><trkseg><trkpt lat="44.5461956318" lon="14.4546712283"><ele>4.94</ele><time>2011-09-23T15:39:26Z</time></trkpt><trkpt lat="44.5461693965" lon="14.4546785206"><ele>0.62</ele><time>2011-09-23T15:40:06Z</time></trkpt><trkpt lat="44.5461337734" lon="14.4547216874"><ele>-3.23</ele><time>2011-09-23T15:40:43Z</time></trkpt><trkpt lat="44.5461379644" lon="14.4547108747"><ele>-2.27</ele><time>2011-09-23T15:41:24Z</time></trkpt><trkpt lat="44.5461405627" lon="14.4547114614"><ele>-2.27</ele><time>2011-09-23T15:42:00Z</time></trkpt><trkpt lat="44.5461393893" lon="14.4547107909"><ele>-2.27</ele><time>2011-09-23T15:42:38Z</time></trkpt><trkpt lat="44.5461372100" lon="14.4547091983"><ele>-2.27</ele><time>2011-09-23T15:43:16Z</time></trkpt><trkpt lat="44.5461480226" lon="14.4547178317"><ele>-2.75</ele><time>2011-09-23T15:43:51Z</time></trkpt><trkpt lat="44.5461480226" lon="14.4547178317"><ele>-2.75</ele><time>2011-09-23T15:44:23Z</time></trkpt><trkpt lat="44.5461496990" lon="14.4547217712"><ele>-2.27</ele><time>2011-09-23T15:44:57Z</time></trkpt><trkpt lat="44.5461477712" lon="14.4547205977"><ele>-2.27</ele><time>2011-09-23T15:45:32Z</time></trkpt><trkpt lat="44.5461499505" lon="14.4547228608"><ele>-2.27</ele><time>2011-09-23T15:46:08Z</time></trkpt><trkpt lat="44.5461515430" lon="14.4547241181"><ele>-2.27</ele><time>2011-09-23T15:46:46Z</time></trkpt><trkpt lat="44.5461529680" lon="14.4547237828"><ele>-2.27</ele><time>2011-09-23T15:47:20Z</time></trkpt><trkpt lat="44.5461478550" lon="14.4547204301"><ele>-2.27</ele><time>2011-09-23T15:47:54Z</time></trkpt><trkpt lat="44.5461454242" lon="14.4547198433"><ele>-2.27</ele><time>2011-09-23T15:48:33Z</time></trkpt><trkpt lat="44.5461364556" lon="14.4547147304"><ele>-2.27</ele><time>2011-09-23T15:49:06Z</time></trkpt><trkpt lat="44.5461364556" lon="14.4547147304"><ele>-2.27</ele><time>2011-09-23T15:49:43Z</time></trkpt><trkpt lat="44.5461342763" lon="14.4547121320"><ele>-2.27</ele><time>2011-09-23T15:50:16Z</time></trkpt><trkpt lat="44.5461354498" lon="14.4547201786"><ele>-2.27</ele><time>2011-09-23T15:50:49Z</time></trkpt><trkpt lat="44.5461342763" lon="14.4547230285"><ele>-2.27</ele><time>2011-09-23T15:51:22Z</time></trkpt><trkpt lat="44.5461342763" lon="14.4547230285"><ele>-2.27</ele><time>2011-09-23T15:51:44Z</time></trkpt><trkpt lat="44.5461235475" lon="14.4547297340"><ele>-2.27</ele><time>2011-09-23T15:52:17Z</time></trkpt><trkpt lat="44.5461257268" lon="14.4547321647"><ele>-2.27</ele><time>2011-09-23T15:52:49Z</time></trkpt><trkpt lat="44.5461240504" lon="14.4547319971"><ele>-2.27</ele><time>2011-09-23T15:53:23Z</time></trkpt><trkpt lat="44.5461234637" lon="14.4547311589"><ele>-2.27</ele><time>2011-09-23T15:53:56Z</time></trkpt><trkpt lat="44.5461171772" lon="14.4547351822"><ele>-2.75</ele><time>2011-09-23T15:54:31Z</time></trkpt><trkpt lat="44.5461197756" lon="14.4547361881"><ele>-2.75</ele><time>2011-09-23T15:55:08Z</time></trkpt><trkpt lat="44.5461197756" lon="14.4547361881"><ele>-2.75</ele><time>2011-09-23T15:55:42Z</time></trkpt><trkpt lat="44.5461206976" lon="14.4547369424"><ele>-2.75</ele><time>2011-09-23T15:56:22Z</time></trkpt><trkpt lat="44.5461196080" lon="14.4547320809"><ele>-3.23</ele><time>2011-09-23T15:56:57Z</time></trkpt><trkpt lat="44.5461189374" lon="14.4547308236"><ele>-3.71</ele><time>2011-09-23T15:57:30Z</time></trkpt><trkpt lat="44.5461174287" lon="14.4547256269"><ele>-3.71</ele><time>2011-09-23T15:58:07Z</time></trkpt><trkpt lat="44.5461185183" lon="14.4547237828"><ele>-3.71</ele><time>2011-09-23T15:58:48Z</time></trkpt><trkpt lat="44.5461212844" lon="14.4547224417"><ele>-3.23</ele><time>2011-09-23T15:59:24Z</time></trkpt><trkpt lat="44.5461203624" lon="14.4547205977"><ele>-3.23</ele><time>2011-09-23T16:00:03Z</time></trkpt><trkpt lat="44.5461203624" lon="14.4547171611"><ele>-2.75</ele><time>2011-09-23T16:00:41Z</time></trkpt><trkpt lat="44.5461217035" lon="14.4547152333"><ele>-2.27</ele><time>2011-09-23T16:01:15Z</time></trkpt><trkpt lat="44.5461216196" lon="14.4547149818"><ele>-1.79</ele><time>2011-09-23T16:01:48Z</time></trkpt><trkpt lat="44.5461216196" lon="14.4547149818"><ele>-1.79</ele><time>2011-09-23T16:02:21Z</time></trkpt><trkpt lat="44.5461242180" lon="14.4547103718"><ele>-1.30</ele><time>2011-09-23T16:03:01Z</time></trkpt><trkpt lat="44.5461231284" lon="14.4547090307"><ele>-0.82</ele><time>2011-09-23T16:03:38Z</time></trkpt><trkpt lat="44.5461258106" lon="14.4547080249"><ele>-0.82</ele><time>2011-09-23T16:04:14Z</time></trkpt><trkpt lat="44.5461260621" lon="14.4547070190"><ele>-0.34</ele><time>2011-09-23T16:04:45Z</time></trkpt><trkpt lat="44.5461258944" lon="14.4547074381"><ele>0.14</ele><time>2011-09-23T16:05:24Z</time></trkpt><trkpt lat="44.5461263135" lon="14.4547054265"><ele>0.62</ele><time>2011-09-23T16:06:01Z</time></trkpt><trkpt lat="44.5461273193" lon="14.4547019061"><ele>1.10</ele><time>2011-09-23T16:06:35Z</time></trkpt><trkpt lat="44.5461263135" lon="14.4547033310"><ele>1.58</ele><time>2011-09-23T16:07:11Z</time></trkpt><trkpt lat="44.5461254753" lon="14.4547019061"><ele>2.06</ele><time>2011-09-23T16:07:50Z</time></trkpt><trkpt lat="44.5461252239" lon="14.4546989724"><ele>2.06</ele><time>2011-09-23T16:08:28Z</time></trkpt><trkpt lat="44.5461252239" lon="14.4546989724"><ele>2.06</ele><time>2011-09-23T16:09:02Z</time></trkpt><trkpt lat="44.5461226255" lon="14.4546991400"><ele>2.54</ele><time>2011-09-23T16:09:41Z</time></trkpt><trkpt lat="44.5461231284" lon="14.4547004811"><ele>3.02</ele><time>2011-09-23T16:10:15Z</time></trkpt><trkpt lat="44.5461229607" lon="14.4547003973"><ele>3.02</ele><time>2011-09-23T16:10:48Z</time></trkpt><trkpt lat="44.5461228769" lon="14.4546984695"><ele>3.02</ele><time>2011-09-23T16:11:21Z</time></trkpt><trkpt lat="44.5461219549" lon="14.4546980504"><ele>2.54</ele><time>2011-09-23T16:11:45Z</time></trkpt><trkpt lat="44.5461219549" lon="14.4546980504"><ele>2.54</ele><time>2011-09-23T16:12:09Z</time></trkpt><trkpt lat="44.5461273193" lon="14.4546928536"><ele>2.54</ele><time>2011-09-23T16:12:26Z</time></trkpt></trkseg><trkseg><trkpt lat="44.5432876144" lon="14.4639142044"><ele>5.42</ele><time>2011-09-23T16:24:31Z</time></trkpt><trkpt lat="44.5432163682" lon="14.4640036393"><ele>5.91</ele><time>2011-09-23T16:24:32Z</time></trkpt><trkpt lat="44.5422624238" lon="14.4651111402"><ele>3.98</ele><time>2011-09-23T16:24:46Z</time></trkpt><trkpt lat="44.5416102279" lon="14.4655496813"><ele>6.39</ele><time>2011-09-23T16:24:54Z</time></trkpt><trkpt lat="44.5413214713" lon="14.4655730668"><ele>7.83</ele><time>2011-09-23T16:24:59Z</time></trkpt><trkpt lat="44.5411398355" lon="14.4656485040"><ele>7.83</ele><time>2011-09-23T16:25:02Z</time></trkpt><trkpt lat="44.5408583712" lon="14.4657100271"><ele>8.31</ele><time>2011-09-23T16:25:06Z</time></trkpt><trkpt lat="44.5403946005" lon="14.4656534493"><ele>8.31</ele><time>2011-09-23T16:25:12Z</time></trkpt><trkpt lat="44.5396496169" lon="14.4650825579"><ele>8.79</ele><time>2011-09-23T16:25:23Z</time></trkpt><trkpt lat="44.5391322859" lon="14.4646034483"><ele>4.94</ele><time>2011-09-23T16:25:34Z</time></trkpt><trkpt lat="44.5390984230" lon="14.4645950664"><ele>4.94</ele><time>2011-09-23T16:25:35Z</time></trkpt><trkpt lat="44.5390112512" lon="14.4648630358"><ele>5.42</ele><time>2011-09-23T16:25:42Z</time></trkpt><trkpt lat="44.5391249098" lon="14.4648860861"><ele>5.42</ele><time>2011-09-23T16:25:44Z</time></trkpt><trkpt lat="44.5395025145" lon="14.4649468549"><ele>5.42</ele><time>2011-09-23T16:25:58Z</time></trkpt><trkpt lat="44.5395282470" lon="14.4649415743"><ele>5.91</ele><time>2011-09-23T16:26:05Z</time></trkpt><trkpt lat="44.5395402331" lon="14.4649389759"><ele>5.91</ele><time>2011-09-23T16:26:07Z</time></trkpt><trkpt lat="44.5396745950" lon="14.4649535604"><ele>4.94</ele><time>2011-09-23T16:26:12Z</time></trkpt><trkpt lat="44.5398460887" lon="14.4648986589"><ele>3.98</ele><time>2011-09-23T16:26:24Z</time></trkpt><trkpt lat="44.5398519561" lon="14.4649209548"><ele>2.54</ele><time>2011-09-23T16:26:31Z</time></trkpt><trkpt lat="44.5398242958" lon="14.4649104774"><ele>2.06</ele><time>2011-09-23T16:26:49Z</time></trkpt><trkpt lat="44.5397808775" lon="14.4649189431"><ele>2.54</ele><time>2011-09-23T16:26:51Z</time></trkpt><trkpt lat="44.5396451745" lon="14.4649529736"><ele>2.54</ele><time>2011-09-23T16:26:59Z</time></trkpt><trkpt lat="44.5390646439" lon="14.4644736964"><ele>0.14</ele><time>2011-09-23T16:27:16Z</time></trkpt><trkpt lat="44.5390003547" lon="14.4644211419"><ele>-0.34</ele><time>2011-09-23T16:27:27Z</time></trkpt><trkpt lat="44.5389465429" lon="14.4645233173"><ele>0.14</ele><time>2011-09-23T16:27:36Z</time></trkpt><trkpt lat="44.5391565934" lon="14.4649248105"><ele>2.06</ele><time>2011-09-23T16:27:49Z</time></trkpt><trkpt lat="44.5392377302" lon="14.4649215415"><ele>2.54</ele><time>2011-09-23T16:28:03Z</time></trkpt><trkpt lat="44.5392337907" lon="14.4649263192"><ele>2.54</ele><time>2011-09-23T16:28:36Z</time></trkpt><trkpt lat="44.5392337907" lon="14.4649263192"><ele>2.54</ele><time>2011-09-23T16:29:11Z</time></trkpt><trkpt lat="44.5392347127" lon="14.4649282470"><ele>2.54</ele><time>2011-09-23T16:29:44Z</time></trkpt><trkpt lat="44.5392351318" lon="14.4649274927"><ele>2.54</ele><time>2011-09-23T16:30:17Z</time></trkpt><trkpt lat="44.5392339583" lon="14.4649326056"><ele>3.02</ele><time>2011-09-23T16:30:53Z</time></trkpt><trkpt lat="44.5392374787" lon="14.4649350364"><ele>3.02</ele><time>2011-09-23T16:31:31Z</time></trkpt><trkpt lat="44.5392409991" lon="14.4649347849"><ele>2.54</ele><time>2011-09-23T16:32:07Z</time></trkpt><trkpt lat="44.5392439328" lon="14.4649352878"><ele>2.54</ele><time>2011-09-23T16:32:52Z</time></trkpt><trkpt lat="44.5392441843" lon="14.4649385568"><ele>2.06</ele><time>2011-09-23T16:33:33Z</time></trkpt><trkpt lat="44.5392451901" lon="14.4649397302"><ele>2.06</ele><time>2011-09-23T16:34:13Z</time></trkpt><trkpt lat="44.5392460283" lon="14.4649405684"><ele>2.06</ele><time>2011-09-23T16:34:55Z</time></trkpt><trkpt lat="44.5392472018" lon="14.4649419934"><ele>2.06</ele><time>2011-09-23T16:35:33Z</time></trkpt><trkpt lat="44.5392482076" lon="14.4649413228"><ele>2.06</ele><time>2011-09-23T16:36:10Z</time></trkpt><trkpt lat="44.5392441843" lon="14.4649437536"><ele>1.58</ele><time>2011-09-23T16:36:51Z</time></trkpt><trkpt lat="44.5392446872" lon="14.4649444241"><ele>1.58</ele><time>2011-09-23T16:37:37Z</time></trkpt><trkpt lat="44.5392404124" lon="14.4649497885"><ele>1.58</ele><time>2011-09-23T16:38:15Z</time></trkpt><trkpt lat="44.5392390713" lon="14.4649480283"><ele>1.58</ele><time>2011-09-23T16:38:54Z</time></trkpt><trkpt lat="44.5392382331" lon="14.4649462681"><ele>1.58</ele><time>2011-09-23T16:39:31Z</time></trkpt><trkpt lat="44.5392357185" lon="14.4649528898"><ele>1.58</ele><time>2011-09-23T16:40:05Z</time></trkpt><trkpt lat="44.5392331202" lon="14.4649515487"><ele>1.58</ele><time>2011-09-23T16:40:39Z</time></trkpt><trkpt lat="44.5392328687" lon="14.4649531413"><ele>1.58</ele><time>2011-09-23T16:41:21Z</time></trkpt><trkpt lat="44.5392331202" lon="14.4649543986"><ele>2.06</ele><time>2011-09-23T16:42:02Z</time></trkpt><trkpt lat="44.5392336231" lon="14.4649569970"><ele>2.06</ele><time>2011-09-23T16:42:37Z</time></trkpt><trkpt lat="44.5392346289" lon="14.4649590924"><ele>2.06</ele><time>2011-09-23T16:43:16Z</time></trkpt><trkpt lat="44.5392332040" lon="14.4649595954"><ele>2.06</ele><time>2011-09-23T16:43:55Z</time></trkpt><trkpt lat="44.5392332040" lon="14.4649595954"><ele>2.06</ele><time>2011-09-23T16:44:31Z</time></trkpt><trkpt lat="44.5392330363" lon="14.4649638701"><ele>2.06</ele><time>2011-09-23T16:45:14Z</time></trkpt><trkpt lat="44.5392357185" lon="14.4649655465"><ele>2.54</ele><time>2011-09-23T16:45:54Z</time></trkpt><trkpt lat="44.5392357185" lon="14.4649655465"><ele>2.54</ele><time>2011-09-23T16:46:28Z</time></trkpt><trkpt lat="44.5392376464" lon="14.4649657141"><ele>2.54</ele><time>2011-09-23T16:47:04Z</time></trkpt><trkpt lat="44.5392367244" lon="14.4649660494"><ele>2.54</ele><time>2011-09-23T16:47:42Z</time></trkpt><trkpt lat="44.5392387360" lon="14.4649625290"><ele>3.02</ele><time>2011-09-23T16:48:20Z</time></trkpt><trkpt lat="44.5392388199" lon="14.4649678934"><ele>3.02</ele><time>2011-09-23T16:49:02Z</time></trkpt><trkpt lat="44.5392395742" lon="14.4649663009"><ele>3.50</ele><time>2011-09-23T16:49:35Z</time></trkpt><trkpt lat="44.5392392389" lon="14.4649660494"><ele>3.50</ele><time>2011-09-23T16:50:12Z</time></trkpt><trkpt lat="44.5392408315" lon="14.4649646245"><ele>3.98</ele><time>2011-09-23T16:50:48Z</time></trkpt><trkpt lat="44.5392380655" lon="14.4649655465"><ele>3.98</ele><time>2011-09-23T16:51:20Z</time></trkpt><trkpt lat="44.5392365567" lon="14.4649652112"><ele>4.46</ele><time>2011-09-23T16:51:56Z</time></trkpt><trkpt lat="44.5392382331" lon="14.4649645407"><ele>4.46</ele><time>2011-09-23T16:52:33Z</time></trkpt><trkpt lat="44.5392382331" lon="14.4649645407"><ele>4.46</ele><time>2011-09-23T16:53:10Z</time></trkpt><trkpt lat="44.5392361376" lon="14.4649616908"><ele>4.94</ele><time>2011-09-23T16:53:43Z</time></trkpt><trkpt lat="44.5392360538" lon="14.4649580866"><ele>5.42</ele><time>2011-09-23T16:54:20Z</time></trkpt><trkpt lat="44.5392362215" lon="14.4649575837"><ele>5.42</ele><time>2011-09-23T16:54:55Z</time></trkpt><trkpt lat="44.5392378140" lon="14.4649569970"><ele>5.91</ele><time>2011-09-23T16:55:29Z</time></trkpt><trkpt lat="44.5392367244" lon="14.4649564102"><ele>5.91</ele><time>2011-09-23T16:56:06Z</time></trkpt><trkpt lat="44.5392373949" lon="14.4649544824"><ele>5.91</ele><time>2011-09-23T16:56:43Z</time></trkpt><trkpt lat="44.5392377302" lon="14.4649518002"><ele>6.39</ele><time>2011-09-23T16:57:18Z</time></trkpt><trkpt lat="44.5392377302" lon="14.4649518002"><ele>6.39</ele><time>2011-09-23T16:57:52Z</time></trkpt><trkpt lat="44.5392367244" lon="14.4649480283"><ele>6.39</ele><time>2011-09-23T16:58:27Z</time></trkpt><trkpt lat="44.5392377302" lon="14.4649461843"><ele>6.39</ele><time>2011-09-23T16:59:06Z</time></trkpt><trkpt lat="44.5392371435" lon="14.4649441727"><ele>6.87</ele><time>2011-09-23T16:59:45Z</time></trkpt><trkpt lat="44.5392365567" lon="14.4649466034"><ele>6.87</ele><time>2011-09-23T17:00:25Z</time></trkpt><trkpt lat="44.5392351318" lon="14.4649459329"><ele>6.87</ele><time>2011-09-23T17:01:02Z</time></trkpt><trkpt lat="44.5392378978" lon="14.4649429992"><ele>6.87</ele><time>2011-09-23T17:01:43Z</time></trkpt><trkpt lat="44.5392412506" lon="14.4649480283"><ele>6.39</ele><time>2011-09-23T17:02:25Z</time></trkpt><trkpt lat="44.5392440166" lon="14.4649502914"><ele>6.39</ele><time>2011-09-23T17:03:03Z</time></trkpt><trkpt lat="44.5392426755" lon="14.4649508782"><ele>6.39</ele><time>2011-09-23T17:03:42Z</time></trkpt><trkpt lat="44.5392423403" lon="14.4649518840"><ele>6.39</ele><time>2011-09-23T17:04:19Z</time></trkpt><trkpt lat="44.5392436814" lon="14.4649531413"><ele>6.39</ele><time>2011-09-23T17:04:55Z</time></trkpt><trkpt lat="44.5392459445" lon="14.4649533089"><ele>6.39</ele><time>2011-09-23T17:05:30Z</time></trkpt><trkpt lat="44.5392481238" lon="14.4649512134"><ele>6.39</ele><time>2011-09-23T17:06:05Z</time></trkpt><trkpt lat="44.5392466150" lon="14.4649538957"><ele>5.91</ele><time>2011-09-23T17:06:44Z</time></trkpt><trkpt lat="44.5392470341" lon="14.4649507105"><ele>6.39</ele><time>2011-09-23T17:07:25Z</time></trkpt><trkpt lat="44.5392422564" lon="14.4649513811"><ele>6.39</ele><time>2011-09-23T17:08:06Z</time></trkpt><trkpt lat="44.5392431784" lon="14.4649466872"><ele>6.39</ele><time>2011-09-23T17:08:42Z</time></trkpt><trkpt lat="44.5392426755" lon="14.4649438374"><ele>6.87</ele><time>2011-09-23T17:09:15Z</time></trkpt><trkpt lat="44.5392426755" lon="14.4649438374"><ele>6.87</ele><time>2011-09-23T17:09:52Z</time></trkpt><trkpt lat="44.5392420888" lon="14.4649390597"><ele>6.87</ele><time>2011-09-23T17:10:30Z</time></trkpt><trkpt lat="44.5392422564" lon="14.4649352040"><ele>6.87</ele><time>2011-09-23T17:11:10Z</time></trkpt><trkpt lat="44.5392446034" lon="14.4649344496"><ele>6.39</ele><time>2011-09-23T17:11:50Z</time></trkpt><trkpt lat="44.5392438490" lon="14.4649346173"><ele>6.39</ele><time>2011-09-23T17:12:30Z</time></trkpt><trkpt lat="44.5392446872" lon="14.4649327733"><ele>6.39</ele><time>2011-09-23T17:13:07Z</time></trkpt><trkpt lat="44.5392436814" lon="14.4649338629"><ele>6.39</ele><time>2011-09-23T17:13:51Z</time></trkpt><trkpt lat="44.5392440166" lon="14.4649362937"><ele>6.39</ele><time>2011-09-23T17:14:30Z</time></trkpt><trkpt lat="44.5392437652" lon="14.4649369642"><ele>5.91</ele><time>2011-09-23T17:15:11Z</time></trkpt><trkpt lat="44.5392432623" lon="14.4649383891"><ele>5.91</ele><time>2011-09-23T17:15:52Z</time></trkpt><trkpt lat="44.5392449386" lon="14.4649396464"><ele>5.42</ele><time>2011-09-23T17:16:29Z</time></trkpt><trkpt lat="44.5392471179" lon="14.4649380539"><ele>5.42</ele><time>2011-09-23T17:17:04Z</time></trkpt><trkpt lat="44.5392465312" lon="14.4649372995"><ele>4.94</ele><time>2011-09-23T17:17:38Z</time></trkpt><trkpt lat="44.5392478723" lon="14.4649386406"><ele>4.94</ele><time>2011-09-23T17:18:15Z</time></trkpt><trkpt lat="44.5392481238" lon="14.4649412390"><ele>4.94</ele><time>2011-09-23T17:18:51Z</time></trkpt><trkpt lat="44.5392469503" lon="14.4649404846"><ele>4.94</ele><time>2011-09-23T17:19:29Z</time></trkpt><trkpt lat="44.5392487105" lon="14.4649395626"><ele>4.94</ele><time>2011-09-23T17:20:05Z</time></trkpt><trkpt lat="44.5392532367" lon="14.4649367966"><ele>4.94</ele><time>2011-09-23T17:20:45Z</time></trkpt><trkpt lat="44.5392526500" lon="14.4649376348"><ele>4.94</ele><time>2011-09-23T17:21:23Z</time></trkpt><trkpt lat="44.5392544940" lon="14.4649353717"><ele>4.94</ele><time>2011-09-23T17:22:04Z</time></trkpt><trkpt lat="44.5392546616" lon="14.4649360422"><ele>4.94</ele><time>2011-09-23T17:22:43Z</time></trkpt><trkpt lat="44.5392570924" lon="14.4649371319"><ele>4.94</ele><time>2011-09-23T17:23:28Z</time></trkpt><trkpt lat="44.5392562542" lon="14.4649356231"><ele>4.94</ele><time>2011-09-23T17:24:07Z</time></trkpt><trkpt lat="44.5392555837" lon="14.4649322703"><ele>5.42</ele><time>2011-09-23T17:24:40Z</time></trkpt><trkpt lat="44.5392568409" lon="14.4649330247"><ele>5.42</ele><time>2011-09-23T17:25:23Z</time></trkpt><trkpt lat="44.5392549969" lon="14.4649344496"><ele>5.42</ele><time>2011-09-23T17:26:01Z</time></trkpt><trkpt lat="44.5392568409" lon="14.4649382215"><ele>5.42</ele><time>2011-09-23T17:26:41Z</time></trkpt><trkpt lat="44.5392601099" lon="14.4649399817"><ele>5.42</ele><time>2011-09-23T17:27:20Z</time></trkpt><trkpt lat="44.5392615348" lon="14.4649412390"><ele>5.42</ele><time>2011-09-23T17:28:01Z</time></trkpt><trkpt lat="44.5392612834" lon="14.4649408199"><ele>5.42</ele><time>2011-09-23T17:28:41Z</time></trkpt><trkpt lat="44.5392614510" lon="14.4649409037"><ele>5.42</ele><time>2011-09-23T17:29:22Z</time></trkpt><trkpt lat="44.5392614510" lon="14.4649404008"><ele>5.42</ele><time>2011-09-23T17:30:04Z</time></trkpt><trkpt lat="44.5392622892" lon="14.4649404846"><ele>5.42</ele><time>2011-09-23T17:30:41Z</time></trkpt><trkpt lat="44.5392624568" lon="14.4649393111"><ele>5.42</ele><time>2011-09-23T17:31:21Z</time></trkpt><trkpt lat="44.5392630436" lon="14.4649412390"><ele>5.42</ele><time>2011-09-23T17:32:01Z</time></trkpt><trkpt lat="44.5392634626" lon="14.4649426639"><ele>5.42</ele><time>2011-09-23T17:32:41Z</time></trkpt><trkpt lat="44.5392627921" lon="14.4649445917"><ele>5.42</ele><time>2011-09-23T17:33:28Z</time></trkpt><trkpt lat="44.5392635465" lon="14.4649448432"><ele>5.42</ele><time>2011-09-23T17:34:18Z</time></trkpt><trkpt lat="44.5392634626" lon="14.4649454299"><ele>5.42</ele><time>2011-09-23T17:35:03Z</time></trkpt><trkpt lat="44.5392604452" lon="14.4649478607"><ele>5.42</ele><time>2011-09-23T17:35:42Z</time></trkpt><trkpt lat="44.5392608643" lon="14.4649480283"><ele>5.42</ele><time>2011-09-23T17:36:23Z</time></trkpt><trkpt lat="44.5392601937" lon="14.4649466034"><ele>5.42</ele><time>2011-09-23T17:37:11Z</time></trkpt><trkpt lat="44.5392606966" lon="14.4649449270"><ele>5.42</ele><time>2011-09-23T17:37:52Z</time></trkpt><trkpt lat="44.5392591879" lon="14.4649423286"><ele>5.42</ele><time>2011-09-23T17:38:37Z</time></trkpt><trkpt lat="44.5392594393" lon="14.4649440888"><ele>5.42</ele><time>2011-09-23T17:39:23Z</time></trkpt><trkpt lat="44.5392570086" lon="14.4649338629"><ele>5.42</ele><time>2011-09-23T17:39:59Z</time></trkpt><trkpt lat="44.5392545778" lon="14.4649309292"><ele>5.42</ele><time>2011-09-23T17:40:40Z</time></trkpt><trkpt lat="44.5392514765" lon="14.4649280794"><ele>5.42</ele><time>2011-09-23T17:41:17Z</time></trkpt><trkpt lat="44.5392514765" lon="14.4649280794"><ele>5.42</ele><time>2011-09-23T17:41:52Z</time></trkpt><trkpt lat="44.5392523147" lon="14.4649318513"><ele>5.42</ele><time>2011-09-23T17:42:31Z</time></trkpt><trkpt lat="44.5392527338" lon="14.4649297558"><ele>5.42</ele><time>2011-09-23T17:43:12Z</time></trkpt><trkpt lat="44.5392514765" lon="14.4649268221"><ele>5.42</ele><time>2011-09-23T17:43:55Z</time></trkpt><trkpt lat="44.5392498001" lon="14.4649268221"><ele>5.42</ele><time>2011-09-23T17:44:35Z</time></trkpt><trkpt lat="44.5392498001" lon="14.4649268221"><ele>5.42</ele><time>2011-09-23T17:45:11Z</time></trkpt><trkpt lat="44.5392518118" lon="14.4649258163"><ele>5.42</ele><time>2011-09-23T17:45:49Z</time></trkpt><trkpt lat="44.5392523147" lon="14.4649231341"><ele>5.42</ele><time>2011-09-23T17:46:30Z</time></trkpt><trkpt lat="44.5392503869" lon="14.4649213739"><ele>5.42</ele><time>2011-09-23T17:47:11Z</time></trkpt><trkpt lat="44.5392453577" lon="14.4649305101"><ele>5.42</ele><time>2011-09-23T17:47:55Z</time></trkpt><trkpt lat="44.5392472018" lon="14.4649320189"><ele>5.42</ele><time>2011-09-23T17:48:38Z</time></trkpt><trkpt lat="44.5392475370" lon="14.4649312645"><ele>5.42</ele><time>2011-09-23T17:49:24Z</time></trkpt><trkpt lat="44.5392457768" lon="14.4649331085"><ele>5.42</ele><time>2011-09-23T17:50:04Z</time></trkpt><trkpt lat="44.5392467827" lon="14.4649357069"><ele>5.42</ele><time>2011-09-23T17:50:43Z</time></trkpt><trkpt lat="44.5392492134" lon="14.4649378024"><ele>5.42</ele><time>2011-09-23T17:51:23Z</time></trkpt><trkpt lat="44.5392503031" lon="14.4649397302"><ele>5.91</ele><time>2011-09-23T17:52:08Z</time></trkpt><trkpt lat="44.5392505545" lon="14.4649383891"><ele>5.91</ele><time>2011-09-23T17:52:48Z</time></trkpt><trkpt lat="44.5392513927" lon="14.4649379700"><ele>5.42</ele><time>2011-09-23T17:53:27Z</time></trkpt><trkpt lat="44.5392540749" lon="14.4649331085"><ele>5.42</ele><time>2011-09-23T17:54:07Z</time></trkpt><trkpt lat="44.5392549131" lon="14.4649327733"><ele>5.42</ele><time>2011-09-23T17:54:43Z</time></trkpt><trkpt lat="44.5392553322" lon="14.4649328571"><ele>4.94</ele><time>2011-09-23T17:55:20Z</time></trkpt><trkpt lat="44.5392566733" lon="14.4649331085"><ele>5.42</ele><time>2011-09-23T17:56:01Z</time></trkpt><trkpt lat="44.5392580982" lon="14.4649321865"><ele>5.42</ele><time>2011-09-23T17:56:35Z</time></trkpt><trkpt lat="44.5392613672" lon="14.4649336115"><ele>5.42</ele><time>2011-09-23T17:57:14Z</time></trkpt><trkpt lat="44.5392613672" lon="14.4649336115"><ele>5.42</ele><time>2011-09-23T17:57:48Z</time></trkpt><trkpt lat="44.5392634626" lon="14.4649353717"><ele>5.91</ele><time>2011-09-23T17:58:24Z</time></trkpt><trkpt lat="44.5392674860" lon="14.4649380539"><ele>5.91</ele><time>2011-09-23T17:59:01Z</time></trkpt><trkpt lat="44.5392655581" lon="14.4649404008"><ele>5.91</ele><time>2011-09-23T17:59:37Z</time></trkpt><trkpt lat="44.5392648876" lon="14.4649414066"><ele>5.42</ele><time>2011-09-23T18:00:14Z</time></trkpt><trkpt lat="44.5392641332" lon="14.4649409875"><ele>4.94</ele><time>2011-09-23T18:00:48Z</time></trkpt><trkpt lat="44.5392646361" lon="14.4649372995"><ele>4.46</ele><time>2011-09-23T18:01:22Z</time></trkpt><trkpt lat="44.5392633788" lon="14.4649351202"><ele>3.98</ele><time>2011-09-23T18:02:05Z</time></trkpt><trkpt lat="44.5392633788" lon="14.4649312645"><ele>3.98</ele><time>2011-09-23T18:02:41Z</time></trkpt><trkpt lat="44.5392632112" lon="14.4649284147"><ele>3.98</ele><time>2011-09-23T18:03:17Z</time></trkpt><trkpt lat="44.5392607804" lon="14.4649276603"><ele>3.98</ele><time>2011-09-23T18:03:55Z</time></trkpt><trkpt lat="44.5392607804" lon="14.4649276603"><ele>3.98</ele><time>2011-09-23T18:04:32Z</time></trkpt><trkpt lat="44.5392577630" lon="14.4649245590"><ele>3.50</ele><time>2011-09-23T18:05:13Z</time></trkpt><trkpt lat="44.5392577630" lon="14.4649245590"><ele>3.50</ele><time>2011-09-23T18:05:50Z</time></trkpt><trkpt lat="44.5392589364" lon="14.4649231341"><ele>3.98</ele><time>2011-09-23T18:06:29Z</time></trkpt><trkpt lat="44.5392585173" lon="14.4649221282"><ele>3.98</ele><time>2011-09-23T18:07:07Z</time></trkpt><trkpt lat="44.5392584335" lon="14.4649213739"><ele>3.98</ele><time>2011-09-23T18:07:43Z</time></trkpt><trkpt lat="44.5392580982" lon="14.4649202842"><ele>3.50</ele><time>2011-09-23T18:08:26Z</time></trkpt><trkpt lat="44.5392571762" lon="14.4649191946"><ele>3.50</ele><time>2011-09-23T18:09:03Z</time></trkpt><trkpt lat="44.5392599422" lon="14.4649214577"><ele>3.50</ele><time>2011-09-23T18:09:44Z</time></trkpt><trkpt lat="44.5392603613" lon="14.4649253134"><ele>3.50</ele><time>2011-09-23T18:10:22Z</time></trkpt><trkpt lat="44.5392610319" lon="14.4649269059"><ele>3.50</ele><time>2011-09-23T18:10:52Z</time></trkpt><trkpt lat="44.5392586850" lon="14.4649298396"><ele>3.50</ele><time>2011-09-23T18:11:30Z</time></trkpt><trkpt lat="44.5392523985" lon="14.4649363775"><ele>3.50</ele><time>2011-09-23T18:12:06Z</time></trkpt><trkpt lat="44.5392514765" lon="14.4649366289"><ele>3.02</ele><time>2011-09-23T18:12:38Z</time></trkpt><trkpt lat="44.5392487105" lon="14.4649397302"><ele>3.02</ele><time>2011-09-23T18:13:16Z</time></trkpt><trkpt lat="44.5392499678" lon="14.4649414904"><ele>3.02</ele><time>2011-09-23T18:13:53Z</time></trkpt><trkpt lat="44.5392499678" lon="14.4649414904"><ele>3.02</ele><time>2011-09-23T18:14:29Z</time></trkpt><trkpt lat="44.5392499678" lon="14.4649422448"><ele>2.54</ele><time>2011-09-23T18:15:07Z</time></trkpt><trkpt lat="44.5392441843" lon="14.4649476092"><ele>2.54</ele><time>2011-09-23T18:15:40Z</time></trkpt><trkpt lat="44.5392445195" lon="14.4649471063"><ele>2.54</ele><time>2011-09-23T18:16:19Z</time></trkpt><trkpt lat="44.5392462797" lon="14.4649455138"><ele>2.54</ele><time>2011-09-23T18:16:59Z</time></trkpt><trkpt lat="44.5392451901" lon="14.4649454299"><ele>2.54</ele><time>2011-09-23T18:17:36Z</time></trkpt><trkpt lat="44.5392441005" lon="14.4649445079"><ele>2.54</ele><time>2011-09-23T18:18:16Z</time></trkpt><trkpt lat="44.5392449386" lon="14.4649422448"><ele>2.06</ele><time>2011-09-23T18:18:55Z</time></trkpt><trkpt lat="44.5392439328" lon="14.4649466872"><ele>1.58</ele><time>2011-09-23T18:19:33Z</time></trkpt><trkpt lat="44.5392471179" lon="14.4649475254"><ele>1.10</ele><time>2011-09-23T18:20:10Z</time></trkpt><trkpt lat="44.5392426755" lon="14.4649492856"><ele>0.62</ele><time>2011-09-23T18:20:54Z</time></trkpt><trkpt lat="44.5392409991" lon="14.4649507944"><ele>0.14</ele><time>2011-09-23T18:21:33Z</time></trkpt><trkpt lat="44.5392427593" lon="14.4649504591"><ele>0.14</ele><time>2011-09-23T18:22:09Z</time></trkpt><trkpt lat="44.5392435975" lon="14.4649485312"><ele>0.14</ele><time>2011-09-23T18:22:45Z</time></trkpt><trkpt lat="44.5392484590" lon="14.4649434183"><ele>0.14</ele><time>2011-09-23T18:23:21Z</time></trkpt><trkpt lat="44.5392487943" lon="14.4649429154"><ele>0.14</ele><time>2011-09-23T18:23:57Z</time></trkpt><trkpt lat="44.5392487943" lon="14.4649429154"><ele>0.14</ele><time>2011-09-23T18:24:32Z</time></trkpt><trkpt lat="44.5392482076" lon="14.4649426639"><ele>0.14</ele><time>2011-09-23T18:25:06Z</time></trkpt><trkpt lat="44.5392470341" lon="14.4649404008"><ele>0.62</ele><time>2011-09-23T18:25:42Z</time></trkpt><trkpt lat="44.5392468665" lon="14.4649433345"><ele>1.10</ele><time>2011-09-23T18:26:20Z</time></trkpt><trkpt lat="44.5392484590" lon="14.4649469387"><ele>1.10</ele><time>2011-09-23T18:26:55Z</time></trkpt><trkpt lat="44.5392517280" lon="14.4649480283"><ele>0.62</ele><time>2011-09-23T18:27:30Z</time></trkpt><trkpt lat="44.5392534044" lon="14.4649473578"><ele>0.62</ele><time>2011-09-23T18:28:04Z</time></trkpt><trkpt lat="44.5392548293" lon="14.4649481960"><ele>0.62</ele><time>2011-09-23T18:28:36Z</time></trkpt><trkpt lat="44.5392548293" lon="14.4649481960"><ele>0.62</ele><time>2011-09-23T18:29:10Z</time></trkpt><trkpt lat="44.5392562542" lon="14.4649492856"><ele>0.62</ele><time>2011-09-23T18:29:42Z</time></trkpt><trkpt lat="44.5392570086" lon="14.4649486989"><ele>0.14</ele><time>2011-09-23T18:30:18Z</time></trkpt><trkpt lat="44.5392575953" lon="14.4649475254"><ele>0.14</ele><time>2011-09-23T18:30:52Z</time></trkpt><trkpt lat="44.5392586011" lon="14.4649475254"><ele>0.14</ele><time>2011-09-23T18:31:32Z</time></trkpt><trkpt lat="44.5392575953" lon="14.4649486989"><ele>0.14</ele><time>2011-09-23T18:32:06Z</time></trkpt><trkpt lat="44.5392591041" lon="14.4649471901"><ele>0.14</ele><time>2011-09-23T18:32:49Z</time></trkpt><trkpt lat="44.5392600261" lon="14.4649492018"><ele>-0.34</ele><time>2011-09-23T18:33:26Z</time></trkpt><trkpt lat="44.5392601099" lon="14.4649471063"><ele>-0.34</ele><time>2011-09-23T18:34:03Z</time></trkpt><trkpt lat="44.5392598584" lon="14.4649472740"><ele>-0.34</ele><time>2011-09-23T18:34:39Z</time></trkpt><trkpt lat="44.5392596908" lon="14.4649482798"><ele>-0.34</ele><time>2011-09-23T18:35:14Z</time></trkpt><trkpt lat="44.5392596908" lon="14.4649482798"><ele>-0.34</ele><time>2011-09-23T18:35:50Z</time></trkpt><trkpt lat="44.5392592717" lon="14.4649519678"><ele>-0.34</ele><time>2011-09-23T18:36:26Z</time></trkpt><trkpt lat="44.5392598584" lon="14.4649497047"><ele>-0.34</ele><time>2011-09-23T18:37:03Z</time></trkpt><trkpt lat="44.5392552484" lon="14.4649508782"><ele>-0.82</ele><time>2011-09-23T18:37:38Z</time></trkpt><trkpt lat="44.5392549131" lon="14.4649508782"><ele>-0.82</ele><time>2011-09-23T18:38:13Z</time></trkpt><trkpt lat="44.5392578468" lon="14.4649523869"><ele>-0.34</ele><time>2011-09-23T18:38:55Z</time></trkpt><trkpt lat="44.5392571762" lon="14.4649564102"><ele>-0.34</ele><time>2011-09-23T18:39:33Z</time></trkpt><trkpt lat="44.5392597746" lon="14.4649537280"><ele>-0.34</ele><time>2011-09-23T18:40:08Z</time></trkpt><trkpt lat="44.5392632112" lon="14.4649611041"><ele>-0.34</ele><time>2011-09-23T18:40:43Z</time></trkpt><trkpt lat="44.5392653905" lon="14.4649632834"><ele>-0.34</ele><time>2011-09-23T18:41:16Z</time></trkpt><trkpt lat="44.5392627921" lon="14.4649608526"><ele>0.14</ele><time>2011-09-23T18:41:54Z</time></trkpt><trkpt lat="44.5392627921" lon="14.4649608526"><ele>0.14</ele><time>2011-09-23T18:42:30Z</time></trkpt><trkpt lat="44.5392641332" lon="14.4649620261"><ele>0.14</ele><time>2011-09-23T18:43:08Z</time></trkpt><trkpt lat="44.5392633788" lon="14.4649583381"><ele>0.14</ele><time>2011-09-23T18:43:42Z</time></trkpt><trkpt lat="44.5392620377" lon="14.4649592601"><ele>0.14</ele><time>2011-09-23T18:44:18Z</time></trkpt><trkpt lat="44.5392625406" lon="14.4649605174"><ele>0.62</ele><time>2011-09-23T18:44:50Z</time></trkpt><trkpt lat="44.5392647199" lon="14.4649583381"><ele>0.14</ele><time>2011-09-23T18:45:24Z</time></trkpt><trkpt lat="44.5392659772" lon="14.4649587572"><ele>-0.34</ele><time>2011-09-23T18:45:58Z</time></trkpt><trkpt lat="44.5392668154" lon="14.4649581704"><ele>-0.34</ele><time>2011-09-23T18:46:35Z</time></trkpt><trkpt lat="44.5392668154" lon="14.4649581704"><ele>-0.34</ele><time>2011-09-23T18:47:09Z</time></trkpt><trkpt lat="44.5392681565" lon="14.4649596792"><ele>-0.82</ele><time>2011-09-23T18:47:40Z</time></trkpt><trkpt lat="44.5392697491" lon="14.4649600144"><ele>-1.30</ele><time>2011-09-23T18:48:11Z</time></trkpt><trkpt lat="44.5392719284" lon="14.4649678096"><ele>-2.27</ele><time>2011-09-23T18:48:45Z</time></trkpt><trkpt lat="44.5392729342" lon="14.4649668038"><ele>-2.75</ele><time>2011-09-23T18:49:19Z</time></trkpt><trkpt lat="44.5392729342" lon="14.4649668038"><ele>-2.75</ele><time>2011-09-23T18:49:52Z</time></trkpt><trkpt lat="44.5392724313" lon="14.4649683125"><ele>-3.71</ele><time>2011-09-23T18:50:26Z</time></trkpt><trkpt lat="44.5392688271" lon="14.4649724197"><ele>-3.23</ele><time>2011-09-23T18:51:03Z</time></trkpt><trkpt lat="44.5392705873" lon="14.4649709109"><ele>-3.71</ele><time>2011-09-23T18:51:33Z</time></trkpt><trkpt lat="44.5392681565" lon="14.4649714977"><ele>-3.71</ele><time>2011-09-23T18:52:08Z</time></trkpt><trkpt lat="44.5392679051" lon="14.4649723358"><ele>-3.71</ele><time>2011-09-23T18:52:43Z</time></trkpt><trkpt lat="44.5392676536" lon="14.4649764430"><ele>-5.15</ele><time>2011-09-23T18:53:16Z</time></trkpt><trkpt lat="44.5392676536" lon="14.4649764430"><ele>-5.15</ele><time>2011-09-23T18:53:50Z</time></trkpt><trkpt lat="44.5392675698" lon="14.4649766106"><ele>-5.15</ele><time>2011-09-23T18:54:23Z</time></trkpt><trkpt lat="44.5392694976" lon="14.4649707433"><ele>-5.15</ele><time>2011-09-23T18:54:53Z</time></trkpt><trkpt lat="44.5392707549" lon="14.4649677258"><ele>-5.15</ele><time>2011-09-23T18:55:26Z</time></trkpt><trkpt lat="44.5392720122" lon="14.4649628643"><ele>-5.15</ele><time>2011-09-23T18:55:59Z</time></trkpt><trkpt lat="44.5392743591" lon="14.4649609365"><ele>-5.63</ele><time>2011-09-23T18:56:38Z</time></trkpt><trkpt lat="44.5392762870" lon="14.4649572484"><ele>-5.63</ele><time>2011-09-23T18:57:18Z</time></trkpt><trkpt lat="44.5392797235" lon="14.4649492856"><ele>-5.63</ele><time>2011-09-23T18:57:53Z</time></trkpt><trkpt lat="44.5392797235" lon="14.4649492856"><ele>-5.63</ele><time>2011-09-23T18:58:30Z</time></trkpt><trkpt lat="44.5392793044" lon="14.4649481960"><ele>-6.11</ele><time>2011-09-23T18:59:02Z</time></trkpt><trkpt lat="44.5392802265" lon="14.4649580866"><ele>-6.59</ele><time>2011-09-23T18:59:37Z</time></trkpt><trkpt lat="44.5392755326" lon="14.4649600144"><ele>-7.55</ele><time>2011-09-23T19:00:14Z</time></trkpt><trkpt lat="44.5392730180" lon="14.4649581704"><ele>-7.55</ele><time>2011-09-23T19:00:43Z</time></trkpt><trkpt lat="44.5392718446" lon="14.4649593439"><ele>-8.03</ele><time>2011-09-23T19:01:23Z</time></trkpt><trkpt lat="44.5392715093" lon="14.4649605174"><ele>-7.55</ele><time>2011-09-23T19:01:53Z</time></trkpt><trkpt lat="44.5392715093" lon="14.4649605174"><ele>-7.55</ele><time>2011-09-23T19:02:28Z</time></trkpt><trkpt lat="44.5392738562" lon="14.4649603497"><ele>-7.55</ele><time>2011-09-23T19:02:58Z</time></trkpt><trkpt lat="44.5392757840" lon="14.4649613556"><ele>-6.59</ele><time>2011-09-23T19:03:33Z</time></trkpt><trkpt lat="44.5392730180" lon="14.4649627805"><ele>-6.59</ele><time>2011-09-23T19:04:08Z</time></trkpt><trkpt lat="44.5392722636" lon="14.4649623614"><ele>-6.11</ele><time>2011-09-23T19:04:44Z</time></trkpt><trkpt lat="44.5392663963" lon="14.4649641216"><ele>-5.15</ele><time>2011-09-23T19:05:19Z</time></trkpt><trkpt lat="44.5392575953" lon="14.4649644569"><ele>-4.19</ele><time>2011-09-23T19:05:56Z</time></trkpt><trkpt lat="44.5392513927" lon="14.4649663847"><ele>-3.71</ele><time>2011-09-23T19:06:40Z</time></trkpt><trkpt lat="44.5392477885" lon="14.4649648760"><ele>-2.75</ele><time>2011-09-23T19:07:23Z</time></trkpt><trkpt lat="44.5392467827" lon="14.4649663009"><ele>-3.23</ele><time>2011-09-23T19:07:58Z</time></trkpt><trkpt lat="44.5392445195" lon="14.4649663009"><ele>-3.23</ele><time>2011-09-23T19:08:35Z</time></trkpt><trkpt lat="44.5392445195" lon="14.4649663009"><ele>-3.23</ele><time>2011-09-23T19:09:07Z</time></trkpt><trkpt lat="44.5392435975" lon="14.4649690669"><ele>-3.23</ele><time>2011-09-23T19:09:45Z</time></trkpt><trkpt lat="44.5392425917" lon="14.4649714138"><ele>-3.23</ele><time>2011-09-23T19:10:18Z</time></trkpt><trkpt lat="44.5392415021" lon="14.4649722520"><ele>-3.23</ele><time>2011-09-23T19:10:56Z</time></trkpt><trkpt lat="44.5392445195" lon="14.4649699051"><ele>-3.23</ele><time>2011-09-23T19:11:32Z</time></trkpt><trkpt lat="44.5392492972" lon="14.4649694860"><ele>-2.75</ele><time>2011-09-23T19:12:01Z</time></trkpt><trkpt lat="44.5392539911" lon="14.4649649598"><ele>-1.79</ele><time>2011-09-23T19:12:33Z</time></trkpt><trkpt lat="44.5392539911" lon="14.4649649598"><ele>-1.79</ele><time>2011-09-23T19:13:03Z</time></trkpt><trkpt lat="44.5392582659" lon="14.4649642054"><ele>-1.30</ele><time>2011-09-23T19:13:37Z</time></trkpt><trkpt lat="44.5392622892" lon="14.4649612717"><ele>-0.82</ele><time>2011-09-23T19:13:38Z</time></trkpt><trkpt lat="44.5393684041" lon="14.4649335276"><ele>1.58</ele><time>2011-09-23T19:13:42Z</time></trkpt><trkpt lat="44.5400717296" lon="14.4649839867"><ele>3.98</ele><time>2011-09-23T19:13:56Z</time></trkpt><trkpt lat="44.5409095846" lon="14.4655777607"><ele>7.35</ele><time>2011-09-23T19:14:07Z</time></trkpt><trkpt lat="44.5409858599" lon="14.4655921776"><ele>7.83</ele><time>2011-09-23T19:14:08Z</time></trkpt><trkpt lat="44.5412736107" lon="14.4655282237"><ele>9.27</ele><time>2011-09-23T19:14:12Z</time></trkpt><trkpt lat="44.5414622873" lon="14.4656274654"><ele>8.79</ele><time>2011-09-23T19:14:19Z</time></trkpt><trkpt lat="44.5414866786" lon="14.4656599872"><ele>8.79</ele><time>2011-09-23T19:14:20Z</time></trkpt><trkpt lat="44.5417051110" lon="14.4656472467"><ele>9.27</ele><time>2011-09-23T19:14:24Z</time></trkpt><trkpt lat="44.5426401962" lon="14.4648422487"><ele>8.79</ele><time>2011-09-23T19:14:34Z</time></trkpt><trkpt lat="44.5436901134" lon="14.4634293951"><ele>9.27</ele><time>2011-09-23T19:14:44Z</time></trkpt><trkpt lat="44.5443905890" lon="14.4624599442"><ele>11.19</ele><time>2011-09-23T19:14:51Z</time></trkpt><trkpt lat="44.5447992068" lon="14.4611064345"><ele>12.15</ele><time>2011-09-23T19:14:59Z</time></trkpt><trkpt lat="44.5451270230" lon="14.4598830957"><ele>9.27</ele><time>2011-09-23T19:15:08Z</time></trkpt><trkpt lat="44.5453128498" lon="14.4586854056"><ele>9.27</ele><time>2011-09-23T19:15:15Z</time></trkpt><trkpt lat="44.5453395881" lon="14.4573254418"><ele>10.71</ele><time>2011-09-23T19:15:23Z</time></trkpt><trkpt lat="44.5454157796" lon="14.4568339270"><ele>11.19</ele><time>2011-09-23T19:15:26Z</time></trkpt><trkpt lat="44.5459964778" lon="14.4555166271"><ele>10.71</ele><time>2011-09-23T19:15:34Z</time></trkpt><trkpt lat="44.5464801136" lon="14.4546419755"><ele>7.35</ele><time>2011-09-23T19:15:41Z</time></trkpt><trkpt lat="44.5464722347" lon="14.4542860799"><ele>2.54</ele><time>2011-09-23T19:15:48Z</time></trkpt><trkpt lat="44.5463334303" lon="14.4543967210"><ele>0.62</ele><time>2011-09-23T19:15:51Z</time></trkpt><trkpt lat="44.5462551434" lon="14.4544994831"><ele>0.14</ele><time>2011-09-23T19:15:53Z</time></trkpt><trkpt lat="44.5462031756" lon="14.4546489324"><ele>2.06</ele><time>2011-09-23T19:16:05Z</time></trkpt><trkpt lat="44.5462031756" lon="14.4546489324"><ele>2.06</ele><time>2011-09-23T19:16:35Z</time></trkpt><trkpt lat="44.5461932849" lon="14.4546692166"><ele>1.58</ele><time>2011-09-23T19:17:05Z</time></trkpt><trkpt lat="44.5461886749" lon="14.4546806999"><ele>2.06</ele><time>2011-09-23T19:17:35Z</time></trkpt><trkpt lat="44.5461815502" lon="14.4546844717"><ele>2.06</ele><time>2011-09-23T19:18:05Z</time></trkpt><trkpt lat="44.5461815502" lon="14.4546844717"><ele>2.06</ele><time>2011-09-23T19:18:36Z</time></trkpt><trkpt lat="44.5461815502" lon="14.4546844717"><ele>2.06</ele><time>2011-09-23T19:18:37Z</time></trkpt><trkpt lat="44.5461740065" lon="14.4546981342"><ele>2.06</ele><time>2011-09-23T19:19:07Z</time></trkpt><trkpt lat="44.5461659599" lon="14.4547013193"><ele>1.10</ele><time>2011-09-23T19:19:40Z</time></trkpt><trkpt lat="44.5461640321" lon="14.4547018223"><ele>1.10</ele><time>2011-09-23T19:20:14Z</time></trkpt><trkpt lat="44.5461616851" lon="14.4547055941"><ele>0.62</ele><time>2011-09-23T19:20:46Z</time></trkpt><trkpt lat="44.5461582486" lon="14.4547063485"><ele>1.10</ele><time>2011-09-23T19:21:19Z</time></trkpt><trkpt lat="44.5461582486" lon="14.4547063485"><ele>1.10</ele><time>2011-09-23T19:21:51Z</time></trkpt><trkpt lat="44.5461586677" lon="14.4547081087"><ele>1.58</ele><time>2011-09-23T19:22:25Z</time></trkpt><trkpt lat="44.5461546443" lon="14.4547090307"><ele>1.58</ele><time>2011-09-23T19:23:01Z</time></trkpt><trkpt lat="44.5461517945" lon="14.4547119644"><ele>1.58</ele><time>2011-09-23T19:23:37Z</time></trkpt><trkpt lat="44.5461512078" lon="14.4547123834"><ele>2.06</ele><time>2011-09-23T19:24:13Z</time></trkpt><trkpt lat="44.5461538061" lon="14.4547129702"><ele>2.06</ele><time>2011-09-23T19:24:50Z</time></trkpt><trkpt lat="44.5461492799" lon="14.4547131378"><ele>1.58</ele><time>2011-09-23T19:25:24Z</time></trkpt><trkpt lat="44.5461492799" lon="14.4547131378"><ele>1.58</ele><time>2011-09-23T19:25:56Z</time></trkpt><trkpt lat="44.5461476035" lon="14.4547174964"><ele>1.58</ele><time>2011-09-23T19:26:29Z</time></trkpt><trkpt lat="44.5461448375" lon="14.4547162391"><ele>2.06</ele><time>2011-09-23T19:27:03Z</time></trkpt><trkpt lat="44.5461431611" lon="14.4547148142"><ele>2.06</ele><time>2011-09-23T19:27:40Z</time></trkpt><trkpt lat="44.5461424068" lon="14.4547132216"><ele>2.06</ele><time>2011-09-23T19:28:14Z</time></trkpt><trkpt lat="44.5461417362" lon="14.4547116291"><ele>2.54</ele><time>2011-09-23T19:28:48Z</time></trkpt><trkpt lat="44.5461334381" lon="14.4547116291"><ele>3.02</ele><time>2011-09-23T19:29:26Z</time></trkpt><trkpt lat="44.5461256430" lon="14.4547133893"><ele>3.02</ele><time>2011-09-23T19:29:58Z</time></trkpt><trkpt lat="44.5461256430" lon="14.4547133893"><ele>3.02</ele><time>2011-09-23T19:30:29Z</time></trkpt><trkpt lat="44.5461264811" lon="14.4547129702"><ele>3.50</ele><time>2011-09-23T19:31:03Z</time></trkpt><trkpt lat="44.5461259782" lon="14.4547143951"><ele>3.50</ele><time>2011-09-23T19:31:40Z</time></trkpt><trkpt lat="44.5461300854" lon="14.4547072705"><ele>3.50</ele><time>2011-09-23T19:32:15Z</time></trkpt><trkpt lat="44.5461291634" lon="14.4547119644"><ele>3.98</ele><time>2011-09-23T19:32:45Z</time></trkpt><trkpt lat="44.5461290795" lon="14.4547143113"><ele>3.98</ele><time>2011-09-23T19:33:18Z</time></trkpt><trkpt lat="44.5461290795" lon="14.4547143113"><ele>3.98</ele><time>2011-09-23T19:33:53Z</time></trkpt><trkpt lat="44.5461325161" lon="14.4547190890"><ele>3.98</ele><time>2011-09-23T19:34:30Z</time></trkpt><trkpt lat="44.5461309236" lon="14.4547202624"><ele>3.98</ele><time>2011-09-23T19:35:05Z</time></trkpt><trkpt lat="44.5461326838" lon="14.4547242858"><ele>3.50</ele><time>2011-09-23T19:35:38Z</time></trkpt><trkpt lat="44.5461340249" lon="14.4547277223"><ele>2.54</ele><time>2011-09-23T19:36:13Z</time></trkpt><trkpt lat="44.5461390540" lon="14.4547247048"><ele>2.54</ele><time>2011-09-23T19:36:44Z</time></trkpt><trkpt lat="44.5461428259" lon="14.4547283929"><ele>2.06</ele><time>2011-09-23T19:37:19Z</time></trkpt><trkpt lat="44.5461428259" lon="14.4547283929"><ele>2.06</ele><time>2011-09-23T19:37:51Z</time></trkpt><trkpt lat="44.5461468492" lon="14.4547288958"><ele>2.54</ele><time>2011-09-23T19:38:28Z</time></trkpt><trkpt lat="44.5461456757" lon="14.4547272194"><ele>2.54</ele><time>2011-09-23T19:39:06Z</time></trkpt><trkpt lat="44.5461446699" lon="14.4547340926"><ele>3.02</ele><time>2011-09-23T19:39:35Z</time></trkpt><trkpt lat="44.5461394731" lon="14.4547367748"><ele>3.02</ele><time>2011-09-23T19:40:09Z</time></trkpt><trkpt lat="44.5461380482" lon="14.4547356013"><ele>3.02</ele><time>2011-09-23T19:40:48Z</time></trkpt><trkpt lat="44.5461389702" lon="14.4547336735"><ele>3.02</ele><time>2011-09-23T19:41:21Z</time></trkpt><trkpt lat="44.5461373776" lon="14.4547337573"><ele>2.54</ele><time>2011-09-23T19:41:58Z</time></trkpt><trkpt lat="44.5461373776" lon="14.4547337573"><ele>2.54</ele><time>2011-09-23T19:42:37Z</time></trkpt><trkpt lat="44.5461390540" lon="14.4547343440"><ele>2.54</ele><time>2011-09-23T19:43:11Z</time></trkpt><trkpt lat="44.5461366232" lon="14.4547319133"><ele>2.54</ele><time>2011-09-23T19:43:46Z</time></trkpt><trkpt lat="44.5461336896" lon="14.4547309913"><ele>2.54</ele><time>2011-09-23T19:44:20Z</time></trkpt><trkpt lat="44.5461276546" lon="14.4547327515"><ele>2.54</ele><time>2011-09-23T19:44:59Z</time></trkpt><trkpt lat="44.5461280737" lon="14.4547298178"><ele>2.06</ele><time>2011-09-23T19:45:38Z</time></trkpt><trkpt lat="44.5461287443" lon="14.4547335058"><ele>2.54</ele><time>2011-09-23T19:46:23Z</time></trkpt><trkpt lat="44.5461232960" lon="14.4547298178"><ele>2.54</ele><time>2011-09-23T19:47:01Z</time></trkpt><trkpt lat="44.5461229607" lon="14.4547278900"><ele>2.06</ele><time>2011-09-23T19:47:39Z</time></trkpt><trkpt lat="44.5461253915" lon="14.4547278900"><ele>1.58</ele><time>2011-09-23T19:48:21Z</time></trkpt><trkpt lat="44.5461264811" lon="14.4547247887"><ele>1.58</ele><time>2011-09-23T19:48:59Z</time></trkpt><trkpt lat="44.5461250562" lon="14.4547227770"><ele>1.58</ele><time>2011-09-23T19:49:37Z</time></trkpt><trkpt lat="44.5461227931" lon="14.4547211006"><ele>2.06</ele><time>2011-09-23T19:50:14Z</time></trkpt><trkpt lat="44.5461209491" lon="14.4547231961"><ele>1.58</ele><time>2011-09-23T19:50:54Z</time></trkpt><trkpt lat="44.5461217873" lon="14.4547215197"><ele>2.06</ele><time>2011-09-23T19:51:27Z</time></trkpt><trkpt lat="44.5461227093" lon="14.4547134731"><ele>1.58</ele><time>2011-09-23T19:52:02Z</time></trkpt><trkpt lat="44.5461231284" lon="14.4547123834"><ele>0.62</ele><time>2011-09-23T19:52:38Z</time></trkpt><trkpt lat="44.5461231284" lon="14.4547123834"><ele>0.62</ele><time>2011-09-23T19:53:12Z</time></trkpt><trkpt lat="44.5461239666" lon="14.4547091983"><ele>0.14</ele><time>2011-09-23T19:53:45Z</time></trkpt><trkpt lat="44.5461232122" lon="14.4547073543"><ele>0.14</ele><time>2011-09-23T19:54:19Z</time></trkpt><trkpt lat="44.5461311750" lon="14.4547060132"><ele>-0.34</ele><time>2011-09-23T19:54:55Z</time></trkpt><trkpt lat="44.5461302530" lon="14.4547069352"><ele>-0.34</ele><time>2011-09-23T19:55:32Z</time></trkpt><trkpt lat="44.5461295824" lon="14.4547108747"><ele>-0.82</ele><time>2011-09-23T19:56:07Z</time></trkpt><trkpt lat="44.5461327676" lon="14.4547100365"><ele>-0.82</ele><time>2011-09-23T19:56:38Z</time></trkpt><trkpt lat="44.5461327676" lon="14.4547100365"><ele>-0.82</ele><time>2011-09-23T19:57:14Z</time></trkpt><trkpt lat="44.5461339410" lon="14.4547129702"><ele>-0.82</ele><time>2011-09-23T19:57:46Z</time></trkpt><trkpt lat="44.5461366232" lon="14.4547189213"><ele>-1.30</ele><time>2011-09-23T19:58:26Z</time></trkpt><trkpt lat="44.5461362042" lon="14.4547164906"><ele>-0.82</ele><time>2011-09-23T19:59:00Z</time></trkpt><trkpt lat="44.5461320132" lon="14.4547148142"><ele>-0.82</ele><time>2011-09-23T19:59:34Z</time></trkpt><trkpt lat="44.5461246371" lon="14.4547142275"><ele>-0.82</ele><time>2011-09-23T20:00:14Z</time></trkpt><trkpt lat="44.5461225417" lon="14.4547143951"><ele>-0.34</ele><time>2011-09-23T20:00:56Z</time></trkpt><trkpt lat="44.5461206138" lon="14.4547096174"><ele>0.14</ele><time>2011-09-23T20:01:33Z</time></trkpt><trkpt lat="44.5461221226" lon="14.4547101203"><ele>0.62</ele><time>2011-09-23T20:02:10Z</time></trkpt><trkpt lat="44.5461186860" lon="14.4547128025"><ele>1.10</ele><time>2011-09-23T20:02:44Z</time></trkpt><trkpt lat="44.5461186860" lon="14.4547128025"><ele>1.10</ele><time>2011-09-23T20:03:15Z</time></trkpt><trkpt lat="44.5461221226" lon="14.4547090307"><ele>1.58</ele><time>2011-09-23T20:03:50Z</time></trkpt><trkpt lat="44.5461238828" lon="14.4547078572"><ele>2.06</ele><time>2011-09-23T20:04:31Z</time></trkpt><trkpt lat="44.5461243857" lon="14.4547065999"><ele>2.06</ele><time>2011-09-23T20:05:12Z</time></trkpt><trkpt lat="44.5461253077" lon="14.4547060132"><ele>2.06</ele><time>2011-09-23T20:05:46Z</time></trkpt><trkpt lat="44.5461249724" lon="14.4547062647"><ele>2.54</ele><time>2011-09-23T20:06:21Z</time></trkpt><trkpt lat="44.5461248886" lon="14.4547028281"><ele>3.02</ele><time>2011-09-23T20:06:59Z</time></trkpt><trkpt lat="44.5461271517" lon="14.4546971284"><ele>3.02</ele><time>2011-09-23T20:07:35Z</time></trkpt><trkpt lat="44.5461251400" lon="14.4546956196"><ele>3.02</ele><time>2011-09-23T20:08:10Z</time></trkpt><trkpt lat="44.5461238828" lon="14.4546987209"><ele>3.50</ele><time>2011-09-23T20:08:49Z</time></trkpt><trkpt lat="44.5461202785" lon="14.4547024928"><ele>3.50</ele><time>2011-09-23T20:09:26Z</time></trkpt><trkpt lat="44.5461170096" lon="14.4547057617"><ele>3.50</ele><time>2011-09-23T20:10:03Z</time></trkpt><trkpt lat="44.5461190213" lon="14.4547129702"><ele>3.50</ele><time>2011-09-23T20:10:41Z</time></trkpt><trkpt lat="44.5461210329" lon="14.4547119644"><ele>3.98</ele><time>2011-09-23T20:11:20Z</time></trkpt><trkpt lat="44.5461210329" lon="14.4547119644"><ele>3.98</ele><time>2011-09-23T20:11:57Z</time></trkpt><trkpt lat="44.5461228769" lon="14.4547131378"><ele>3.50</ele><time>2011-09-23T20:12:36Z</time></trkpt><trkpt lat="44.5461206976" lon="14.4547189213"><ele>3.98</ele><time>2011-09-23T20:13:12Z</time></trkpt><trkpt lat="44.5461201947" lon="14.4547190890"><ele>3.98</ele><time>2011-09-23T20:13:51Z</time></trkpt><trkpt lat="44.5461237151" lon="14.4547295664"><ele>3.50</ele><time>2011-09-23T20:14:30Z</time></trkpt><trkpt lat="44.5461247209" lon="14.4547303207"><ele>3.98</ele><time>2011-09-23T20:15:07Z</time></trkpt><trkpt lat="44.5461248886" lon="14.4547328353"><ele>3.50</ele><time>2011-09-23T20:15:41Z</time></trkpt><trkpt lat="44.5461237989" lon="14.4547292311"><ele>3.98</ele><time>2011-09-23T20:16:18Z</time></trkpt><trkpt lat="44.5461263973" lon="14.4547272194"><ele>3.98</ele><time>2011-09-23T20:16:54Z</time></trkpt><trkpt lat="44.5461277384" lon="14.4547267165"><ele>3.98</ele><time>2011-09-23T20:17:29Z</time></trkpt><trkpt lat="44.5461254753" lon="14.4547277223"><ele>3.98</ele><time>2011-09-23T20:18:04Z</time></trkpt><trkpt lat="44.5461283252" lon="14.4547293987"><ele>4.46</ele><time>2011-09-23T20:18:40Z</time></trkpt><trkpt lat="44.5461279061" lon="14.4547319133"><ele>4.46</ele><time>2011-09-23T20:19:20Z</time></trkpt><trkpt lat="44.5461300015" lon="14.4547288958"><ele>3.98</ele><time>2011-09-23T20:19:58Z</time></trkpt><trkpt lat="44.5461300015" lon="14.4547288958"><ele>3.98</ele><time>2011-09-23T20:20:34Z</time></trkpt><trkpt lat="44.5461304206" lon="14.4547271356"><ele>4.46</ele><time>2011-09-23T20:21:09Z</time></trkpt><trkpt lat="44.5461297501" lon="14.4547291473"><ele>4.46</ele><time>2011-09-23T20:21:45Z</time></trkpt><trkpt lat="44.5461374614" lon="14.4547329191"><ele>4.46</ele><time>2011-09-23T20:22:21Z</time></trkpt><trkpt lat="44.5461389702" lon="14.4547321647"><ele>4.46</ele><time>2011-09-23T20:22:56Z</time></trkpt><trkpt lat="44.5461398084" lon="14.4547330029"><ele>4.46</ele><time>2011-09-23T20:23:37Z</time></trkpt><trkpt lat="44.5461407304" lon="14.4547336735"><ele>4.46</ele><time>2011-09-23T20:24:12Z</time></trkpt><trkpt lat="44.5461427420" lon="14.4547332544"><ele>3.98</ele><time>2011-09-23T20:24:51Z</time></trkpt><trkpt lat="44.5461454242" lon="14.4547334220"><ele>3.98</ele><time>2011-09-23T20:25:25Z</time></trkpt><trkpt lat="44.5461448375" lon="14.4547371939"><ele>3.98</ele><time>2011-09-23T20:26:00Z</time></trkpt><trkpt lat="44.5461457595" lon="14.4547402952"><ele>3.98</ele><time>2011-09-23T20:26:38Z</time></trkpt><trkpt lat="44.5461457595" lon="14.4547402952"><ele>3.98</ele><time>2011-09-23T20:27:14Z</time></trkpt><trkpt lat="44.5461421553" lon="14.4547407143"><ele>3.98</ele><time>2011-09-23T20:27:50Z</time></trkpt><trkpt lat="44.5461430773" lon="14.4547363557"><ele>3.50</ele><time>2011-09-23T20:28:24Z</time></trkpt><trkpt lat="44.5461451728" lon="14.4547330029"><ele>3.50</ele><time>2011-09-23T20:28:58Z</time></trkpt><trkpt lat="44.5461467654" lon="14.4547303207"><ele>3.50</ele><time>2011-09-23T20:29:35Z</time></trkpt><trkpt lat="44.5461455081" lon="14.4547253754"><ele>3.02</ele><time>2011-09-23T20:30:09Z</time></trkpt><trkpt lat="44.5461431611" lon="14.4547220226"><ele>3.02</ele><time>2011-09-23T20:30:48Z</time></trkpt><trkpt lat="44.5461470168" lon="14.4547231961"><ele>2.54</ele><time>2011-09-23T20:31:22Z</time></trkpt><trkpt lat="44.5461450052" lon="14.4547233637"><ele>2.54</ele><time>2011-09-23T20:32:03Z</time></trkpt><trkpt lat="44.5461450052" lon="14.4547233637"><ele>2.54</ele><time>2011-09-23T20:32:35Z</time></trkpt><trkpt lat="44.5461445022" lon="14.4547251239"><ele>2.06</ele><time>2011-09-23T20:33:13Z</time></trkpt><trkpt lat="44.5461452566" lon="14.4547247887"><ele>2.06</ele><time>2011-09-23T20:33:51Z</time></trkpt><trkpt lat="44.5461473521" lon="14.4547230285"><ele>2.06</ele><time>2011-09-23T20:34:24Z</time></trkpt><trkpt lat="44.5461494476" lon="14.4547257945"><ele>1.58</ele><time>2011-09-23T20:35:02Z</time></trkpt><trkpt lat="44.5461508725" lon="14.4547226932"><ele>1.10</ele><time>2011-09-23T20:35:36Z</time></trkpt><trkpt lat="44.5461492799" lon="14.4547197595"><ele>1.10</ele><time>2011-09-23T20:36:13Z</time></trkpt><trkpt lat="44.5461492799" lon="14.4547177479"><ele>1.10</ele><time>2011-09-23T20:36:48Z</time></trkpt><trkpt lat="44.5461520460" lon="14.4547198433"><ele>0.62</ele><time>2011-09-23T20:37:19Z</time></trkpt><trkpt lat="44.5461520460" lon="14.4547198433"><ele>0.62</ele><time>2011-09-23T20:37:54Z</time></trkpt><trkpt lat="44.5461524650" lon="14.4547195919"><ele>0.62</ele><time>2011-09-23T20:38:29Z</time></trkpt><trkpt lat="44.5461530518" lon="14.4547200948"><ele>0.62</ele><time>2011-09-23T20:38:59Z</time></trkpt><trkpt lat="44.5461498667" lon="14.4547195919"><ele>0.62</ele><time>2011-09-23T20:39:38Z</time></trkpt><trkpt lat="44.5461455919" lon="14.4547189213"><ele>0.62</ele><time>2011-09-23T20:40:14Z</time></trkpt><trkpt lat="44.5461451728" lon="14.4547190890"><ele>0.14</ele><time>2011-09-23T20:40:48Z</time></trkpt><trkpt lat="44.5461452566" lon="14.4547190890"><ele>0.14</ele><time>2011-09-23T20:41:20Z</time></trkpt><trkpt lat="44.5461452566" lon="14.4547190890"><ele>0.14</ele><time>2011-09-23T20:41:56Z</time></trkpt><trkpt lat="44.5461405627" lon="14.4547140598"><ele>-0.34</ele><time>2011-09-23T20:42:27Z</time></trkpt><trkpt lat="44.5461421553" lon="14.4547218550"><ele>-0.34</ele><time>2011-09-23T20:42:59Z</time></trkpt><trkpt lat="44.5461358689" lon="14.4547286443"><ele>-1.30</ele><time>2011-09-23T20:43:32Z</time></trkpt><trkpt lat="44.5461382996" lon="14.4547387864"><ele>-1.79</ele><time>2011-09-23T20:44:08Z</time></trkpt><trkpt lat="44.5461377967" lon="14.4547378644"><ele>-1.79</ele><time>2011-09-23T20:44:43Z</time></trkpt><trkpt lat="44.5461377967" lon="14.4547378644"><ele>-1.79</ele><time>2011-09-23T20:45:16Z</time></trkpt><trkpt lat="44.5461424068" lon="14.4547344279"><ele>-1.79</ele><time>2011-09-23T20:45:56Z</time></trkpt><trkpt lat="44.5461427420" lon="14.4547323324"><ele>-1.79</ele><time>2011-09-23T20:46:34Z</time></trkpt><trkpt lat="44.5461450052" lon="14.4547287282"><ele>-2.27</ele><time>2011-09-23T20:47:09Z</time></trkpt><trkpt lat="44.5461481903" lon="14.4547161553"><ele>-2.75</ele><time>2011-09-23T20:47:42Z</time></trkpt><trkpt lat="44.5461485256" lon="14.4547176640"><ele>-2.75</ele><time>2011-09-23T20:48:25Z</time></trkpt><trkpt lat="44.5461520460" lon="14.4547161553"><ele>-2.75</ele><time>2011-09-23T20:49:10Z</time></trkpt><trkpt lat="44.5461517107" lon="14.4547126349"><ele>-3.23</ele><time>2011-09-23T20:49:52Z</time></trkpt><trkpt lat="44.5461548958" lon="14.4547059294"><ele>-2.75</ele><time>2011-09-23T20:50:31Z</time></trkpt><trkpt lat="44.5461554825" lon="14.4547009841"><ele>-2.27</ele><time>2011-09-23T20:51:13Z</time></trkpt><trkpt lat="44.5461548958" lon="14.4547027443"><ele>-1.79</ele><time>2011-09-23T20:51:52Z</time></trkpt><trkpt lat="44.5461545605" lon="14.4547053427"><ele>-1.30</ele><time>2011-09-23T20:52:34Z</time></trkpt><trkpt lat="44.5461543091" lon="14.4547094498"><ele>-0.82</ele><time>2011-09-23T20:53:16Z</time></trkpt><trkpt lat="44.5461548120" lon="14.4547091983"><ele>-0.82</ele><time>2011-09-23T20:53:55Z</time></trkpt><trkpt lat="44.5461529680" lon="14.4547073543"><ele>-1.30</ele><time>2011-09-23T20:54:36Z</time></trkpt><trkpt lat="44.5461500343" lon="14.4547151495"><ele>-0.82</ele><time>2011-09-23T20:55:17Z</time></trkpt><trkpt lat="44.5461502019" lon="14.4547157362"><ele>-1.30</ele><time>2011-09-23T20:55:59Z</time></trkpt><trkpt lat="44.5461502019" lon="14.4547157362"><ele>-1.30</ele><time>2011-09-23T20:56:36Z</time></trkpt><trkpt lat="44.5461465977" lon="14.4547200110"><ele>-1.30</ele><time>2011-09-23T20:57:18Z</time></trkpt><trkpt lat="44.5461465977" lon="14.4547200110"><ele>-1.30</ele><time>2011-09-23T20:57:57Z</time></trkpt><trkpt lat="44.5461481903" lon="14.4547171611"><ele>-2.27</ele><time>2011-09-23T20:58:33Z</time></trkpt><trkpt lat="44.5461503696" lon="14.4547150657"><ele>-2.27</ele><time>2011-09-23T20:59:10Z</time></trkpt><trkpt lat="44.5461553987" lon="14.4547128025"><ele>-2.75</ele><time>2011-09-23T20:59:47Z</time></trkpt><trkpt lat="44.5461569075" lon="14.4547151495"><ele>-2.75</ele><time>2011-09-23T21:00:32Z</time></trkpt><trkpt lat="44.5461567398" lon="14.4547221065"><ele>-3.23</ele><time>2011-09-23T21:01:09Z</time></trkpt><trkpt lat="44.5461590867" lon="14.4547255430"><ele>-3.71</ele><time>2011-09-23T21:01:46Z</time></trkpt><trkpt lat="44.5461562369" lon="14.4547273032"><ele>-3.71</ele><time>2011-09-23T21:02:22Z</time></trkpt><trkpt lat="44.5461608469" lon="14.4547289796"><ele>-4.19</ele><time>2011-09-23T21:02:58Z</time></trkpt><trkpt lat="44.5461624395" lon="14.4547299016"><ele>-4.67</ele><time>2011-09-23T21:03:31Z</time></trkpt><trkpt lat="44.5461650379" lon="14.4547277223"><ele>-5.15</ele><time>2011-09-23T21:04:07Z</time></trkpt><trkpt lat="44.5461673010" lon="14.4547242019"><ele>-6.11</ele><time>2011-09-23T21:04:39Z</time></trkpt><trkpt lat="44.5461673010" lon="14.4547242019"><ele>-6.11</ele><time>2011-09-23T21:05:15Z</time></trkpt><trkpt lat="44.5461669657" lon="14.4547225256"><ele>-6.11</ele><time>2011-09-23T21:05:52Z</time></trkpt><trkpt lat="44.5461694803" lon="14.4547250401"><ele>-6.59</ele><time>2011-09-23T21:06:27Z</time></trkpt><trkpt lat="44.5461688098" lon="14.4547223579"><ele>-6.59</ele><time>2011-09-23T21:07:03Z</time></trkpt><trkpt lat="44.5461719111" lon="14.4547204301"><ele>-7.07</ele><time>2011-09-23T21:07:36Z</time></trkpt><trkpt lat="44.5461725816" lon="14.4547195919"><ele>-7.55</ele><time>2011-09-23T21:08:14Z</time></trkpt><trkpt lat="44.5461735874" lon="14.4547155686"><ele>-8.03</ele><time>2011-09-23T21:08:51Z</time></trkpt><trkpt lat="44.5461745095" lon="14.4547143113"><ele>-8.51</ele><time>2011-09-23T21:09:23Z</time></trkpt><trkpt lat="44.5461693127" lon="14.4547086954"><ele>-8.51</ele><time>2011-09-23T21:09:58Z</time></trkpt><trkpt lat="44.5461693127" lon="14.4547086954"><ele>-8.51</ele><time>2011-09-23T21:10:33Z</time></trkpt><trkpt lat="44.5461699832" lon="14.4547097851"><ele>-8.51</ele><time>2011-09-23T21:11:08Z</time></trkpt><trkpt lat="44.5461729169" lon="14.4547108747"><ele>-9.00</ele><time>2011-09-23T21:11:44Z</time></trkpt><trkpt lat="44.5461751800" lon="14.4547092821"><ele>-9.00</ele><time>2011-09-23T21:12:19Z</time></trkpt><trkpt lat="44.5461742580" lon="14.4547066838"><ele>-9.00</ele><time>2011-09-23T21:12:58Z</time></trkpt><trkpt lat="44.5461725816" lon="14.4547064323"><ele>-9.48</ele><time>2011-09-23T21:13:32Z</time></trkpt><trkpt lat="44.5461663790" lon="14.4547066838"><ele>-9.48</ele><time>2011-09-23T21:14:05Z</time></trkpt><trkpt lat="44.5461652055" lon="14.4547111262"><ele>-9.48</ele><time>2011-09-23T21:14:41Z</time></trkpt><trkpt lat="44.5461652055" lon="14.4547111262"><ele>-9.48</ele><time>2011-09-23T21:15:15Z</time></trkpt><trkpt lat="44.5461643673" lon="14.4547106232"><ele>-9.00</ele><time>2011-09-23T21:15:52Z</time></trkpt><trkpt lat="44.5461656246" lon="14.4547080249"><ele>-9.00</ele><time>2011-09-23T21:16:27Z</time></trkpt><trkpt lat="44.5461678877" lon="14.4547104556"><ele>-9.00</ele><time>2011-09-23T21:17:00Z</time></trkpt><trkpt lat="44.5461634453" lon="14.4547241181"><ele>-8.03</ele><time>2011-09-23T21:17:37Z</time></trkpt><trkpt lat="44.5461625233" lon="14.4547339249"><ele>-7.55</ele><time>2011-09-23T21:18:15Z</time></trkpt><trkpt lat="44.5461628586" lon="14.4547350146"><ele>-7.55</ele><time>2011-09-23T21:18:52Z</time></trkpt><trkpt lat="44.5461630262" lon="14.4547342602"><ele>-7.07</ele><time>2011-09-23T21:19:31Z</time></trkpt><trkpt lat="44.5461634453" lon="14.4547367748"><ele>-7.55</ele><time>2011-09-23T21:20:10Z</time></trkpt><trkpt lat="44.5461637806" lon="14.4547370262"><ele>-7.07</ele><time>2011-09-23T21:20:46Z</time></trkpt><trkpt lat="44.5461643673" lon="14.4547372777"><ele>-7.55</ele><time>2011-09-23T21:21:20Z</time></trkpt><trkpt lat="44.5461643673" lon="14.4547372777"><ele>-7.55</ele><time>2011-09-23T21:21:57Z</time></trkpt><trkpt lat="44.5461635292" lon="14.4547399599"><ele>-7.07</ele><time>2011-09-23T21:22:35Z</time></trkpt><trkpt lat="44.5461621881" lon="14.4547422230"><ele>-6.59</ele><time>2011-09-23T21:23:12Z</time></trkpt><trkpt lat="44.5461610984" lon="14.4547427259"><ele>-6.59</ele><time>2011-09-23T21:23:48Z</time></trkpt><trkpt lat="44.5461593382" lon="14.4547430612"><ele>-6.11</ele><time>2011-09-23T21:24:22Z</time></trkpt><trkpt lat="44.5461536385" lon="14.4547525328"><ele>-5.63</ele><time>2011-09-23T21:24:57Z</time></trkpt><trkpt lat="44.5461548120" lon="14.4547488447"><ele>-5.15</ele><time>2011-09-23T21:25:37Z</time></trkpt><trkpt lat="44.5461521298" lon="14.4547502697"><ele>-4.19</ele><time>2011-09-23T21:26:12Z</time></trkpt><trkpt lat="44.5461511239" lon="14.4547493476"><ele>-4.67</ele><time>2011-09-23T21:26:52Z</time></trkpt><trkpt lat="44.5461448375" lon="14.4547508564"><ele>-3.71</ele><time>2011-09-23T21:27:29Z</time></trkpt><trkpt lat="44.5461460110" lon="14.4547449052"><ele>-4.19</ele><time>2011-09-23T21:28:06Z</time></trkpt><trkpt lat="44.5461437479" lon="14.4547428936"><ele>-4.19</ele><time>2011-09-23T21:28:46Z</time></trkpt><trkpt lat="44.5461445861" lon="14.4547397085"><ele>-4.67</ele><time>2011-09-23T21:29:26Z</time></trkpt><trkpt lat="44.5461474359" lon="14.4547356851"><ele>-4.67</ele><time>2011-09-23T21:30:02Z</time></trkpt><trkpt lat="44.5461494476" lon="14.4547299016"><ele>-4.67</ele><time>2011-09-23T21:30:45Z</time></trkpt><trkpt lat="44.5461484417" lon="14.4547304045"><ele>-4.19</ele><time>2011-09-23T21:31:24Z</time></trkpt><trkpt lat="44.5461466815" lon="14.4547315780"><ele>-3.71</ele><time>2011-09-23T21:32:02Z</time></trkpt><trkpt lat="44.5461507887" lon="14.4547271356"><ele>-3.71</ele><time>2011-09-23T21:32:41Z</time></trkpt><trkpt lat="44.5461536385" lon="14.4547275547"><ele>-3.23</ele><time>2011-09-23T21:33:27Z</time></trkpt><trkpt lat="44.5461538900" lon="14.4547241181"><ele>-3.23</ele><time>2011-09-23T21:34:11Z</time></trkpt><trkpt lat="44.5461502019" lon="14.4547273871"><ele>-2.75</ele><time>2011-09-23T21:34:54Z</time></trkpt><trkpt lat="44.5461487770" lon="14.4547292311"><ele>-2.75</ele><time>2011-09-23T21:35:33Z</time></trkpt><trkpt lat="44.5461503696" lon="14.4547299854"><ele>-3.23</ele><time>2011-09-23T21:36:11Z</time></trkpt><trkpt lat="44.5461505372" lon="14.4547321647"><ele>-3.23</ele><time>2011-09-23T21:36:49Z</time></trkpt><trkpt lat="44.5461490285" lon="14.4547353499"><ele>-3.71</ele><time>2011-09-23T21:37:31Z</time></trkpt><trkpt lat="44.5461492799" lon="14.4547358528"><ele>-3.71</ele><time>2011-09-23T21:38:08Z</time></trkpt><trkpt lat="44.5461490285" lon="14.4547283929"><ele>-4.19</ele><time>2011-09-23T21:38:50Z</time></trkpt><trkpt lat="44.5461490285" lon="14.4547259621"><ele>-4.19</ele><time>2011-09-23T21:39:28Z</time></trkpt><trkpt lat="44.5461498667" lon="14.4547293987"><ele>-4.19</ele><time>2011-09-23T21:40:06Z</time></trkpt><trkpt lat="44.5461505372" lon="14.4547268003"><ele>-4.19</ele><time>2011-09-23T21:40:42Z</time></trkpt><trkpt lat="44.5461506210" lon="14.4547255430"><ele>-3.71</ele><time>2011-09-23T21:41:20Z</time></trkpt><trkpt lat="44.5461526327" lon="14.4547243696"><ele>-3.71</ele><time>2011-09-23T21:42:00Z</time></trkpt><trkpt lat="44.5461526327" lon="14.4547243696"><ele>-3.71</ele><time>2011-09-23T21:42:36Z</time></trkpt><trkpt lat="44.5461565722" lon="14.4547230285"><ele>-3.71</ele><time>2011-09-23T21:43:11Z</time></trkpt><trkpt lat="44.5461537223" lon="14.4547261298"><ele>-3.23</ele><time>2011-09-23T21:43:50Z</time></trkpt><trkpt lat="44.5461522974" lon="14.4547246210"><ele>-3.23</ele><time>2011-09-23T21:44:32Z</time></trkpt><trkpt lat="44.5461489446" lon="14.4547242019"><ele>-2.75</ele><time>2011-09-23T21:45:16Z</time></trkpt><trkpt lat="44.5461494476" lon="14.4547236990"><ele>-2.75</ele><time>2011-09-23T21:45:59Z</time></trkpt><trkpt lat="44.5461474359" lon="14.4547257107"><ele>-2.75</ele><time>2011-09-23T21:46:40Z</time></trkpt><trkpt lat="44.5461485256" lon="14.4547251239"><ele>-3.23</ele><time>2011-09-23T21:47:21Z</time></trkpt><trkpt lat="44.5461485256" lon="14.4547251239"><ele>-3.23</ele><time>2011-09-23T21:47:53Z</time></trkpt><trkpt lat="44.5461454242" lon="14.4547239505"><ele>-3.23</ele><time>2011-09-23T21:48:29Z</time></trkpt><trkpt lat="44.5461450890" lon="14.4547198433"><ele>-3.23</ele><time>2011-09-23T21:49:06Z</time></trkpt><trkpt lat="44.5461447537" lon="14.4547185022"><ele>-3.23</ele><time>2011-09-23T21:49:44Z</time></trkpt><trkpt lat="44.5461491123" lon="14.4547138084"><ele>-2.75</ele><time>2011-09-23T21:50:24Z</time></trkpt><trkpt lat="44.5461498667" lon="14.4547121320"><ele>-2.27</ele><time>2011-09-23T21:51:01Z</time></trkpt><trkpt lat="44.5461472683" lon="14.4547077734"><ele>-2.27</ele><time>2011-09-23T21:51:40Z</time></trkpt><trkpt lat="44.5461438317" lon="14.4547076896"><ele>-2.27</ele><time>2011-09-23T21:52:15Z</time></trkpt><trkpt lat="44.5461430773" lon="14.4547071029"><ele>-2.27</ele><time>2011-09-23T21:52:53Z</time></trkpt><trkpt lat="44.5461372100" lon="14.4547154009"><ele>-2.27</ele><time>2011-09-23T21:53:33Z</time></trkpt><trkpt lat="44.5461403951" lon="14.4547110423"><ele>-1.79</ele><time>2011-09-23T21:54:10Z</time></trkpt><trkpt lat="44.5461405627" lon="14.4547124673"><ele>-1.79</ele><time>2011-09-23T21:54:45Z</time></trkpt><trkpt lat="44.5461403951" lon="14.4547172450"><ele>-1.79</ele><time>2011-09-23T21:55:22Z</time></trkpt><trkpt lat="44.5461403951" lon="14.4547172450"><ele>-1.79</ele><time>2011-09-23T21:55:56Z</time></trkpt><trkpt lat="44.5461410657" lon="14.4547179155"><ele>-1.30</ele><time>2011-09-23T21:56:30Z</time></trkpt><trkpt lat="44.5461424068" lon="14.4547158200"><ele>-1.30</ele><time>2011-09-23T21:57:09Z</time></trkpt><trkpt lat="44.5461403951" lon="14.4547148142"><ele>-1.30</ele><time>2011-09-23T21:57:43Z</time></trkpt><trkpt lat="44.5461424906" lon="14.4547155686"><ele>-1.30</ele><time>2011-09-23T21:58:14Z</time></trkpt><trkpt lat="44.5461457595" lon="14.4547168259"><ele>-0.82</ele><time>2011-09-23T21:58:48Z</time></trkpt><trkpt lat="44.5461461786" lon="14.4547164906"><ele>-0.82</ele><time>2011-09-23T21:59:26Z</time></trkpt><trkpt lat="44.5461469330" lon="14.4547184184"><ele>-0.34</ele><time>2011-09-23T22:00:03Z</time></trkpt><trkpt lat="44.5461436640" lon="14.4547257107"><ele>0.62</ele><time>2011-09-23T22:00:40Z</time></trkpt><trkpt lat="44.5461436640" lon="14.4547257107"><ele>0.62</ele><time>2011-09-23T22:01:11Z</time></trkpt><trkpt lat="44.5461443346" lon="14.4547270518"><ele>0.62</ele><time>2011-09-23T22:01:51Z</time></trkpt><trkpt lat="44.5461444184" lon="14.4547248725"><ele>0.62</ele><time>2011-09-23T22:02:25Z</time></trkpt><trkpt lat="44.5461471006" lon="14.4547323324"><ele>0.62</ele><time>2011-09-23T22:03:00Z</time></trkpt><trkpt lat="44.5461478550" lon="14.4547330029"><ele>1.10</ele><time>2011-09-23T22:03:39Z</time></trkpt><trkpt lat="44.5461408142" lon="14.4547351822"><ele>1.58</ele><time>2011-09-23T22:04:18Z</time></trkpt><trkpt lat="44.5461414848" lon="14.4547362719"><ele>1.58</ele><time>2011-09-23T22:04:57Z</time></trkpt><trkpt lat="44.5461398084" lon="14.4547356851"><ele>1.58</ele><time>2011-09-23T22:05:33Z</time></trkpt><trkpt lat="44.5461339410" lon="14.4547376130"><ele>1.58</ele><time>2011-09-23T22:06:07Z</time></trkpt><trkpt lat="44.5461336896" lon="14.4547384512"><ele>1.58</ele><time>2011-09-23T22:06:42Z</time></trkpt><trkpt lat="44.5461336896" lon="14.4547384512"><ele>1.58</ele><time>2011-09-23T22:07:17Z</time></trkpt><trkpt lat="44.5461310074" lon="14.4547380321"><ele>2.06</ele><time>2011-09-23T22:07:50Z</time></trkpt><trkpt lat="44.5461288281" lon="14.4547370262"><ele>2.06</ele><time>2011-09-23T22:08:25Z</time></trkpt><trkpt lat="44.5461229607" lon="14.4547353499"><ele>3.02</ele><time>2011-09-23T22:09:05Z</time></trkpt><trkpt lat="44.5461201109" lon="14.4547341764"><ele>3.02</ele><time>2011-09-23T22:09:38Z</time></trkpt><trkpt lat="44.5461201109" lon="14.4547319133"><ele>3.02</ele><time>2011-09-23T22:10:08Z</time></trkpt><trkpt lat="44.5461189374" lon="14.4547307398"><ele>3.02</ele><time>2011-09-23T22:10:40Z</time></trkpt><trkpt lat="44.5461189374" lon="14.4547307398"><ele>3.02</ele><time>2011-09-23T22:11:14Z</time></trkpt><trkpt lat="44.5461185183" lon="14.4547316618"><ele>3.50</ele><time>2011-09-23T22:11:48Z</time></trkpt><trkpt lat="44.5461134054" lon="14.4547301531"><ele>3.50</ele><time>2011-09-23T22:12:22Z</time></trkpt><trkpt lat="44.5461107232" lon="14.4547276385"><ele>3.50</ele><time>2011-09-23T22:12:55Z</time></trkpt><trkpt lat="44.5461133216" lon="14.4547254592"><ele>3.50</ele><time>2011-09-23T22:13:34Z</time></trkpt><trkpt lat="44.5461143274" lon="14.4547275547"><ele>3.98</ele><time>2011-09-23T22:14:12Z</time></trkpt><trkpt lat="44.5461151656" lon="14.4547291473"><ele>4.46</ele><time>2011-09-23T22:14:49Z</time></trkpt><trkpt lat="44.5461162552" lon="14.4547244534"><ele>4.94</ele><time>2011-09-23T22:15:31Z</time></trkpt><trkpt lat="44.5461157523" lon="14.4547216874"><ele>5.42</ele><time>2011-09-23T22:16:11Z</time></trkpt><trkpt lat="44.5461162552" lon="14.4547235314"><ele>5.42</ele><time>2011-09-23T22:16:47Z</time></trkpt><trkpt lat="44.5461203624" lon="14.4547236152"><ele>5.91</ele><time>2011-09-23T22:17:26Z</time></trkpt><trkpt lat="44.5461216196" lon="14.4547190052"><ele>6.39</ele><time>2011-09-23T22:18:04Z</time></trkpt><trkpt lat="44.5461204462" lon="14.4547197595"><ele>6.87</ele><time>2011-09-23T22:18:45Z</time></trkpt><trkpt lat="44.5461202785" lon="14.4547185861"><ele>6.87</ele><time>2011-09-23T22:19:21Z</time></trkpt><trkpt lat="44.5461201947" lon="14.4547144789"><ele>7.35</ele><time>2011-09-23T22:19:58Z</time></trkpt><trkpt lat="44.5461201947" lon="14.4547144789"><ele>7.35</ele><time>2011-09-23T22:20:34Z</time></trkpt><trkpt lat="44.5461196918" lon="14.4547147304"><ele>7.35</ele><time>2011-09-23T22:21:09Z</time></trkpt><trkpt lat="44.5461181831" lon="14.4547137246"><ele>7.35</ele><time>2011-09-23T22:21:45Z</time></trkpt><trkpt lat="44.5461170934" lon="14.4547128025"><ele>7.83</ele><time>2011-09-23T22:22:21Z</time></trkpt><trkpt lat="44.5461154170" lon="14.4547119644"><ele>7.83</ele><time>2011-09-23T22:22:52Z</time></trkpt><trkpt lat="44.5461116452" lon="14.4547121320"><ele>7.83</ele><time>2011-09-23T22:23:25Z</time></trkpt><trkpt lat="44.5461110584" lon="14.4547122996"><ele>7.35</ele><time>2011-09-23T22:23:59Z</time></trkpt><trkpt lat="44.5461093821" lon="14.4547087792"><ele>7.35</ele><time>2011-09-23T22:24:39Z</time></trkpt><trkpt lat="44.5461093821" lon="14.4547087792"><ele>7.35</ele><time>2011-09-23T22:25:14Z</time></trkpt><trkpt lat="44.5461103879" lon="14.4547099527"><ele>7.83</ele><time>2011-09-23T22:25:47Z</time></trkpt><trkpt lat="44.5461111423" lon="14.4547075219"><ele>7.83</ele><time>2011-09-23T22:26:22Z</time></trkpt><trkpt lat="44.5461126510" lon="14.4547074381"><ele>7.83</ele><time>2011-09-23T22:26:59Z</time></trkpt><trkpt lat="44.5461114775" lon="14.4547079410"><ele>7.83</ele><time>2011-09-23T22:27:33Z</time></trkpt><trkpt lat="44.5461108908" lon="14.4547086116"><ele>7.83</ele><time>2011-09-23T22:28:09Z</time></trkpt><trkpt lat="44.5461121481" lon="14.4547037501"><ele>7.83</ele><time>2011-09-23T22:28:47Z</time></trkpt><trkpt lat="44.5461119805" lon="14.4547013193"><ele>7.83</ele><time>2011-09-23T22:29:21Z</time></trkpt><trkpt lat="44.5461113937" lon="14.4546952844"><ele>7.35</ele><time>2011-09-23T22:30:00Z</time></trkpt><trkpt lat="44.5461113937" lon="14.4546952844"><ele>7.35</ele><time>2011-09-23T22:30:36Z</time></trkpt><trkpt lat="44.5461092982" lon="14.4546979666"><ele>7.35</ele><time>2011-09-23T22:31:14Z</time></trkpt><trkpt lat="44.5461079571" lon="14.4546950329"><ele>6.87</ele><time>2011-09-23T22:31:51Z</time></trkpt><trkpt lat="44.5461074542" lon="14.4546930213"><ele>6.87</ele><time>2011-09-23T22:32:35Z</time></trkpt><trkpt lat="44.5461063646" lon="14.4546925183"><ele>6.39</ele><time>2011-09-23T22:33:15Z</time></trkpt><trkpt lat="44.5461046044" lon="14.4546917640"><ele>6.39</ele><time>2011-09-23T22:33:54Z</time></trkpt><trkpt lat="44.5461026765" lon="14.4546910096"><ele>6.39</ele><time>2011-09-23T22:34:32Z</time></trkpt><trkpt lat="44.5461045206" lon="14.4546948653"><ele>5.91</ele><time>2011-09-23T22:35:11Z</time></trkpt><trkpt lat="44.5461064484" lon="14.4547014870"><ele>5.42</ele><time>2011-09-23T22:35:49Z</time></trkpt><trkpt lat="44.5461043529" lon="14.4547052588"><ele>5.42</ele><time>2011-09-23T22:36:26Z</time></trkpt><trkpt lat="44.5461046882" lon="14.4547041692"><ele>5.42</ele><time>2011-09-23T22:37:08Z</time></trkpt><trkpt lat="44.5461037662" lon="14.4547076896"><ele>5.42</ele><time>2011-09-23T22:37:44Z</time></trkpt><trkpt lat="44.5461060293" lon="14.4547092821"><ele>4.94</ele><time>2011-09-23T22:38:20Z</time></trkpt><trkpt lat="44.5461074542" lon="14.4547086116"><ele>5.42</ele><time>2011-09-23T22:39:00Z</time></trkpt><trkpt lat="44.5461057778" lon="14.4547098689"><ele>4.94</ele><time>2011-09-23T22:39:39Z</time></trkpt><trkpt lat="44.5461066999" lon="14.4547077734"><ele>4.94</ele><time>2011-09-23T22:40:17Z</time></trkpt><trkpt lat="44.5461082924" lon="14.4547070190"><ele>4.94</ele><time>2011-09-23T22:40:56Z</time></trkpt><trkpt lat="44.5461073704" lon="14.4547078572"><ele>4.94</ele><time>2011-09-23T22:41:43Z</time></trkpt><trkpt lat="44.5461069513" lon="14.4547096174"><ele>4.94</ele><time>2011-09-23T22:42:26Z</time></trkpt><trkpt lat="44.5461034309" lon="14.4547108747"><ele>5.42</ele><time>2011-09-23T22:43:04Z</time></trkpt><trkpt lat="44.5461039338" lon="14.4547156524"><ele>5.42</ele><time>2011-09-23T22:43:47Z</time></trkpt><trkpt lat="44.5461032633" lon="14.4547178317"><ele>5.42</ele><time>2011-09-23T22:44:24Z</time></trkpt><trkpt lat="44.5461103879" lon="14.4547291473"><ele>5.91</ele><time>2011-09-23T22:45:01Z</time></trkpt><trkpt lat="44.5461115614" lon="14.4547331706"><ele>6.39</ele><time>2011-09-23T22:45:38Z</time></trkpt><trkpt lat="44.5461159199" lon="14.4547319133"><ele>6.39</ele><time>2011-09-23T22:46:17Z</time></trkpt><trkpt lat="44.5461160876" lon="14.4547301531"><ele>6.87</ele><time>2011-09-23T22:46:52Z</time></trkpt><trkpt lat="44.5461160876" lon="14.4547273871"><ele>6.87</ele><time>2011-09-23T22:47:33Z</time></trkpt><trkpt lat="44.5461167581" lon="14.4547278900"><ele>6.87</ele><time>2011-09-23T22:48:08Z</time></trkpt><trkpt lat="44.5461173449" lon="14.4547314104"><ele>6.87</ele><time>2011-09-23T22:48:40Z</time></trkpt><trkpt lat="44.5461189374" lon="14.4547309913"><ele>7.35</ele><time>2011-09-23T22:49:19Z</time></trkpt><trkpt lat="44.5461189374" lon="14.4547309913"><ele>7.35</ele><time>2011-09-23T22:49:55Z</time></trkpt><trkpt lat="44.5461164229" lon="14.4547331706"><ele>7.35</ele><time>2011-09-23T22:50:28Z</time></trkpt><trkpt lat="44.5461174287" lon="14.4547308236"><ele>7.83</ele><time>2011-09-23T22:51:00Z</time></trkpt><trkpt lat="44.5461186022" lon="14.4547295664"><ele>7.83</ele><time>2011-09-23T22:51:33Z</time></trkpt><trkpt lat="44.5461217035" lon="14.4547283091"><ele>7.83</ele><time>2011-09-23T22:52:07Z</time></trkpt><trkpt lat="44.5461209491" lon="14.4547302369"><ele>7.83</ele><time>2011-09-23T22:52:39Z</time></trkpt><trkpt lat="44.5461209491" lon="14.4547302369"><ele>7.83</ele><time>2011-09-23T22:53:09Z</time></trkpt><trkpt lat="44.5461234637" lon="14.4547283929"><ele>7.83</ele><time>2011-09-23T22:53:39Z</time></trkpt><trkpt lat="44.5461234637" lon="14.4547279738"><ele>7.83</ele><time>2011-09-23T22:54:13Z</time></trkpt><trkpt lat="44.5461222064" lon="14.4547299854"><ele>7.83</ele><time>2011-09-23T22:54:51Z</time></trkpt><trkpt lat="44.5461196080" lon="14.4547317456"><ele>7.83</ele><time>2011-09-23T22:55:27Z</time></trkpt><trkpt lat="44.5461237151" lon="14.4547304884"><ele>7.83</ele><time>2011-09-23T22:56:03Z</time></trkpt><trkpt lat="44.5461237151" lon="14.4547304884"><ele>7.83</ele><time>2011-09-23T22:56:34Z</time></trkpt><trkpt lat="44.5461219549" lon="14.4547279738"><ele>7.83</ele><time>2011-09-23T22:57:06Z</time></trkpt><trkpt lat="44.5461263973" lon="14.4547268003"><ele>7.83</ele><time>2011-09-23T22:57:45Z</time></trkpt><trkpt lat="44.5461274032" lon="14.4547254592"><ele>7.83</ele><time>2011-09-23T22:58:24Z</time></trkpt><trkpt lat="44.5461286604" lon="14.4547258783"><ele>7.83</ele><time>2011-09-23T22:58:57Z</time></trkpt><trkpt lat="44.5461261459" lon="14.4547282252"><ele>7.83</ele><time>2011-09-23T22:59:36Z</time></trkpt><trkpt lat="44.5461249724" lon="14.4547266327"><ele>7.83</ele><time>2011-09-23T23:00:10Z</time></trkpt><trkpt lat="44.5461239666" lon="14.4547260460"><ele>7.83</ele><time>2011-09-23T23:00:48Z</time></trkpt><trkpt lat="44.5461243019" lon="14.4547314942"><ele>7.35</ele><time>2011-09-23T23:01:26Z</time></trkpt><trkpt lat="44.5461278223" lon="14.4547381159"><ele>7.83</ele><time>2011-09-23T23:02:03Z</time></trkpt><trkpt lat="44.5461278223" lon="14.4547379483"><ele>7.83</ele><time>2011-09-23T23:02:41Z</time></trkpt><trkpt lat="44.5461227093" lon="14.4547456596"><ele>8.31</ele><time>2011-09-23T23:03:19Z</time></trkpt><trkpt lat="44.5461227093" lon="14.4547456596"><ele>8.31</ele><time>2011-09-23T23:03:54Z</time></trkpt><trkpt lat="44.5461222064" lon="14.4547437318"><ele>8.31</ele><time>2011-09-23T23:04:30Z</time></trkpt><trkpt lat="44.5461191051" lon="14.4547447376"><ele>8.31</ele><time>2011-09-23T23:05:11Z</time></trkpt><trkpt lat="44.5461155847" lon="14.4547456596"><ele>8.31</ele><time>2011-09-23T23:05:48Z</time></trkpt><trkpt lat="44.5461160038" lon="14.4547474198"><ele>8.31</ele><time>2011-09-23T23:06:29Z</time></trkpt><trkpt lat="44.5461155009" lon="14.4547510240"><ele>7.83</ele><time>2011-09-23T23:07:04Z</time></trkpt><trkpt lat="44.5461157523" lon="14.4547490962"><ele>7.83</ele><time>2011-09-23T23:07:41Z</time></trkpt><trkpt lat="44.5461138245" lon="14.4547450729"><ele>7.83</ele><time>2011-09-23T23:08:19Z</time></trkpt><trkpt lat="44.5461138245" lon="14.4547463302"><ele>7.83</ele><time>2011-09-23T23:08:54Z</time></trkpt><trkpt lat="44.5461170934" lon="14.4547415525"><ele>8.31</ele><time>2011-09-23T23:09:33Z</time></trkpt><trkpt lat="44.5461172611" lon="14.4547399599"><ele>8.31</ele><time>2011-09-23T23:10:11Z</time></trkpt><trkpt lat="44.5461197756" lon="14.4547349308"><ele>8.79</ele><time>2011-09-23T23:10:50Z</time></trkpt><trkpt lat="44.5461237151" lon="14.4547319133"><ele>8.79</ele><time>2011-09-23T23:11:29Z</time></trkpt><trkpt lat="44.5461255591" lon="14.4547325000"><ele>9.27</ele><time>2011-09-23T23:12:02Z</time></trkpt><trkpt lat="44.5461335219" lon="14.4547299016"><ele>9.75</ele><time>2011-09-23T23:12:38Z</time></trkpt><trkpt lat="44.5461337734" lon="14.4547287282"><ele>10.23</ele><time>2011-09-23T23:13:19Z</time></trkpt><trkpt lat="44.5461352821" lon="14.4547279738"><ele>10.71</ele><time>2011-09-23T23:14:02Z</time></trkpt><trkpt lat="44.5461350307" lon="14.4547283091"><ele>10.71</ele><time>2011-09-23T23:14:44Z</time></trkpt><trkpt lat="44.5461333543" lon="14.4547350984"><ele>10.23</ele><time>2011-09-23T23:15:24Z</time></trkpt><trkpt lat="44.5461346954" lon="14.4547361881"><ele>10.23</ele><time>2011-09-23T23:16:02Z</time></trkpt><trkpt lat="44.5461354498" lon="14.4547339249"><ele>10.23</ele><time>2011-09-23T23:16:41Z</time></trkpt><trkpt lat="44.5461333543" lon="14.4547369424"><ele>10.23</ele><time>2011-09-23T23:17:18Z</time></trkpt><trkpt lat="44.5461333543" lon="14.4547369424"><ele>10.23</ele><time>2011-09-23T23:17:54Z</time></trkpt><trkpt lat="44.5461308397" lon="14.4547370262"><ele>10.23</ele><time>2011-09-23T23:18:33Z</time></trkpt><trkpt lat="44.5461303368" lon="14.4547356013"><ele>9.75</ele><time>2011-09-23T23:19:10Z</time></trkpt><trkpt lat="44.5461305045" lon="14.4547374453"><ele>9.75</ele><time>2011-09-23T23:19:49Z</time></trkpt><trkpt lat="44.5461294986" lon="14.4547415525"><ele>10.23</ele><time>2011-09-23T23:20:30Z</time></trkpt><trkpt lat="44.5461248886" lon="14.4547500182"><ele>10.71</ele><time>2011-09-23T23:21:07Z</time></trkpt><trkpt lat="44.5461248048" lon="14.4547509402"><ele>10.23</ele><time>2011-09-23T23:21:49Z</time></trkpt><trkpt lat="44.5461283252" lon="14.4547497667"><ele>10.71</ele><time>2011-09-23T23:22:32Z</time></trkpt><trkpt lat="44.5461289119" lon="14.4547491800"><ele>10.71</ele><time>2011-09-23T23:23:14Z</time></trkpt><trkpt lat="44.5461297501" lon="14.4547494315"><ele>10.23</ele><time>2011-09-23T23:23:49Z</time></trkpt><trkpt lat="44.5461301692" lon="14.4547472522"><ele>10.23</ele><time>2011-09-23T23:24:30Z</time></trkpt><trkpt lat="44.5461316779" lon="14.4547470845"><ele>10.23</ele><time>2011-09-23T23:25:08Z</time></trkpt><trkpt lat="44.5461326838" lon="14.4547495991"><ele>9.75</ele><time>2011-09-23T23:25:43Z</time></trkpt><trkpt lat="44.5461350307" lon="14.4547501858"><ele>9.75</ele><time>2011-09-23T23:26:24Z</time></trkpt><trkpt lat="44.5461351983" lon="14.4547502697"><ele>9.75</ele><time>2011-09-23T23:27:01Z</time></trkpt><trkpt lat="44.5461351145" lon="14.4547507726"><ele>9.75</ele><time>2011-09-23T23:27:37Z</time></trkpt><trkpt lat="44.5461366232" lon="14.4547523651"><ele>9.75</ele><time>2011-09-23T23:28:19Z</time></trkpt><trkpt lat="44.5461372100" lon="14.4547540415"><ele>9.75</ele><time>2011-09-23T23:28:58Z</time></trkpt><trkpt lat="44.5461338572" lon="14.4547551312"><ele>10.23</ele><time>2011-09-23T23:29:32Z</time></trkpt><trkpt lat="44.5461347792" lon="14.4547557179"><ele>10.71</ele><time>2011-09-23T23:30:12Z</time></trkpt><trkpt lat="44.5461316779" lon="14.4547554664"><ele>11.19</ele><time>2011-09-23T23:30:50Z</time></trkpt><trkpt lat="44.5461327676" lon="14.4547547959"><ele>11.19</ele><time>2011-09-23T23:31:25Z</time></trkpt><trkpt lat="44.5461323485" lon="14.4547495153"><ele>11.67</ele><time>2011-09-23T23:32:00Z</time></trkpt><trkpt lat="44.5461302530" lon="14.4547463302"><ele>12.63</ele><time>2011-09-23T23:32:39Z</time></trkpt><trkpt lat="44.5461295824" lon="14.4547485095"><ele>13.12</ele><time>2011-09-23T23:33:21Z</time></trkpt><trkpt lat="44.5461295824" lon="14.4547485095"><ele>13.12</ele><time>2011-09-23T23:33:54Z</time></trkpt><trkpt lat="44.5461279061" lon="14.4547476713"><ele>13.60</ele><time>2011-09-23T23:34:30Z</time></trkpt><trkpt lat="44.5461284090" lon="14.4547504373"><ele>14.56</ele><time>2011-09-23T23:35:03Z</time></trkpt><trkpt lat="44.5461294148" lon="14.4547460787"><ele>15.04</ele><time>2011-09-23T23:35:38Z</time></trkpt><trkpt lat="44.5461315941" lon="14.4547423907"><ele>16.00</ele><time>2011-09-23T23:36:13Z</time></trkpt><trkpt lat="44.5461351983" lon="14.4547429774"><ele>16.48</ele><time>2011-09-23T23:36:49Z</time></trkpt><trkpt lat="44.5461370423" lon="14.4547429774"><ele>16.48</ele><time>2011-09-23T23:37:23Z</time></trkpt><trkpt lat="44.5461370423" lon="14.4547429774"><ele>16.48</ele><time>2011-09-23T23:37:56Z</time></trkpt><trkpt lat="44.5461377129" lon="14.4547426421"><ele>16.96</ele><time>2011-09-23T23:38:29Z</time></trkpt><trkpt lat="44.5461373776" lon="14.4547407981"><ele>16.96</ele><time>2011-09-23T23:39:06Z</time></trkpt><trkpt lat="44.5461378805" lon="14.4547373615"><ele>16.96</ele><time>2011-09-23T23:39:43Z</time></trkpt><trkpt lat="44.5461379644" lon="14.4547334220"><ele>17.44</ele><time>2011-09-23T23:40:23Z</time></trkpt><trkpt lat="44.5461387187" lon="14.4547273032"><ele>17.44</ele><time>2011-09-23T23:40:57Z</time></trkpt><trkpt lat="44.5461377967" lon="14.4547217712"><ele>17.44</ele><time>2011-09-23T23:41:32Z</time></trkpt><trkpt lat="44.5461355336" lon="14.4547194242"><ele>16.96</ele><time>2011-09-23T23:42:08Z</time></trkpt><trkpt lat="44.5461358689" lon="14.4547157362"><ele>17.44</ele><time>2011-09-23T23:42:40Z</time></trkpt><trkpt lat="44.5461358689" lon="14.4547157362"><ele>17.44</ele><time>2011-09-23T23:43:16Z</time></trkpt><trkpt lat="44.5461388864" lon="14.4547149818"><ele>17.44</ele><time>2011-09-23T23:43:53Z</time></trkpt><trkpt lat="44.5461375453" lon="14.4547122996"><ele>17.44</ele><time>2011-09-23T23:44:30Z</time></trkpt><trkpt lat="44.5461402275" lon="14.4547113776"><ele>17.92</ele><time>2011-09-23T23:45:09Z</time></trkpt><trkpt lat="44.5461394731" lon="14.4547043368"><ele>17.92</ele><time>2011-09-23T23:45:43Z</time></trkpt><trkpt lat="44.5461402275" lon="14.4547032472"><ele>17.92</ele><time>2011-09-23T23:46:16Z</time></trkpt><trkpt lat="44.5461384673" lon="14.4547047559"><ele>18.40</ele><time>2011-09-23T23:46:52Z</time></trkpt><trkpt lat="44.5461389702" lon="14.4547050074"><ele>19.36</ele><time>2011-09-23T23:47:31Z</time></trkpt><trkpt lat="44.5461405627" lon="14.4547024090"><ele>19.84</ele><time>2011-09-23T23:48:11Z</time></trkpt><trkpt lat="44.5461377967" lon="14.4547023252"><ele>20.32</ele><time>2011-09-23T23:48:47Z</time></trkpt><trkpt lat="44.5461382158" lon="14.4547003135"><ele>20.81</ele><time>2011-09-23T23:49:23Z</time></trkpt><trkpt lat="44.5461382158" lon="14.4547003135"><ele>20.81</ele><time>2011-09-23T23:49:57Z</time></trkpt><trkpt lat="44.5461374614" lon="14.4546977151"><ele>21.29</ele><time>2011-09-23T23:50:32Z</time></trkpt><trkpt lat="44.5461311750" lon="14.4547015708"><ele>21.77</ele><time>2011-09-23T23:51:10Z</time></trkpt><trkpt lat="44.5461322647" lon="14.4546982180"><ele>21.77</ele><time>2011-09-23T23:51:48Z</time></trkpt><trkpt lat="44.5461345278" lon="14.4546916801"><ele>21.77</ele><time>2011-09-23T23:52:30Z</time></trkpt><trkpt lat="44.5461351145" lon="14.4546879921"><ele>21.77</ele><time>2011-09-23T23:53:12Z</time></trkpt><trkpt lat="44.5461351983" lon="14.4546858128"><ele>21.77</ele><time>2011-09-23T23:53:49Z</time></trkpt><trkpt lat="44.5461336058" lon="14.4546781853"><ele>21.77</ele><time>2011-09-23T23:54:27Z</time></trkpt><trkpt lat="44.5461325161" lon="14.4546748325"><ele>21.77</ele><time>2011-09-23T23:55:04Z</time></trkpt><trkpt lat="44.5461346954" lon="14.4546698872"><ele>21.77</ele><time>2011-09-23T23:55:40Z</time></trkpt><trkpt lat="44.5461351983" lon="14.4546684623"><ele>21.77</ele><time>2011-09-23T23:56:21Z</time></trkpt><trkpt lat="44.5461346116" lon="14.4546659477"><ele>21.77</ele><time>2011-09-23T23:57:02Z</time></trkpt><trkpt lat="44.5461356174" lon="14.4546654448"><ele>22.25</ele><time>2011-09-23T23:57:42Z</time></trkpt><trkpt lat="44.5461357012" lon="14.4546641875"><ele>22.73</ele><time>2011-09-23T23:58:22Z</time></trkpt><trkpt lat="44.5461375453" lon="14.4546634331"><ele>22.73</ele><time>2011-09-23T23:59:02Z</time></trkpt><trkpt lat="44.5461384673" lon="14.4546619244"><ele>22.25</ele><time>2011-09-23T23:59:42Z</time></trkpt><trkpt lat="44.5461406466" lon="14.4546594098"><ele>22.25</ele><time>2011-09-24T00:00:26Z</time></trkpt><trkpt lat="44.5461406466" lon="14.4546584040"><ele>21.77</ele><time>2011-09-24T00:01:10Z</time></trkpt><trkpt lat="44.5461414009" lon="14.4546572305"><ele>21.29</ele><time>2011-09-24T00:01:52Z</time></trkpt><trkpt lat="44.5461436640" lon="14.4546538778"><ele>20.32</ele><time>2011-09-24T00:02:29Z</time></trkpt><trkpt lat="44.5461449213" lon="14.4546486810"><ele>19.84</ele><time>2011-09-24T00:03:12Z</time></trkpt><trkpt lat="44.5461468492" lon="14.4546484295"><ele>19.36</ele><time>2011-09-24T00:03:48Z</time></trkpt><trkpt lat="44.5461464301" lon="14.4546522852"><ele>19.36</ele><time>2011-09-24T00:04:26Z</time></trkpt><trkpt lat="44.5461480226" lon="14.4546547998"><ele>18.88</ele><time>2011-09-24T00:05:04Z</time></trkpt><trkpt lat="44.5461477712" lon="14.4546604156"><ele>18.40</ele><time>2011-09-24T00:05:37Z</time></trkpt><trkpt lat="44.5461459272" lon="14.4546641875"><ele>17.92</ele><time>2011-09-24T00:06:08Z</time></trkpt><trkpt lat="44.5461453404" lon="14.4546711445"><ele>16.48</ele><time>2011-09-24T00:06:43Z</time></trkpt><trkpt lat="44.5461453404" lon="14.4546711445"><ele>16.48</ele><time>2011-09-24T00:07:17Z</time></trkpt><trkpt lat="44.5461451728" lon="14.4546745811"><ele>16.00</ele><time>2011-09-24T00:07:55Z</time></trkpt><trkpt lat="44.5461464301" lon="14.4546791911"><ele>16.00</ele><time>2011-09-24T00:08:28Z</time></trkpt><trkpt lat="44.5461494476" lon="14.4546811190"><ele>16.00</ele><time>2011-09-24T00:09:04Z</time></trkpt><trkpt lat="44.5461486932" lon="14.4546812028"><ele>15.52</ele><time>2011-09-24T00:09:42Z</time></trkpt><trkpt lat="44.5461455919" lon="14.4546842203"><ele>15.52</ele><time>2011-09-24T00:10:22Z</time></trkpt><trkpt lat="44.5461445022" lon="14.4546873216"><ele>15.04</ele><time>2011-09-24T00:10:59Z</time></trkpt><trkpt lat="44.5461420715" lon="14.4546884112"><ele>15.04</ele><time>2011-09-24T00:11:32Z</time></trkpt><trkpt lat="44.5461405627" lon="14.4546875730"><ele>15.04</ele><time>2011-09-24T00:12:09Z</time></trkpt><trkpt lat="44.5461410657" lon="14.4546872377"><ele>14.56</ele><time>2011-09-24T00:12:39Z</time></trkpt><trkpt lat="44.5461410657" lon="14.4546872377"><ele>14.56</ele><time>2011-09-24T00:13:13Z</time></trkpt><trkpt lat="44.5461397246" lon="14.4546889141"><ele>14.56</ele><time>2011-09-24T00:13:42Z</time></trkpt><trkpt lat="44.5461369585" lon="14.4546889141"><ele>14.56</ele><time>2011-09-24T00:14:15Z</time></trkpt><trkpt lat="44.5461349469" lon="14.4546913449"><ele>15.04</ele><time>2011-09-24T00:14:45Z</time></trkpt><trkpt lat="44.5461352821" lon="14.4546964578"><ele>15.04</ele><time>2011-09-24T00:15:20Z</time></trkpt><trkpt lat="44.5461352821" lon="14.4546964578"><ele>15.04</ele><time>2011-09-24T00:15:50Z</time></trkpt><trkpt lat="44.5461329352" lon="14.4546992239"><ele>15.52</ele><time>2011-09-24T00:16:21Z</time></trkpt><trkpt lat="44.5461313426" lon="14.4546969607"><ele>15.04</ele><time>2011-09-24T00:16:52Z</time></trkpt><trkpt lat="44.5461306721" lon="14.4546946976"><ele>15.04</ele><time>2011-09-24T00:17:28Z</time></trkpt><trkpt lat="44.5461357012" lon="14.4546977989"><ele>15.04</ele><time>2011-09-24T00:18:02Z</time></trkpt><trkpt lat="44.5461357012" lon="14.4546977989"><ele>15.04</ele><time>2011-09-24T00:18:37Z</time></trkpt><trkpt lat="44.5461398922" lon="14.4546988048"><ele>15.04</ele><time>2011-09-24T00:19:08Z</time></trkpt><trkpt lat="44.5461455081" lon="14.4546990562"><ele>14.56</ele><time>2011-09-24T00:19:39Z</time></trkpt><trkpt lat="44.5461518783" lon="14.4546893332"><ele>15.04</ele><time>2011-09-24T00:20:10Z</time></trkpt><trkpt lat="44.5461518783" lon="14.4546893332"><ele>15.04</ele><time>2011-09-24T00:20:37Z</time></trkpt><trkpt lat="44.5461522136" lon="14.4546859805"><ele>15.04</ele><time>2011-09-24T00:21:12Z</time></trkpt><trkpt lat="44.5461527165" lon="14.4546843041"><ele>15.52</ele><time>2011-09-24T00:21:44Z</time></trkpt><trkpt lat="44.5461507048" lon="14.4546853099"><ele>15.52</ele><time>2011-09-24T00:22:17Z</time></trkpt><trkpt lat="44.5461504534" lon="14.4546843879"><ele>15.52</ele><time>2011-09-24T00:22:48Z</time></trkpt><trkpt lat="44.5461502019" lon="14.4546852261"><ele>15.52</ele><time>2011-09-24T00:23:24Z</time></trkpt><trkpt lat="44.5461505372" lon="14.4546839688"><ele>15.04</ele><time>2011-09-24T00:23:58Z</time></trkpt><trkpt lat="44.5461505372" lon="14.4546839688"><ele>15.04</ele><time>2011-09-24T00:24:31Z</time></trkpt><trkpt lat="44.5461526327" lon="14.4546771795"><ele>15.04</ele><time>2011-09-24T00:25:04Z</time></trkpt><trkpt lat="44.5461529680" lon="14.4546738267"><ele>15.04</ele><time>2011-09-24T00:25:42Z</time></trkpt><trkpt lat="44.5461517945" lon="14.4546700548"><ele>14.56</ele><time>2011-09-24T00:26:17Z</time></trkpt><trkpt lat="44.5461526327" lon="14.4546678755"><ele>14.56</ele><time>2011-09-24T00:26:51Z</time></trkpt><trkpt lat="44.5461526327" lon="14.4546639360"><ele>14.08</ele><time>2011-09-24T00:27:23Z</time></trkpt><trkpt lat="44.5461538900" lon="14.4546646066"><ele>14.08</ele><time>2011-09-24T00:28:02Z</time></trkpt><trkpt lat="44.5461542252" lon="14.4546680432"><ele>14.08</ele><time>2011-09-24T00:28:41Z</time></trkpt><trkpt lat="44.5461528003" lon="14.4546700548"><ele>14.08</ele><time>2011-09-24T00:29:27Z</time></trkpt><trkpt lat="44.5461543091" lon="14.4546691328"><ele>14.08</ele><time>2011-09-24T00:30:13Z</time></trkpt><trkpt lat="44.5461548120" lon="14.4546715636"><ele>14.08</ele><time>2011-09-24T00:30:54Z</time></trkpt><trkpt lat="44.5461548120" lon="14.4546720665"><ele>14.08</ele><time>2011-09-24T00:31:33Z</time></trkpt><trkpt lat="44.5461528841" lon="14.4546759222"><ele>14.08</ele><time>2011-09-24T00:32:08Z</time></trkpt><trkpt lat="44.5461554825" lon="14.4546739105"><ele>13.60</ele><time>2011-09-24T00:32:41Z</time></trkpt><trkpt lat="44.5461566560" lon="14.4546765927"><ele>13.60</ele><time>2011-09-24T00:33:18Z</time></trkpt><trkpt lat="44.5461566560" lon="14.4546765927"><ele>13.60</ele><time>2011-09-24T00:33:53Z</time></trkpt><trkpt lat="44.5461577456" lon="14.4546806999"><ele>13.60</ele><time>2011-09-24T00:34:27Z</time></trkpt><trkpt lat="44.5461605117" lon="14.4546830468"><ele>14.08</ele><time>2011-09-24T00:35:06Z</time></trkpt><trkpt lat="44.5461601764" lon="14.4546874054"><ele>13.60</ele><time>2011-09-24T00:35:41Z</time></trkpt><trkpt lat="44.5461616851" lon="14.4546885788"><ele>13.60</ele><time>2011-09-24T00:36:18Z</time></trkpt><trkpt lat="44.5461604279" lon="14.4546916801"><ele>13.60</ele><time>2011-09-24T00:36:54Z</time></trkpt><trkpt lat="44.5461667981" lon="14.4546913449"><ele>13.12</ele><time>2011-09-24T00:37:35Z</time></trkpt><trkpt lat="44.5461657085" lon="14.4546977989"><ele>13.12</ele><time>2011-09-24T00:38:09Z</time></trkpt><trkpt lat="44.5461663790" lon="14.4546975475"><ele>13.12</ele><time>2011-09-24T00:38:50Z</time></trkpt><trkpt lat="44.5461649541" lon="14.4547003135"><ele>13.12</ele><time>2011-09-24T00:39:29Z</time></trkpt><trkpt lat="44.5461653732" lon="14.4547012355"><ele>12.63</ele><time>2011-09-24T00:40:15Z</time></trkpt><trkpt lat="44.5461648703" lon="14.4547001459"><ele>12.63</ele><time>2011-09-24T00:40:46Z</time></trkpt><trkpt lat="44.5461640321" lon="14.4547032472"><ele>12.63</ele><time>2011-09-24T00:41:24Z</time></trkpt><trkpt lat="44.5461635292" lon="14.4547053427"><ele>12.15</ele><time>2011-09-24T00:42:01Z</time></trkpt><trkpt lat="44.5461635292" lon="14.4547053427"><ele>12.15</ele><time>2011-09-24T00:42:35Z</time></trkpt><trkpt lat="44.5461599249" lon="14.4547060132"><ele>12.15</ele><time>2011-09-24T00:43:05Z</time></trkpt><trkpt lat="44.5461621042" lon="14.4547035825"><ele>12.15</ele><time>2011-09-24T00:43:36Z</time></trkpt><trkpt lat="44.5461577456" lon="14.4547024928"><ele>12.15</ele><time>2011-09-24T00:44:11Z</time></trkpt><trkpt lat="44.5461564884" lon="14.4547002297"><ele>12.15</ele><time>2011-09-24T00:44:47Z</time></trkpt><trkpt lat="44.5461565722" lon="14.4546983019"><ele>12.15</ele><time>2011-09-24T00:45:20Z</time></trkpt><trkpt lat="44.5461565722" lon="14.4546983019"><ele>12.15</ele><time>2011-09-24T00:45:54Z</time></trkpt><trkpt lat="44.5461574104" lon="14.4546972960"><ele>12.15</ele><time>2011-09-24T00:46:32Z</time></trkpt><trkpt lat="44.5461590867" lon="14.4546946976"><ele>12.15</ele><time>2011-09-24T00:47:06Z</time></trkpt><trkpt lat="44.5461598411" lon="14.4546920154"><ele>12.15</ele><time>2011-09-24T00:47:45Z</time></trkpt><trkpt lat="44.5461605955" lon="14.4546880759"><ele>12.15</ele><time>2011-09-24T00:48:29Z</time></trkpt><trkpt lat="44.5461607631" lon="14.4546861481"><ele>12.15</ele><time>2011-09-24T00:49:00Z</time></trkpt><trkpt lat="44.5461605955" lon="14.4546871539"><ele>12.15</ele><time>2011-09-24T00:49:33Z</time></trkpt><trkpt lat="44.5461607631" lon="14.4546879921"><ele>12.63</ele><time>2011-09-24T00:50:09Z</time></trkpt><trkpt lat="44.5461562369" lon="14.4546872377"><ele>12.15</ele><time>2011-09-24T00:50:45Z</time></trkpt><trkpt lat="44.5461562369" lon="14.4546872377"><ele>12.15</ele><time>2011-09-24T00:51:17Z</time></trkpt><trkpt lat="44.5461548120" lon="14.4546932727"><ele>12.15</ele><time>2011-09-24T00:51:51Z</time></trkpt><trkpt lat="44.5461547282" lon="14.4546930213"><ele>12.15</ele><time>2011-09-24T00:52:24Z</time></trkpt><trkpt lat="44.5461539738" lon="14.4546915963"><ele>12.15</ele><time>2011-09-24T00:52:55Z</time></trkpt><trkpt lat="44.5461533871" lon="14.4546921831"><ele>11.67</ele><time>2011-09-24T00:53:26Z</time></trkpt><trkpt lat="44.5461533871" lon="14.4546921831"><ele>11.67</ele><time>2011-09-24T00:53:56Z</time></trkpt><trkpt lat="44.5461514592" lon="14.4546936918"><ele>11.67</ele><time>2011-09-24T00:54:28Z</time></trkpt><trkpt lat="44.5461515430" lon="14.4546879083"><ele>10.71</ele><time>2011-09-24T00:55:01Z</time></trkpt><trkpt lat="44.5461498667" lon="14.4546887465"><ele>11.19</ele><time>2011-09-24T00:55:31Z</time></trkpt><trkpt lat="44.5461500343" lon="14.4546848070"><ele>11.19</ele><time>2011-09-24T00:56:02Z</time></trkpt><trkpt lat="44.5461500343" lon="14.4546848070"><ele>11.19</ele><time>2011-09-24T00:56:37Z</time></trkpt><trkpt lat="44.5461499505" lon="14.4546827115"><ele>11.19</ele><time>2011-09-24T00:57:13Z</time></trkpt><trkpt lat="44.5461503696" lon="14.4546819571"><ele>11.19</ele><time>2011-09-24T00:57:49Z</time></trkpt><trkpt lat="44.5461510401" lon="14.4546807837"><ele>10.71</ele><time>2011-09-24T00:58:33Z</time></trkpt><trkpt lat="44.5461505372" lon="14.4546809513"><ele>10.71</ele><time>2011-09-24T00:59:14Z</time></trkpt><trkpt lat="44.5461496152" lon="14.4546830468"><ele>11.19</ele><time>2011-09-24T00:59:50Z</time></trkpt><trkpt lat="44.5461480226" lon="14.4546856452"><ele>10.71</ele><time>2011-09-24T01:00:26Z</time></trkpt><trkpt lat="44.5461494476" lon="14.4546838012"><ele>10.71</ele><time>2011-09-24T01:01:02Z</time></trkpt><trkpt lat="44.5461456757" lon="14.4546856452"><ele>10.71</ele><time>2011-09-24T01:01:35Z</time></trkpt><trkpt lat="44.5461479388" lon="14.4546885788"><ele>10.71</ele><time>2011-09-24T01:02:11Z</time></trkpt><trkpt lat="44.5461465139" lon="14.4546923507"><ele>10.71</ele><time>2011-09-24T01:02:49Z</time></trkpt><trkpt lat="44.5461429935" lon="14.4547002297"><ele>10.71</ele><time>2011-09-24T01:03:25Z</time></trkpt><trkpt lat="44.5461421553" lon="14.4547001459"><ele>10.71</ele><time>2011-09-24T01:04:00Z</time></trkpt><trkpt lat="44.5461421553" lon="14.4547001459"><ele>10.71</ele><time>2011-09-24T01:04:33Z</time></trkpt><trkpt lat="44.5461377967" lon="14.4547017384"><ele>10.23</ele><time>2011-09-24T01:05:07Z</time></trkpt><trkpt lat="44.5461364556" lon="14.4547022413"><ele>10.23</ele><time>2011-09-24T01:05:40Z</time></trkpt><trkpt lat="44.5461380482" lon="14.4547018223"><ele>10.23</ele><time>2011-09-24T01:06:15Z</time></trkpt><trkpt lat="44.5461366232" lon="14.4546992239"><ele>10.23</ele><time>2011-09-24T01:06:53Z</time></trkpt><trkpt lat="44.5461330190" lon="14.4546944462"><ele>10.23</ele><time>2011-09-24T01:07:33Z</time></trkpt><trkpt lat="44.5461314265" lon="14.4546921831"><ele>9.75</ele><time>2011-09-24T01:08:13Z</time></trkpt><trkpt lat="44.5461331028" lon="14.4546927698"><ele>9.75</ele><time>2011-09-24T01:08:54Z</time></trkpt><trkpt lat="44.5461315103" lon="14.4546882436"><ele>9.75</ele><time>2011-09-24T01:09:31Z</time></trkpt><trkpt lat="44.5461315941" lon="14.4546853937"><ele>9.27</ele><time>2011-09-24T01:10:17Z</time></trkpt><trkpt lat="44.5461319294" lon="14.4546865672"><ele>8.79</ele><time>2011-09-24T01:10:54Z</time></trkpt><trkpt lat="44.5461321808" lon="14.4546861481"><ele>8.31</ele><time>2011-09-24T01:11:26Z</time></trkpt><trkpt lat="44.5461334381" lon="14.4546895009"><ele>7.83</ele><time>2011-09-24T01:12:01Z</time></trkpt><trkpt lat="44.5461333543" lon="14.4546879921"><ele>7.35</ele><time>2011-09-24T01:12:38Z</time></trkpt><trkpt lat="44.5461333543" lon="14.4546879921"><ele>7.35</ele><time>2011-09-24T01:13:13Z</time></trkpt><trkpt lat="44.5461336896" lon="14.4546861481"><ele>6.87</ele><time>2011-09-24T01:13:48Z</time></trkpt><trkpt lat="44.5461341087" lon="14.4546875730"><ele>6.39</ele><time>2011-09-24T01:14:25Z</time></trkpt><trkpt lat="44.5461349469" lon="14.4546853099"><ele>5.91</ele><time>2011-09-24T01:15:01Z</time></trkpt><trkpt lat="44.5461340249" lon="14.4546831306"><ele>5.42</ele><time>2011-09-24T01:15:30Z</time></trkpt><trkpt lat="44.5461310074" lon="14.4546846393"><ele>5.42</ele><time>2011-09-24T01:16:05Z</time></trkpt><trkpt lat="44.5461247209" lon="14.4546885788"><ele>4.94</ele><time>2011-09-24T01:16:38Z</time></trkpt><trkpt lat="44.5461247209" lon="14.4546885788"><ele>4.94</ele><time>2011-09-24T01:17:16Z</time></trkpt><trkpt lat="44.5461276546" lon="14.4546917640"><ele>4.94</ele><time>2011-09-24T01:17:49Z</time></trkpt><trkpt lat="44.5461263135" lon="14.4546878245"><ele>4.46</ele><time>2011-09-24T01:18:27Z</time></trkpt><trkpt lat="44.5461207815" lon="14.4546889141"><ele>4.46</ele><time>2011-09-24T01:19:02Z</time></trkpt><trkpt lat="44.5461188536" lon="14.4546934403"><ele>3.50</ele><time>2011-09-24T01:19:44Z</time></trkpt><trkpt lat="44.5461171772" lon="14.4546912611"><ele>3.02</ele><time>2011-09-24T01:20:23Z</time></trkpt><trkpt lat="44.5461158361" lon="14.4546907581"><ele>3.02</ele><time>2011-09-24T01:21:03Z</time></trkpt><trkpt lat="44.5461164229" lon="14.4546886627"><ele>3.02</ele><time>2011-09-24T01:21:39Z</time></trkpt><trkpt lat="44.5461155847" lon="14.4546802808"><ele>2.06</ele><time>2011-09-24T01:22:17Z</time></trkpt><trkpt lat="44.5461163390" lon="14.4546776824"><ele>2.06</ele><time>2011-09-24T01:22:54Z</time></trkpt><trkpt lat="44.5461131539" lon="14.4546752516"><ele>1.58</ele><time>2011-09-24T01:23:30Z</time></trkpt><trkpt lat="44.5461111423" lon="14.4546727370"><ele>1.58</ele><time>2011-09-24T01:24:07Z</time></trkpt><trkpt lat="44.5461118966" lon="14.4546789397"><ele>1.58</ele><time>2011-09-24T01:24:48Z</time></trkpt><trkpt lat="44.5461163390" lon="14.4546814542"><ele>2.06</ele><time>2011-09-24T01:25:27Z</time></trkpt><trkpt lat="44.5461220387" lon="14.4546878245"><ele>2.06</ele><time>2011-09-24T01:26:05Z</time></trkpt><trkpt lat="44.5461224578" lon="14.4546932727"><ele>2.06</ele><time>2011-09-24T01:26:48Z</time></trkpt><trkpt lat="44.5461272355" lon="14.4546988048"><ele>1.58</ele><time>2011-09-24T01:27:29Z</time></trkpt><trkpt lat="44.5461258106" lon="14.4547086954"><ele>1.58</ele><time>2011-09-24T01:28:08Z</time></trkpt><trkpt lat="44.5461269002" lon="14.4547159877"><ele>1.10</ele><time>2011-09-24T01:28:48Z</time></trkpt><trkpt lat="44.5461263135" lon="14.4547146466"><ele>1.58</ele><time>2011-09-24T01:29:27Z</time></trkpt><trkpt lat="44.5461269002" lon="14.4547193404"><ele>1.10</ele><time>2011-09-24T01:30:05Z</time></trkpt><trkpt lat="44.5461288281" lon="14.4547212683"><ele>1.10</ele><time>2011-09-24T01:30:47Z</time></trkpt><trkpt lat="44.5461279061" lon="14.4547197595"><ele>1.10</ele><time>2011-09-24T01:31:22Z</time></trkpt><trkpt lat="44.5461279061" lon="14.4547197595"><ele>1.10</ele><time>2011-09-24T01:31:57Z</time></trkpt><trkpt lat="44.5461284928" lon="14.4547142275"><ele>1.10</ele><time>2011-09-24T01:32:35Z</time></trkpt><trkpt lat="44.5461276546" lon="14.4547162391"><ele>1.10</ele><time>2011-09-24T01:33:15Z</time></trkpt><trkpt lat="44.5461269002" lon="14.4547163229"><ele>1.58</ele><time>2011-09-24T01:33:51Z</time></trkpt><trkpt lat="44.5461268164" lon="14.4547169935"><ele>1.58</ele><time>2011-09-24T01:34:25Z</time></trkpt><trkpt lat="44.5461274032" lon="14.4547155686"><ele>2.06</ele><time>2011-09-24T01:35:02Z</time></trkpt><trkpt lat="44.5461315941" lon="14.4547187537"><ele>2.06</ele><time>2011-09-24T01:35:38Z</time></trkpt><trkpt lat="44.5461323485" lon="14.4547188375"><ele>2.06</ele><time>2011-09-24T01:36:13Z</time></trkpt><trkpt lat="44.5461358689" lon="14.4547156524"><ele>2.54</ele><time>2011-09-24T01:36:50Z</time></trkpt><trkpt lat="44.5461362880" lon="14.4547138922"><ele>2.54</ele><time>2011-09-24T01:37:22Z</time></trkpt><trkpt lat="44.5461362880" lon="14.4547138922"><ele>2.54</ele><time>2011-09-24T01:37:54Z</time></trkpt><trkpt lat="44.5461362880" lon="14.4547099527"><ele>2.54</ele><time>2011-09-24T01:38:29Z</time></trkpt><trkpt lat="44.5461391378" lon="14.4547053427"><ele>3.02</ele><time>2011-09-24T01:39:00Z</time></trkpt><trkpt lat="44.5461370423" lon="14.4547056779"><ele>3.02</ele><time>2011-09-24T01:39:31Z</time></trkpt><trkpt lat="44.5461359527" lon="14.4547022413"><ele>3.02</ele><time>2011-09-24T01:40:06Z</time></trkpt><trkpt lat="44.5461358689" lon="14.4547035825"><ele>3.02</ele><time>2011-09-24T01:40:46Z</time></trkpt><trkpt lat="44.5461356174" lon="14.4547044206"><ele>3.02</ele><time>2011-09-24T01:41:25Z</time></trkpt><trkpt lat="44.5461348630" lon="14.4547049236"><ele>3.02</ele><time>2011-09-24T01:42:06Z</time></trkpt><trkpt lat="44.5461346954" lon="14.4547071867"><ele>3.02</ele><time>2011-09-24T01:42:46Z</time></trkpt><trkpt lat="44.5461353660" lon="14.4547085278"><ele>3.02</ele><time>2011-09-24T01:43:28Z</time></trkpt><trkpt lat="44.5461351145" lon="14.4547085278"><ele>3.50</ele><time>2011-09-24T01:44:01Z</time></trkpt><trkpt lat="44.5461351145" lon="14.4547085278"><ele>3.50</ele><time>2011-09-24T01:44:34Z</time></trkpt><trkpt lat="44.5461327676" lon="14.4547103718"><ele>3.50</ele><time>2011-09-24T01:45:11Z</time></trkpt><trkpt lat="44.5461344440" lon="14.4547095336"><ele>3.98</ele><time>2011-09-24T01:45:48Z</time></trkpt><trkpt lat="44.5461366232" lon="14.4547117129"><ele>4.94</ele><time>2011-09-24T01:46:24Z</time></trkpt><trkpt lat="44.5461336896" lon="14.4547096174"><ele>4.94</ele><time>2011-09-24T01:46:59Z</time></trkpt><trkpt lat="44.5461414848" lon="14.4547135569"><ele>4.46</ele><time>2011-09-24T01:47:36Z</time></trkpt><trkpt lat="44.5461429935" lon="14.4547132216"><ele>4.46</ele><time>2011-09-24T01:48:14Z</time></trkpt><trkpt lat="44.5461396407" lon="14.4547122158"><ele>3.98</ele><time>2011-09-24T01:48:55Z</time></trkpt><trkpt lat="44.5461403951" lon="14.4547116291"><ele>3.98</ele><time>2011-09-24T01:49:29Z</time></trkpt><trkpt lat="44.5461379644" lon="14.4547097012"><ele>3.50</ele><time>2011-09-24T01:50:07Z</time></trkpt><trkpt lat="44.5461356174" lon="14.4547113776"><ele>3.98</ele><time>2011-09-24T01:50:44Z</time></trkpt><trkpt lat="44.5461338572" lon="14.4547128864"><ele>3.98</ele><time>2011-09-24T01:51:29Z</time></trkpt><trkpt lat="44.5461361203" lon="14.4547162391"><ele>3.98</ele><time>2011-09-24T01:52:12Z</time></trkpt><trkpt lat="44.5461336896" lon="14.4547210168"><ele>4.46</ele><time>2011-09-24T01:52:53Z</time></trkpt><trkpt lat="44.5461339410" lon="14.4547217712"><ele>4.46</ele><time>2011-09-24T01:53:38Z</time></trkpt><trkpt lat="44.5461337734" lon="14.4547258783"><ele>4.46</ele><time>2011-09-24T01:54:19Z</time></trkpt><trkpt lat="44.5461356174" lon="14.4547255430"><ele>4.94</ele><time>2011-09-24T01:55:02Z</time></trkpt><trkpt lat="44.5461380482" lon="14.4547228608"><ele>4.46</ele><time>2011-09-24T01:55:43Z</time></trkpt><trkpt lat="44.5461377129" lon="14.4547241181"><ele>4.46</ele><time>2011-09-24T01:56:27Z</time></trkpt><trkpt lat="44.5461364556" lon="14.4547223579"><ele>4.46</ele><time>2011-09-24T01:57:05Z</time></trkpt><trkpt lat="44.5461370423" lon="14.4547209330"><ele>4.94</ele><time>2011-09-24T01:57:40Z</time></trkpt><trkpt lat="44.5461396407" lon="14.4547160715"><ele>4.94</ele><time>2011-09-24T01:58:17Z</time></trkpt><trkpt lat="44.5461408142" lon="14.4547164068"><ele>4.94</ele><time>2011-09-24T01:58:56Z</time></trkpt><trkpt lat="44.5461404789" lon="14.4547158200"><ele>4.46</ele><time>2011-09-24T01:59:35Z</time></trkpt><trkpt lat="44.5461429097" lon="14.4547174964"><ele>3.98</ele><time>2011-09-24T02:00:14Z</time></trkpt><trkpt lat="44.5461435802" lon="14.4547148142"><ele>3.98</ele><time>2011-09-24T02:00:47Z</time></trkpt><trkpt lat="44.5461424906" lon="14.4547126349"><ele>3.98</ele><time>2011-09-24T02:01:28Z</time></trkpt><trkpt lat="44.5461438317" lon="14.4547107909"><ele>3.98</ele><time>2011-09-24T02:02:05Z</time></trkpt><trkpt lat="44.5461473521" lon="14.4547045045"><ele>4.46</ele><time>2011-09-24T02:02:40Z</time></trkpt><trkpt lat="44.5461473521" lon="14.4547045045"><ele>4.46</ele><time>2011-09-24T02:03:13Z</time></trkpt><trkpt lat="44.5461460948" lon="14.4547041692"><ele>5.42</ele><time>2011-09-24T02:03:47Z</time></trkpt><trkpt lat="44.5461461786" lon="14.4547024090"><ele>5.91</ele><time>2011-09-24T02:04:24Z</time></trkpt><trkpt lat="44.5461464301" lon="14.4546992239"><ele>5.91</ele><time>2011-09-24T02:05:00Z</time></trkpt><trkpt lat="44.5461482741" lon="14.4546941109"><ele>5.91</ele><time>2011-09-24T02:05:33Z</time></trkpt><trkpt lat="44.5461483579" lon="14.4546947815"><ele>5.91</ele><time>2011-09-24T02:06:07Z</time></trkpt><trkpt lat="44.5461491123" lon="14.4546967931"><ele>5.91</ele><time>2011-09-24T02:06:43Z</time></trkpt><trkpt lat="44.5461468492" lon="14.4546991400"><ele>5.91</ele><time>2011-09-24T02:07:22Z</time></trkpt><trkpt lat="44.5461468492" lon="14.4546991400"><ele>5.91</ele><time>2011-09-24T02:07:54Z</time></trkpt><trkpt lat="44.5461432450" lon="14.4547041692"><ele>5.91</ele><time>2011-09-24T02:08:33Z</time></trkpt><trkpt lat="44.5461421553" lon="14.4547069352"><ele>5.91</ele><time>2011-09-24T02:09:11Z</time></trkpt><trkpt lat="44.5461429097" lon="14.4547082763"><ele>5.91</ele><time>2011-09-24T02:09:51Z</time></trkpt><trkpt lat="44.5461387187" lon="14.4547168259"><ele>6.39</ele><time>2011-09-24T02:10:28Z</time></trkpt><trkpt lat="44.5461362042" lon="14.4547212683"><ele>5.91</ele><time>2011-09-24T02:11:07Z</time></trkpt><trkpt lat="44.5461374614" lon="14.4547226094"><ele>5.91</ele><time>2011-09-24T02:11:45Z</time></trkpt><trkpt lat="44.5461386349" lon="14.4547246210"><ele>5.91</ele><time>2011-09-24T02:12:21Z</time></trkpt><trkpt lat="44.5461374614" lon="14.4547298178"><ele>6.39</ele><time>2011-09-24T02:12:59Z</time></trkpt><trkpt lat="44.5461397246" lon="14.4547280576"><ele>6.39</ele><time>2011-09-24T02:13:38Z</time></trkpt><trkpt lat="44.5461416524" lon="14.4547245372"><ele>6.87</ele><time>2011-09-24T02:14:15Z</time></trkpt><trkpt lat="44.5461438317" lon="14.4547244534"><ele>6.39</ele><time>2011-09-24T02:14:52Z</time></trkpt><trkpt lat="44.5461445861" lon="14.4547237828"><ele>6.39</ele><time>2011-09-24T02:15:27Z</time></trkpt><trkpt lat="44.5461437479" lon="14.4547229446"><ele>6.39</ele><time>2011-09-24T02:16:01Z</time></trkpt><trkpt lat="44.5461423229" lon="14.4547217712"><ele>6.39</ele><time>2011-09-24T02:16:43Z</time></trkpt><trkpt lat="44.5461413171" lon="14.4547179155"><ele>5.91</ele><time>2011-09-24T02:17:19Z</time></trkpt><trkpt lat="44.5461413171" lon="14.4547179155"><ele>5.91</ele><time>2011-09-24T02:17:57Z</time></trkpt><trkpt lat="44.5461396407" lon="14.4547169097"><ele>5.91</ele><time>2011-09-24T02:18:32Z</time></trkpt><trkpt lat="44.5461361203" lon="14.4547183346"><ele>5.91</ele><time>2011-09-24T02:19:13Z</time></trkpt><trkpt lat="44.5461347792" lon="14.4547192566"><ele>5.91</ele><time>2011-09-24T02:19:51Z</time></trkpt><trkpt lat="44.5461311750" lon="14.4547172450"><ele>5.91</ele><time>2011-09-24T02:20:27Z</time></trkpt><trkpt lat="44.5461243857" lon="14.4547144789"><ele>5.91</ele><time>2011-09-24T02:21:05Z</time></trkpt><trkpt lat="44.5461189374" lon="14.4547143951"><ele>5.91</ele><time>2011-09-24T02:21:40Z</time></trkpt><trkpt lat="44.5461141597" lon="14.4547182508"><ele>5.91</ele><time>2011-09-24T02:22:18Z</time></trkpt><trkpt lat="44.5461051073" lon="14.4547312427"><ele>5.91</ele><time>2011-09-24T02:22:51Z</time></trkpt><trkpt lat="44.5461061969" lon="14.4547311589"><ele>5.91</ele><time>2011-09-24T02:23:25Z</time></trkpt><trkpt lat="44.5461091306" lon="14.4547382835"><ele>5.91</ele><time>2011-09-24T02:24:05Z</time></trkpt><trkpt lat="44.5461120643" lon="14.4547445700"><ele>6.39</ele><time>2011-09-24T02:24:44Z</time></trkpt><trkpt lat="44.5461142436" lon="14.4547459111"><ele>6.39</ele><time>2011-09-24T02:25:18Z</time></trkpt><trkpt lat="44.5461142436" lon="14.4547459111"><ele>6.39</ele><time>2011-09-24T02:25:53Z</time></trkpt><trkpt lat="44.5461188536" lon="14.4547477551"><ele>7.35</ele><time>2011-09-24T02:26:27Z</time></trkpt><trkpt lat="44.5461226255" lon="14.4547523651"><ele>7.35</ele><time>2011-09-24T02:27:01Z</time></trkpt><trkpt lat="44.5461254753" lon="14.4547594897"><ele>7.83</ele><time>2011-09-24T02:27:39Z</time></trkpt><trkpt lat="44.5461280737" lon="14.4547634292"><ele>7.83</ele><time>2011-09-24T02:28:15Z</time></trkpt><trkpt lat="44.5461288281" lon="14.4547654409"><ele>7.83</ele><time>2011-09-24T02:28:53Z</time></trkpt><trkpt lat="44.5461296663" lon="14.4547684584"><ele>7.83</ele><time>2011-09-24T02:29:32Z</time></trkpt><trkpt lat="44.5461279061" lon="14.4547672849"><ele>8.31</ele><time>2011-09-24T02:30:09Z</time></trkpt><trkpt lat="44.5461211167" lon="14.4547697157"><ele>8.31</ele><time>2011-09-24T02:30:43Z</time></trkpt><trkpt lat="44.5461212844" lon="14.4547745772"><ele>8.79</ele><time>2011-09-24T02:31:21Z</time></trkpt><trkpt lat="44.5461213682" lon="14.4547758345"><ele>8.79</ele><time>2011-09-24T02:32:02Z</time></trkpt><trkpt lat="44.5461209491" lon="14.4547781814"><ele>9.27</ele><time>2011-09-24T02:32:42Z</time></trkpt><trkpt lat="44.5461222902" lon="14.4547748286"><ele>9.27</ele><time>2011-09-24T02:33:19Z</time></trkpt><trkpt lat="44.5461222902" lon="14.4547748286"><ele>9.27</ele><time>2011-09-24T02:33:57Z</time></trkpt><trkpt lat="44.5461234637" lon="14.4547642674"><ele>9.75</ele><time>2011-09-24T02:34:34Z</time></trkpt><trkpt lat="44.5461268164" lon="14.4547555503"><ele>9.75</ele><time>2011-09-24T02:35:10Z</time></trkpt><trkpt lat="44.5461319294" lon="14.4547504373"><ele>9.75</ele><time>2011-09-24T02:35:48Z</time></trkpt><trkpt lat="44.5461361203" lon="14.4547459949"><ele>9.75</ele><time>2011-09-24T02:36:25Z</time></trkpt><trkpt lat="44.5461393055" lon="14.4547457434"><ele>9.75</ele><time>2011-09-24T02:37:02Z</time></trkpt><trkpt lat="44.5461424906" lon="14.4547435641"><ele>10.23</ele><time>2011-09-24T02:37:40Z</time></trkpt><trkpt lat="44.5461439993" lon="14.4547449052"><ele>10.23</ele><time>2011-09-24T02:38:18Z</time></trkpt><trkpt lat="44.5461517945" lon="14.4547390379"><ele>11.19</ele><time>2011-09-24T02:38:54Z</time></trkpt><trkpt lat="44.5461503696" lon="14.4547354337"><ele>11.19</ele><time>2011-09-24T02:39:31Z</time></trkpt><trkpt lat="44.5461501181" lon="14.4547338411"><ele>11.67</ele><time>2011-09-24T02:40:08Z</time></trkpt><trkpt lat="44.5461503696" lon="14.4547323324"><ele>12.15</ele><time>2011-09-24T02:40:44Z</time></trkpt><trkpt lat="44.5461502858" lon="14.4547317456"><ele>12.63</ele><time>2011-09-24T02:41:22Z</time></trkpt><trkpt lat="44.5461529680" lon="14.4547288120"><ele>13.12</ele><time>2011-09-24T02:42:01Z</time></trkpt><trkpt lat="44.5461550634" lon="14.4547283091"><ele>13.60</ele><time>2011-09-24T02:42:40Z</time></trkpt><trkpt lat="44.5461550634" lon="14.4547283091"><ele>13.60</ele><time>2011-09-24T02:43:15Z</time></trkpt><trkpt lat="44.5461519621" lon="14.4547321647"><ele>14.08</ele><time>2011-09-24T02:43:50Z</time></trkpt><trkpt lat="44.5461502019" lon="14.4547319971"><ele>14.08</ele><time>2011-09-24T02:44:27Z</time></trkpt><trkpt lat="44.5461484417" lon="14.4547328353"><ele>14.56</ele><time>2011-09-24T02:45:08Z</time></trkpt><trkpt lat="44.5461468492" lon="14.4547329191"><ele>14.56</ele><time>2011-09-24T02:45:49Z</time></trkpt><trkpt lat="44.5461467654" lon="14.4547318295"><ele>14.56</ele><time>2011-09-24T02:46:23Z</time></trkpt><trkpt lat="44.5461472683" lon="14.4547330867"><ele>15.04</ele><time>2011-09-24T02:47:00Z</time></trkpt><trkpt lat="44.5461442508" lon="14.4547331706"><ele>15.04</ele><time>2011-09-24T02:47:36Z</time></trkpt><trkpt lat="44.5461431611" lon="14.4547299854"><ele>15.04</ele><time>2011-09-24T02:48:15Z</time></trkpt><trkpt lat="44.5461458433" lon="14.4547311589"><ele>15.04</ele><time>2011-09-24T02:48:54Z</time></trkpt><trkpt lat="44.5461458433" lon="14.4547304884"><ele>14.56</ele><time>2011-09-24T02:49:27Z</time></trkpt><trkpt lat="44.5461429097" lon="14.4547285605"><ele>13.60</ele><time>2011-09-24T02:49:59Z</time></trkpt><trkpt lat="44.5461429097" lon="14.4547285605"><ele>13.60</ele><time>2011-09-24T02:50:35Z</time></trkpt><trkpt lat="44.5461427420" lon="14.4547299016"><ele>13.12</ele><time>2011-09-24T02:51:13Z</time></trkpt><trkpt lat="44.5461456757" lon="14.4547288120"><ele>13.12</ele><time>2011-09-24T02:51:47Z</time></trkpt><trkpt lat="44.5461469330" lon="14.4547282252"><ele>12.63</ele><time>2011-09-24T02:52:21Z</time></trkpt><trkpt lat="44.5461454242" lon="14.4547247048"><ele>12.15</ele><time>2011-09-24T02:52:49Z</time></trkpt><trkpt lat="44.5461510401" lon="14.4547262974"><ele>11.67</ele><time>2011-09-24T02:53:22Z</time></trkpt><trkpt lat="44.5461510401" lon="14.4547262974"><ele>11.67</ele><time>2011-09-24T02:53:56Z</time></trkpt><trkpt lat="44.5461533871" lon="14.4547410496"><ele>10.23</ele><time>2011-09-24T02:54:33Z</time></trkpt><trkpt lat="44.5461534709" lon="14.4547470845"><ele>9.75</ele><time>2011-09-24T02:55:07Z</time></trkpt><trkpt lat="44.5461599249" lon="14.4547467493"><ele>10.23</ele><time>2011-09-24T02:55:41Z</time></trkpt><trkpt lat="44.5461577456" lon="14.4547489285"><ele>9.75</ele><time>2011-09-24T02:56:15Z</time></trkpt><trkpt lat="44.5461592544" lon="14.4547492638"><ele>9.27</ele><time>2011-09-24T02:56:50Z</time></trkpt><trkpt lat="44.5461559854" lon="14.4547506887"><ele>9.27</ele><time>2011-09-24T02:57:27Z</time></trkpt><trkpt lat="44.5461595897" lon="14.4547481742"><ele>9.75</ele><time>2011-09-24T02:58:04Z</time></trkpt><trkpt lat="44.5461604279" lon="14.4547472522"><ele>9.75</ele><time>2011-09-24T02:58:40Z</time></trkpt><trkpt lat="44.5461629424" lon="14.4547464978"><ele>9.75</ele><time>2011-09-24T02:59:19Z</time></trkpt><trkpt lat="44.5461629424" lon="14.4547464978"><ele>9.75</ele><time>2011-09-24T02:59:52Z</time></trkpt><trkpt lat="44.5461657085" lon="14.4547430612"><ele>9.75</ele><time>2011-09-24T03:00:26Z</time></trkpt><trkpt lat="44.5461669657" lon="14.4547397923"><ele>9.27</ele><time>2011-09-24T03:00:59Z</time></trkpt><trkpt lat="44.5461648703" lon="14.4547388703"><ele>9.27</ele><time>2011-09-24T03:01:33Z</time></trkpt><trkpt lat="44.5461631939" lon="14.4547376130"><ele>9.27</ele><time>2011-09-24T03:02:05Z</time></trkpt><trkpt lat="44.5461592544" lon="14.4547381159"><ele>8.79</ele><time>2011-09-24T03:02:43Z</time></trkpt><trkpt lat="44.5461581647" lon="14.4547339249"><ele>8.31</ele><time>2011-09-24T03:03:18Z</time></trkpt><trkpt lat="44.5461581647" lon="14.4547339249"><ele>8.31</ele><time>2011-09-24T03:03:54Z</time></trkpt><trkpt lat="44.5461588353" lon="14.4547274709"><ele>8.31</ele><time>2011-09-24T03:04:30Z</time></trkpt><trkpt lat="44.5461565722" lon="14.4547253754"><ele>9.27</ele><time>2011-09-24T03:05:07Z</time></trkpt><trkpt lat="44.5461554825" lon="14.4547232799"><ele>9.27</ele><time>2011-09-24T03:05:45Z</time></trkpt><trkpt lat="44.5461529680" lon="14.4547177479"><ele>9.27</ele><time>2011-09-24T03:06:20Z</time></trkpt><trkpt lat="44.5461525489" lon="14.4547137246"><ele>9.27</ele><time>2011-09-24T03:06:53Z</time></trkpt><trkpt lat="44.5461543091" lon="14.4547112100"><ele>9.27</ele><time>2011-09-24T03:07:29Z</time></trkpt><trkpt lat="44.5461529680" lon="14.4547124673"><ele>8.79</ele><time>2011-09-24T03:08:04Z</time></trkpt><trkpt lat="44.5461507887" lon="14.4547111262"><ele>9.75</ele><time>2011-09-24T03:08:40Z</time></trkpt><trkpt lat="44.5461435802" lon="14.4547014870"><ele>9.75</ele><time>2011-09-24T03:09:21Z</time></trkpt><trkpt lat="44.5461431611" lon="14.4547009841"><ele>9.27</ele><time>2011-09-24T03:09:58Z</time></trkpt><trkpt lat="44.5461431611" lon="14.4547009841"><ele>9.27</ele><time>2011-09-24T03:10:34Z</time></trkpt><trkpt lat="44.5461416524" lon="14.4547002297"><ele>9.27</ele><time>2011-09-24T03:11:09Z</time></trkpt><trkpt lat="44.5461431611" lon="14.4546986371"><ele>9.27</ele><time>2011-09-24T03:11:44Z</time></trkpt><trkpt lat="44.5461427420" lon="14.4547003135"><ele>9.27</ele><time>2011-09-24T03:12:20Z</time></trkpt><trkpt lat="44.5461435802" lon="14.4547031634"><ele>9.27</ele><time>2011-09-24T03:12:52Z</time></trkpt><trkpt lat="44.5461404789" lon="14.4547050074"><ele>8.79</ele><time>2011-09-24T03:13:25Z</time></trkpt><trkpt lat="44.5461398922" lon="14.4547091145"><ele>9.27</ele><time>2011-09-24T03:13:59Z</time></trkpt><trkpt lat="44.5461398922" lon="14.4547091145"><ele>9.27</ele><time>2011-09-24T03:14:29Z</time></trkpt><trkpt lat="44.5461422391" lon="14.4547101203"><ele>9.27</ele><time>2011-09-24T03:15:01Z</time></trkpt><trkpt lat="44.5461442508" lon="14.4547094498"><ele>9.27</ele><time>2011-09-24T03:15:36Z</time></trkpt><trkpt lat="44.5461422391" lon="14.4547104556"><ele>9.27</ele><time>2011-09-24T03:16:11Z</time></trkpt><trkpt lat="44.5461426582" lon="14.4547091983"><ele>9.27</ele><time>2011-09-24T03:16:43Z</time></trkpt><trkpt lat="44.5461421553" lon="14.4547116291"><ele>9.75</ele><time>2011-09-24T03:17:19Z</time></trkpt><trkpt lat="44.5461421553" lon="14.4547116291"><ele>9.75</ele><time>2011-09-24T03:17:53Z</time></trkpt><trkpt lat="44.5461409818" lon="14.4547150657"><ele>9.75</ele><time>2011-09-24T03:18:32Z</time></trkpt><trkpt lat="44.5461419038" lon="14.4547171611"><ele>9.75</ele><time>2011-09-24T03:19:12Z</time></trkpt><trkpt lat="44.5461398922" lon="14.4547183346"><ele>9.75</ele><time>2011-09-24T03:19:46Z</time></trkpt><trkpt lat="44.5461386349" lon="14.4547262136"><ele>9.75</ele><time>2011-09-24T03:20:24Z</time></trkpt><trkpt lat="44.5461323485" lon="14.4547266327"><ele>9.75</ele><time>2011-09-24T03:20:57Z</time></trkpt><trkpt lat="44.5461337734" lon="14.4547284767"><ele>10.23</ele><time>2011-09-24T03:21:31Z</time></trkpt><trkpt lat="44.5461324323" lon="14.4547292311"><ele>10.23</ele><time>2011-09-24T03:22:05Z</time></trkpt><trkpt lat="44.5461325999" lon="14.4547322486"><ele>9.75</ele><time>2011-09-24T03:22:39Z</time></trkpt><trkpt lat="44.5461325999" lon="14.4547322486"><ele>9.75</ele><time>2011-09-24T03:23:14Z</time></trkpt><trkpt lat="44.5461324323" lon="14.4547314104"><ele>10.23</ele><time>2011-09-24T03:23:55Z</time></trkpt><trkpt lat="44.5461316779" lon="14.4547317456"><ele>9.27</ele><time>2011-09-24T03:24:28Z</time></trkpt><trkpt lat="44.5461372938" lon="14.4547323324"><ele>10.23</ele><time>2011-09-24T03:25:03Z</time></trkpt><trkpt lat="44.5461374614" lon="14.4547330029"><ele>9.75</ele><time>2011-09-24T03:25:34Z</time></trkpt><trkpt lat="44.5461373776" lon="14.4547358528"><ele>10.23</ele><time>2011-09-24T03:26:05Z</time></trkpt><trkpt lat="44.5461373776" lon="14.4547358528"><ele>10.23</ele><time>2011-09-24T03:26:33Z</time></trkpt><trkpt lat="44.5461382158" lon="14.4547379483"><ele>10.23</ele><time>2011-09-24T03:27:04Z</time></trkpt><trkpt lat="44.5461392216" lon="14.4547367748"><ele>10.23</ele><time>2011-09-24T03:27:39Z</time></trkpt><trkpt lat="44.5461381320" lon="14.4547411334"><ele>10.23</ele><time>2011-09-24T03:28:13Z</time></trkpt><trkpt lat="44.5461384673" lon="14.4547374453"><ele>10.23</ele><time>2011-09-24T03:28:52Z</time></trkpt><trkpt lat="44.5461404789" lon="14.4547367748"><ele>10.23</ele><time>2011-09-24T03:29:25Z</time></trkpt><trkpt lat="44.5461429935" lon="14.4547346793"><ele>10.23</ele><time>2011-09-24T03:29:58Z</time></trkpt><trkpt lat="44.5461414009" lon="14.4547345955"><ele>10.23</ele><time>2011-09-24T03:30:40Z</time></trkpt><trkpt lat="44.5461394731" lon="14.4547314104"><ele>10.23</ele><time>2011-09-24T03:31:18Z</time></trkpt><trkpt lat="44.5461394731" lon="14.4547314104"><ele>10.23</ele><time>2011-09-24T03:31:51Z</time></trkpt><trkpt lat="44.5461404789" lon="14.4547359366"><ele>10.23</ele><time>2011-09-24T03:32:28Z</time></trkpt><trkpt lat="44.5461357851" lon="14.4547383673"><ele>10.23</ele><time>2011-09-24T03:33:02Z</time></trkpt><trkpt lat="44.5461352821" lon="14.4547376130"><ele>10.71</ele><time>2011-09-24T03:33:39Z</time></trkpt><trkpt lat="44.5461353660" lon="14.4547464978"><ele>10.71</ele><time>2011-09-24T03:34:18Z</time></trkpt><trkpt lat="44.5461361203" lon="14.4547485933"><ele>10.23</ele><time>2011-09-24T03:34:54Z</time></trkpt><trkpt lat="44.5461352821" lon="14.4547449891"><ele>10.23</ele><time>2011-09-24T03:35:36Z</time></trkpt><trkpt lat="44.5461398922" lon="14.4547470845"><ele>9.75</ele><time>2011-09-24T03:36:20Z</time></trkpt><trkpt lat="44.5461377129" lon="14.4547433127"><ele>9.27</ele><time>2011-09-24T03:36:57Z</time></trkpt><trkpt lat="44.5461368747" lon="14.4547417201"><ele>9.27</ele><time>2011-09-24T03:37:38Z</time></trkpt><trkpt lat="44.5461377129" lon="14.4547413010"><ele>9.27</ele><time>2011-09-24T03:38:15Z</time></trkpt><trkpt lat="44.5461371262" lon="14.4547402952"><ele>9.27</ele><time>2011-09-24T03:38:48Z</time></trkpt><trkpt lat="44.5461373776" lon="14.4547387026"><ele>9.27</ele><time>2011-09-24T03:39:27Z</time></trkpt><trkpt lat="44.5461385511" lon="14.4547360204"><ele>9.27</ele><time>2011-09-24T03:40:09Z</time></trkpt><trkpt lat="44.5461403951" lon="14.4547369424"><ele>9.75</ele><time>2011-09-24T03:40:46Z</time></trkpt><trkpt lat="44.5461423229" lon="14.4547356013"><ele>9.75</ele><time>2011-09-24T03:41:24Z</time></trkpt><trkpt lat="44.5461439993" lon="14.4547372777"><ele>9.27</ele><time>2011-09-24T03:42:02Z</time></trkpt><trkpt lat="44.5461451728" lon="14.4547376130"><ele>9.27</ele><time>2011-09-24T03:42:39Z</time></trkpt><trkpt lat="44.5461493637" lon="14.4547385350"><ele>8.79</ele><time>2011-09-24T03:43:19Z</time></trkpt><trkpt lat="44.5461493637" lon="14.4547385350"><ele>8.79</ele><time>2011-09-24T03:43:53Z</time></trkpt><trkpt lat="44.5461522136" lon="14.4547363557"><ele>8.79</ele><time>2011-09-24T03:44:28Z</time></trkpt><trkpt lat="44.5461522974" lon="14.4547333382"><ele>8.31</ele><time>2011-09-24T03:45:02Z</time></trkpt><trkpt lat="44.5461504534" lon="14.4547350146"><ele>8.31</ele><time>2011-09-24T03:45:39Z</time></trkpt><trkpt lat="44.5461507887" lon="14.4547330029"><ele>8.31</ele><time>2011-09-24T03:46:14Z</time></trkpt><trkpt lat="44.5461533871" lon="14.4547369424"><ele>8.31</ele><time>2011-09-24T03:46:48Z</time></trkpt><trkpt lat="44.5461548958" lon="14.4547353499"><ele>8.31</ele><time>2011-09-24T03:47:20Z</time></trkpt><trkpt lat="44.5461548958" lon="14.4547353499"><ele>8.31</ele><time>2011-09-24T03:47:52Z</time></trkpt><trkpt lat="44.5461554825" lon="14.4547341764"><ele>8.31</ele><time>2011-09-24T03:48:24Z</time></trkpt><trkpt lat="44.5461543091" lon="14.4547317456"><ele>7.83</ele><time>2011-09-24T03:48:58Z</time></trkpt><trkpt lat="44.5461531356" lon="14.4547300693"><ele>7.83</ele><time>2011-09-24T03:49:31Z</time></trkpt><trkpt lat="44.5461520460" lon="14.4547273032"><ele>7.83</ele><time>2011-09-24T03:50:06Z</time></trkpt><trkpt lat="44.5461497828" lon="14.4547253754"><ele>7.83</ele><time>2011-09-24T03:50:43Z</time></trkpt><trkpt lat="44.5461479388" lon="14.4547221903"><ele>8.31</ele><time>2011-09-24T03:51:19Z</time></trkpt><trkpt lat="44.5461479388" lon="14.4547221903"><ele>8.31</ele><time>2011-09-24T03:51:54Z</time></trkpt><trkpt lat="44.5461467654" lon="14.4547181670"><ele>8.31</ele><time>2011-09-24T03:52:34Z</time></trkpt><trkpt lat="44.5461444184" lon="14.4547162391"><ele>8.31</ele><time>2011-09-24T03:53:15Z</time></trkpt><trkpt lat="44.5461427420" lon="14.4547140598"><ele>8.31</ele><time>2011-09-24T03:53:51Z</time></trkpt><trkpt lat="44.5461427420" lon="14.4547158200"><ele>8.31</ele><time>2011-09-24T03:54:27Z</time></trkpt><trkpt lat="44.5461414848" lon="14.4547136407"><ele>8.31</ele><time>2011-09-24T03:55:07Z</time></trkpt><trkpt lat="44.5461434964" lon="14.4547187537"><ele>8.31</ele><time>2011-09-24T03:55:45Z</time></trkpt><trkpt lat="44.5461402275" lon="14.4547207654"><ele>7.83</ele><time>2011-09-24T03:56:21Z</time></trkpt><trkpt lat="44.5461367071" lon="14.4547253754"><ele>7.83</ele><time>2011-09-24T03:56:59Z</time></trkpt><trkpt lat="44.5461340249" lon="14.4547281414"><ele>7.35</ele><time>2011-09-24T03:57:32Z</time></trkpt><trkpt lat="44.5461334381" lon="14.4547336735"><ele>7.35</ele><time>2011-09-24T03:58:08Z</time></trkpt><trkpt lat="44.5461325999" lon="14.4547359366"><ele>7.35</ele><time>2011-09-24T03:58:47Z</time></trkpt><trkpt lat="44.5461300015" lon="14.4547352660"><ele>7.83</ele><time>2011-09-24T03:59:25Z</time></trkpt><trkpt lat="44.5461284090" lon="14.4547368586"><ele>7.83</ele><time>2011-09-24T04:00:00Z</time></trkpt><trkpt lat="44.5461284090" lon="14.4547368586"><ele>7.83</ele><time>2011-09-24T04:00:36Z</time></trkpt><trkpt lat="44.5461281575" lon="14.4547388703"><ele>7.83</ele><time>2011-09-24T04:01:12Z</time></trkpt><trkpt lat="44.5461265650" lon="14.4547378644"><ele>8.31</ele><time>2011-09-24T04:01:46Z</time></trkpt><trkpt lat="44.5461251400" lon="14.4547387864"><ele>8.31</ele><time>2011-09-24T04:02:23Z</time></trkpt><trkpt lat="44.5461242180" lon="14.4547403790"><ele>8.79</ele><time>2011-09-24T04:02:58Z</time></trkpt><trkpt lat="44.5461228769" lon="14.4547424745"><ele>8.79</ele><time>2011-09-24T04:03:38Z</time></trkpt><trkpt lat="44.5461226255" lon="14.4547437318"><ele>9.27</ele><time>2011-09-24T04:04:20Z</time></trkpt><trkpt lat="44.5461220387" lon="14.4547432289"><ele>9.27</ele><time>2011-09-24T04:04:56Z</time></trkpt><trkpt lat="44.5461206976" lon="14.4547423068"><ele>8.79</ele><time>2011-09-24T04:05:41Z</time></trkpt><trkpt lat="44.5461201109" lon="14.4547416363"><ele>8.79</ele><time>2011-09-24T04:06:22Z</time></trkpt><trkpt lat="44.5461184345" lon="14.4547412172"><ele>8.79</ele><time>2011-09-24T04:07:04Z</time></trkpt><trkpt lat="44.5461174287" lon="14.4547438994"><ele>8.79</ele><time>2011-09-24T04:07:49Z</time></trkpt><trkpt lat="44.5461150818" lon="14.4547441509"><ele>8.31</ele><time>2011-09-24T04:08:36Z</time></trkpt><trkpt lat="44.5461106393" lon="14.4547484256"><ele>8.31</ele><time>2011-09-24T04:09:13Z</time></trkpt><trkpt lat="44.5461072866" lon="14.4547435641"><ele>6.87</ele><time>2011-09-24T04:10:01Z</time></trkpt><trkpt lat="44.5461072866" lon="14.4547435641"><ele>6.87</ele><time>2011-09-24T04:10:37Z</time></trkpt><trkpt lat="44.5461035985" lon="14.4547426421"><ele>6.39</ele><time>2011-09-24T04:11:19Z</time></trkpt><trkpt lat="44.5461035985" lon="14.4547426421"><ele>6.39</ele><time>2011-09-24T04:11:55Z</time></trkpt><trkpt lat="44.5461060293" lon="14.4547377806"><ele>5.91</ele><time>2011-09-24T04:12:25Z</time></trkpt><trkpt lat="44.5461054426" lon="14.4547353499"><ele>5.42</ele><time>2011-09-24T04:13:02Z</time></trkpt><trkpt lat="44.5461051073" lon="14.4547326677"><ele>5.42</ele><time>2011-09-24T04:13:40Z</time></trkpt><trkpt lat="44.5461044367" lon="14.4547306560"><ele>5.42</ele><time>2011-09-24T04:14:16Z</time></trkpt><trkpt lat="44.5461043529" lon="14.4547259621"><ele>5.42</ele><time>2011-09-24T04:14:50Z</time></trkpt><trkpt lat="44.5461016707" lon="14.4547257945"><ele>5.42</ele><time>2011-09-24T04:15:28Z</time></trkpt><trkpt lat="44.5461058617" lon="14.4547223579"><ele>5.42</ele><time>2011-09-24T04:16:10Z</time></trkpt><trkpt lat="44.5461109746" lon="14.4547229446"><ele>5.42</ele><time>2011-09-24T04:16:45Z</time></trkpt><trkpt lat="44.5461120643" lon="14.4547232799"><ele>5.42</ele><time>2011-09-24T04:17:25Z</time></trkpt><trkpt lat="44.5461105555" lon="14.4547240343"><ele>5.42</ele><time>2011-09-24T04:18:02Z</time></trkpt><trkpt lat="44.5461090468" lon="14.4547245372"><ele>5.42</ele><time>2011-09-24T04:18:41Z</time></trkpt><trkpt lat="44.5461093821" lon="14.4547256269"><ele>5.42</ele><time>2011-09-24T04:19:22Z</time></trkpt><trkpt lat="44.5461124834" lon="14.4547273032"><ele>5.91</ele><time>2011-09-24T04:20:03Z</time></trkpt><trkpt lat="44.5461141597" lon="14.4547305722"><ele>5.91</ele><time>2011-09-24T04:20:41Z</time></trkpt><trkpt lat="44.5461143274" lon="14.4547314104"><ele>5.91</ele><time>2011-09-24T04:21:22Z</time></trkpt><trkpt lat="44.5461134892" lon="14.4547319133"><ele>5.91</ele><time>2011-09-24T04:22:01Z</time></trkpt><trkpt lat="44.5461155009" lon="14.4547376130"><ele>5.91</ele><time>2011-09-24T04:22:40Z</time></trkpt><trkpt lat="44.5461228769" lon="14.4547351822"><ele>6.39</ele><time>2011-09-24T04:23:21Z</time></trkpt><trkpt lat="44.5461228769" lon="14.4547351822"><ele>6.39</ele><time>2011-09-24T04:23:57Z</time></trkpt><trkpt lat="44.5461207815" lon="14.4547357690"><ele>6.39</ele><time>2011-09-24T04:24:35Z</time></trkpt><trkpt lat="44.5461217035" lon="14.4547380321"><ele>6.39</ele><time>2011-09-24T04:25:15Z</time></trkpt><trkpt lat="44.5461255591" lon="14.4547372777"><ele>6.87</ele><time>2011-09-24T04:25:49Z</time></trkpt><trkpt lat="44.5461294148" lon="14.4547418877"><ele>6.39</ele><time>2011-09-24T04:26:25Z</time></trkpt><trkpt lat="44.5461288281" lon="14.4547430612"><ele>6.39</ele><time>2011-09-24T04:27:02Z</time></trkpt><trkpt lat="44.5461265650" lon="14.4547454081"><ele>6.39</ele><time>2011-09-24T04:27:38Z</time></trkpt><trkpt lat="44.5461257268" lon="14.4547419716"><ele>6.87</ele><time>2011-09-24T04:28:16Z</time></trkpt><trkpt lat="44.5461246371" lon="14.4547454920"><ele>6.87</ele><time>2011-09-24T04:28:54Z</time></trkpt><trkpt lat="44.5461238828" lon="14.4547525328"><ele>6.39</ele><time>2011-09-24T04:29:31Z</time></trkpt><trkpt lat="44.5461227093" lon="14.4547567237"><ele>6.39</ele><time>2011-09-24T04:30:09Z</time></trkpt><trkpt lat="44.5461260621" lon="14.4547579810"><ele>6.39</ele><time>2011-09-24T04:30:48Z</time></trkpt><trkpt lat="44.5461253915" lon="14.4547566399"><ele>5.91</ele><time>2011-09-24T04:31:30Z</time></trkpt><trkpt lat="44.5461269002" lon="14.4547570590"><ele>5.91</ele><time>2011-09-24T04:32:09Z</time></trkpt><trkpt lat="44.5461274032" lon="14.4547566399"><ele>5.91</ele><time>2011-09-24T04:32:50Z</time></trkpt><trkpt lat="44.5461305883" lon="14.4547519460"><ele>5.91</ele><time>2011-09-24T04:33:30Z</time></trkpt><trkpt lat="44.5461319294" lon="14.4547502697"><ele>6.39</ele><time>2011-09-24T04:34:12Z</time></trkpt><trkpt lat="44.5461331867" lon="14.4547458272"><ele>5.91</ele><time>2011-09-24T04:34:48Z</time></trkpt><trkpt lat="44.5461327676" lon="14.4547437318"><ele>5.91</ele><time>2011-09-24T04:35:25Z</time></trkpt><trkpt lat="44.5461318456" lon="14.4547433127"><ele>6.39</ele><time>2011-09-24T04:36:06Z</time></trkpt><trkpt lat="44.5461313426" lon="14.4547400437"><ele>6.39</ele><time>2011-09-24T04:36:43Z</time></trkpt><trkpt lat="44.5461322647" lon="14.4547392894"><ele>6.39</ele><time>2011-09-24T04:37:23Z</time></trkpt><trkpt lat="44.5461341925" lon="14.4547370262"><ele>6.39</ele><time>2011-09-24T04:38:00Z</time></trkpt><trkpt lat="44.5461341925" lon="14.4547370262"><ele>6.39</ele><time>2011-09-24T04:38:32Z</time></trkpt><trkpt lat="44.5461346116" lon="14.4547340088"><ele>6.39</ele><time>2011-09-24T04:39:03Z</time></trkpt><trkpt lat="44.5461325999" lon="14.4547360204"><ele>6.39</ele><time>2011-09-24T04:39:35Z</time></trkpt><trkpt lat="44.5461286604" lon="14.4547262136"><ele>6.39</ele><time>2011-09-24T04:40:11Z</time></trkpt><trkpt lat="44.5461262297" lon="14.4547268841"><ele>6.39</ele><time>2011-09-24T04:40:48Z</time></trkpt><trkpt lat="44.5461281575" lon="14.4547242858"><ele>6.87</ele><time>2011-09-24T04:41:28Z</time></trkpt><trkpt lat="44.5461289957" lon="14.4547236990"><ele>6.87</ele><time>2011-09-24T04:42:05Z</time></trkpt><trkpt lat="44.5461285766" lon="14.4547226094"><ele>6.87</ele><time>2011-09-24T04:42:40Z</time></trkpt><trkpt lat="44.5461285766" lon="14.4547226094"><ele>6.87</ele><time>2011-09-24T04:43:15Z</time></trkpt><trkpt lat="44.5461263135" lon="14.4547259621"><ele>6.87</ele><time>2011-09-24T04:43:50Z</time></trkpt><trkpt lat="44.5461273193" lon="14.4547258783"><ele>7.35</ele><time>2011-09-24T04:44:27Z</time></trkpt><trkpt lat="44.5461285766" lon="14.4547243696"><ele>7.83</ele><time>2011-09-24T04:45:01Z</time></trkpt><trkpt lat="44.5461283252" lon="14.4547271356"><ele>7.83</ele><time>2011-09-24T04:45:40Z</time></trkpt><trkpt lat="44.5461274032" lon="14.4547305722"><ele>7.83</ele><time>2011-09-24T04:46:15Z</time></trkpt><trkpt lat="44.5461270679" lon="14.4547331706"><ele>7.83</ele><time>2011-09-24T04:46:51Z</time></trkpt><trkpt lat="44.5461259782" lon="14.4547320809"><ele>7.83</ele><time>2011-09-24T04:47:27Z</time></trkpt><trkpt lat="44.5461239666" lon="14.4547351822"><ele>7.83</ele><time>2011-09-24T04:48:02Z</time></trkpt><trkpt lat="44.5461239666" lon="14.4547351822"><ele>7.83</ele><time>2011-09-24T04:48:37Z</time></trkpt><trkpt lat="44.5461241342" lon="14.4547396246"><ele>7.83</ele><time>2011-09-24T04:49:17Z</time></trkpt><trkpt lat="44.5461229607" lon="14.4547350984"><ele>8.31</ele><time>2011-09-24T04:49:53Z</time></trkpt><trkpt lat="44.5461220387" lon="14.4547348469"><ele>7.83</ele><time>2011-09-24T04:50:26Z</time></trkpt><trkpt lat="44.5461235475" lon="14.4547288120"><ele>8.31</ele><time>2011-09-24T04:51:03Z</time></trkpt><trkpt lat="44.5461279061" lon="14.4547316618"><ele>8.31</ele><time>2011-09-24T04:51:36Z</time></trkpt><trkpt lat="44.5461292472" lon="14.4547350146"><ele>7.83</ele><time>2011-09-24T04:52:08Z</time></trkpt><trkpt lat="44.5461312588" lon="14.4547301531"><ele>7.35</ele><time>2011-09-24T04:52:43Z</time></trkpt><trkpt lat="44.5461322647" lon="14.4547270518"><ele>7.35</ele><time>2011-09-24T04:53:19Z</time></trkpt><trkpt lat="44.5461347792" lon="14.4547283091"><ele>7.35</ele><time>2011-09-24T04:53:59Z</time></trkpt><trkpt lat="44.5461347792" lon="14.4547283091"><ele>7.35</ele><time>2011-09-24T04:54:37Z</time></trkpt><trkpt lat="44.5461394731" lon="14.4547359366"><ele>7.83</ele><time>2011-09-24T04:55:15Z</time></trkpt><trkpt lat="44.5461351983" lon="14.4547350146"><ele>7.83</ele><time>2011-09-24T04:56:00Z</time></trkpt><trkpt lat="44.5461361203" lon="14.4547363557"><ele>7.83</ele><time>2011-09-24T04:56:39Z</time></trkpt><trkpt lat="44.5461398922" lon="14.4547343440"><ele>7.83</ele><time>2011-09-24T04:57:19Z</time></trkpt><trkpt lat="44.5461398922" lon="14.4547343440"><ele>7.83</ele><time>2011-09-24T04:57:57Z</time></trkpt><trkpt lat="44.5461399760" lon="14.4547335058"><ele>7.35</ele><time>2011-09-24T04:58:36Z</time></trkpt><trkpt lat="44.5461376291" lon="14.4547293149"><ele>6.87</ele><time>2011-09-24T04:59:16Z</time></trkpt><trkpt lat="44.5461386349" lon="14.4547278062"><ele>6.87</ele><time>2011-09-24T04:59:53Z</time></trkpt><trkpt lat="44.5461396407" lon="14.4547330029"><ele>6.87</ele><time>2011-09-24T05:00:31Z</time></trkpt><trkpt lat="44.5461391378" lon="14.4547349308"><ele>6.87</ele><time>2011-09-24T05:01:08Z</time></trkpt><trkpt lat="44.5461400598" lon="14.4547328353"><ele>6.87</ele><time>2011-09-24T05:01:50Z</time></trkpt><trkpt lat="44.5461377129" lon="14.4547206815"><ele>6.87</ele><time>2011-09-24T05:02:27Z</time></trkpt><trkpt lat="44.5461376291" lon="14.4547241181"><ele>6.87</ele><time>2011-09-24T05:03:07Z</time></trkpt><trkpt lat="44.5461436640" lon="14.4547221065"><ele>6.39</ele><time>2011-09-24T05:03:45Z</time></trkpt><trkpt lat="44.5461450890" lon="14.4547224417"><ele>6.39</ele><time>2011-09-24T05:04:21Z</time></trkpt><trkpt lat="44.5461471006" lon="14.4547221065"><ele>6.39</ele><time>2011-09-24T05:05:01Z</time></trkpt><trkpt lat="44.5461465977" lon="14.4547184184"><ele>6.39</ele><time>2011-09-24T05:05:41Z</time></trkpt><trkpt lat="44.5461461786" lon="14.4547142275"><ele>5.91</ele><time>2011-09-24T05:06:23Z</time></trkpt><trkpt lat="44.5461420715" lon="14.4547163229"><ele>5.91</ele><time>2011-09-24T05:07:05Z</time></trkpt><trkpt lat="44.5461426582" lon="14.4547161553"><ele>5.91</ele><time>2011-09-24T05:07:44Z</time></trkpt><trkpt lat="44.5461411495" lon="14.4547225256"><ele>5.91</ele><time>2011-09-24T05:08:23Z</time></trkpt><trkpt lat="44.5461407304" lon="14.4547253754"><ele>4.94</ele><time>2011-09-24T05:09:06Z</time></trkpt><trkpt lat="44.5461417362" lon="14.4547299016"><ele>4.94</ele><time>2011-09-24T05:09:48Z</time></trkpt><trkpt lat="44.5461403113" lon="14.4547307398"><ele>5.42</ele><time>2011-09-24T05:10:29Z</time></trkpt><trkpt lat="44.5461400598" lon="14.4547314942"><ele>5.42</ele><time>2011-09-24T05:11:10Z</time></trkpt><trkpt lat="44.5461399760" lon="14.4547335058"><ele>5.42</ele><time>2011-09-24T05:11:49Z</time></trkpt><trkpt lat="44.5461372938" lon="14.4547364395"><ele>5.42</ele><time>2011-09-24T05:12:29Z</time></trkpt><trkpt lat="44.5461350307" lon="14.4547304884"><ele>5.42</ele><time>2011-09-24T05:13:14Z</time></trkpt><trkpt lat="44.5461355336" lon="14.4547274709"><ele>5.42</ele><time>2011-09-24T05:13:59Z</time></trkpt><trkpt lat="44.5461344440" lon="14.4547284767"><ele>5.42</ele><time>2011-09-24T05:14:46Z</time></trkpt><trkpt lat="44.5461347792" lon="14.4547273871"><ele>5.91</ele><time>2011-09-24T05:15:37Z</time></trkpt><trkpt lat="44.5461356174" lon="14.4547288120"><ele>5.91</ele><time>2011-09-24T05:16:17Z</time></trkpt></trkseg></trk></gpx>